[[{"header":{"parameterUnit":"m.s-1","parameterCategory":1,"la1":30.6,"la2":28.766,"lo1":-90.7593,"lo2":-88.6598,"dy":0.0162,"dx":0.0183,"nx":116,"ny":114,"refTime":"2023-09-04T00:00:00:Z","depth":0,"parameterNumber":2,"parameterNumberName":"U-component_of_WINDS"},"data":[0.0,0.0,0.0,0.0,0.0,0.0,0.0,0.0,0.0,0.0,0.0,0.0,0.0,0.0,0.0,0.0,0.0,0.0,0.0,0.0,0.0,0.0,0.0,0.0,0.0,0.0,0.0,0.0,0.0,0.0,0.0,0.0,0.0,0.0,0.0,0.0,0.0,0.0,0.0,0.0,0.0,0.0,0.0,0.0,0.0,0.0,0.0,0.0,0.0,0.0,0.0,0.0,0.0,0.0,0.0,0.0,0.0,0.0,0.0,0.0,0.0,0.0,0.0,0.0,0.0,0.0,0.0,0.0,0.0,0.0,0.0,0.0,0.0,0.0,0.0,0.0,0.0,0.0,0.0,0.0,0.0,0.0,0.0,0.0,0.0,0.0,0.0,0.0,0.0,0.0,0.0,0.0,0.0,0.0,0.0,0.0,0.0,0.0,0.0,0.0,0.0,0.0,0.0,0.0,0.0,0.0,0.0,0.0,0.0,0.0,0.0,0.0,0.0,0.0,0.0,0.0,0.0,0.0,0.0,0.0,0.0,0.0,0.0,0.0,0.0,0.0,0.0,0.0,0.0,0.0,0.0,0.0,0.0,0.0,0.0,0.0,0.0,0.0,0.0,0.0,0.0,0.0,0.0,0.0,0.0,0.0,0.0,0.0,0.0,0.0,0.0,0.0,0.0,0.0,0.0,0.0,0.0,0.0,0.0,0.0,0.0,0.0,0.0,0.0,0.0,0.0,0.0,0.0,0.0,0.0,0.0,0.0,0.0,0.0,0.0,0.0,0.0,0.0,0.0,0.0,0.0,0.0,0.0,0.0,0.0,0.0,0.0,0.0,0.0,0.0,0.0,0.0,0.0,0.0,0.0,0.0,0.0,0.0,0.0,0.0,0.0,0.0,0.0,0.0,0.0,0.0,0.0,0.0,0.0,0.0,0.0,0.0,0.0,0.0,0.0,0.0,0.0,0.0,0.0,0.0,0.0,0.0,0.0,0.0,0.0,0.0,0.0,0.0,0.0,0.0,0.0,0.0,0.0,0.0,0.0,0.0,0.0,0.0,0.0,0.0,0.0,0.0,0.0,0.0,0.0,0.0,0.0,0.0,0.0,0.0,0.0,0.0,0.0,0.0,0.0,0.0,0.0,0.0,0.0,0.0,0.0,0.0,0.0,0.0,0.0,0.0,0.0,0.0,0.0,0.0,0.0,0.0,0.0,0.0,0.0,0.0,0.0,0.0,0.0,0.0,0.0,0.0,0.0,0.0,0.0,0.0,0.0,0.0,0.0,0.0,0.0,0.0,0.0,0.0,0.0,0.0,0.0,0.0,0.0,0.0,0.0,0.0,0.0,0.0,0.0,0.0,0.0,0.0,0.0,0.0,0.0,0.0,0.0,0.0,0.0,0.0,0.0,0.0,0.0,0.0,0.0,0.0,0.0,0.0,0.0,0.0,0.0,0.0,0.0,0.0,0.0,0.0,0.0,0.0,0.0,0.0,0.0,0.0,0.0,0.0,0.0,0.0,0.0,0.0,0.0,0.0,0.0,0.0,0.0,0.0,0.0,0.0,0.0,0.0,0.0,0.0,0.0,0.0,0.0,0.0,0.0,0.0,0.0,0.0,0.0,0.0,0.0,0.0,0.0,0.0,0.0,0.0,0.0,0.0,0.0,0.0,0.0,0.0,0.0,0.0,0.0,0.0,0.0,0.0,0.0,0.0,0.0,0.0,0.0,0.0,0.0,0.0,0.0,0.0,0.0,0.0,0.0,0.0,0.0,0.0,0.0,0.0,0.0,0.0,0.0,0.0,0.0,0.0,0.0,0.0,0.0,0.0,0.0,0.0,0.0,0.0,0.0,0.0,0.0,0.0,0.0,0.0,0.0,0.0,0.0,0.0,0.0,0.0,0.0,0.0,0.0,0.0,0.0,0.0,0.0,0.0,0.0,0.0,0.0,0.0,0.0,0.0,0.0,0.0,0.0,0.0,0.0,0.0,0.0,0.0,0.0,0.0,0.0,0.0,0.0,0.0,0.0,0.0,0.0,0.0,0.0,0.0,0.0,0.0,0.0,0.0,0.0,0.0,0.0,0.0,0.0,0.0,0.0,0.0,0.0,0.0,0.0,0.0,0.0,0.0,0.0,0.0,0.0,0.0,0.0,0.0,0.0,0.0,0.0,0.0,0.0,0.0,0.0,0.0,0.0,0.0,0.0,0.0,0.0,0.0,0.0,0.0,0.0,0.0,0.0,0.0,0.0,0.0,0.0,0.0,0.0,0.0,0.0,0.0,0.0,0.0,0.0,0.0,0.0,0.0,0.0,0.0,0.0,0.0,0.0,0.0,0.0,0.0,0.0,0.0,0.0,0.0,0.0,0.0,0.0,0.0,0.0,0.0,0.0,0.0,0.0,0.0,0.0,0.0,0.0,0.0,0.0,0.0,0.0,0.0,0.0,0.0,0.0,0.0,0.0,0.0,0.0,0.0,0.0,0.0,0.0,0.0,0.0,0.0,0.0,0.0,0.0,0.0,0.0,0.0,0.0,0.0,0.0,0.0,0.0,0.0,0.0,0.0,0.0,0.0,0.0,0.0,0.0,0.0,0.0,0.0,0.0,0.0,0.0,0.0,0.0,0.0,0.0,0.0,0.0,0.0,0.0,0.0,0.0,0.0,0.0,0.0,0.0,0.0,0.0,0.0,0.0,0.0,0.0,0.0,0.0,0.0,0.0,0.0,0.0,0.0,0.0,0.0,0.0,0.0,0.0,0.0,0.0,0.0,0.0,0.0,0.0,0.0,0.0,0.0,0.0,0.0,0.0,0.0,0.0,0.0,0.0,0.0,0.0,0.0,0.0,0.0,0.0,0.0,0.0,0.0,0.0,0.0,0.0,0.0,0.0,0.0,0.0,0.0,0.0,0.0,0.0,0.0,0.0,0.0,0.0,0.0,0.0,0.0,0.0,0.0,0.0,0.0,0.0,0.0,0.0,0.0,0.0,0.0,0.0,0.0,0.0,0.0,0.0,0.0,0.0,0.0,0.0,0.0,0.0,0.0,0.0,0.0,0.0,0.0,0.0,0.0,0.0,0.0,0.0,0.0,0.0,0.0,0.0,0.0,0.0,0.0,0.0,0.0,0.0,0.0,0.0,0.0,0.0,0.0,0.0,0.0,0.0,0.0,0.0,0.0,0.0,0.0,0.0,0.0,0.0,0.0,0.0,0.0,0.0,0.0,0.0,0.0,0.0,0.0,0.0,0.0,0.0,0.0,0.0,0.0,0.0,0.0,0.0,0.0,0.0,0.0,0.0,0.0,0.0,0.0,0.0,0.0,0.0,0.0,0.0,0.0,0.0,0.0,0.0,0.0,0.0,0.0,0.0,0.0,0.0,0.0,0.0,0.0,0.0,0.0,0.0,0.0,0.0,0.0,0.0,0.0,0.0,0.0,0.0,0.0,0.0,0.0,0.0,0.0,0.0,0.0,0.0,0.0,0.0,0.0,0.0,0.0,0.0,0.0,0.0,0.0,0.0,0.0,0.0,0.0,0.0,0.0,0.0,0.0,0.0,0.0,0.0,0.0,0.0,0.0,0.0,0.0,0.0,0.0,0.0,0.0,0.0,0.0,0.0,0.0,0.0,0.0,0.0,0.0,0.0,0.0,0.0,0.0,0.0,0.0,0.0,0.0,0.0,0.0,0.0,0.0,0.0,0.0,0.0,0.0,0.0,0.0,0.0,0.0,0.0,0.0,0.0,0.0,0.0,0.0,0.0,0.0,0.0,0.0,0.0,0.0,0.0,0.0,0.0,0.0,0.0,0.0,0.0,0.0,0.0,0.0,0.0,0.0,0.0,0.0,0.0,0.0,0.0,0.0,0.0,0.0,0.0,0.0,0.0,0.0,0.0,0.0,0.0,0.0,0.0,0.0,0.0,0.0,0.0,0.0,0.0,0.0,0.0,0.0,0.0,0.0,0.0,0.0,0.0,0.0,0.0,0.0,0.0,0.0,0.0,0.0,0.0,0.0,0.0,0.0,0.0,0.0,0.0,0.0,0.0,0.0,0.0,0.0,0.0,0.0,0.0,0.0,0.0,0.0,0.0,0.0,0.0,0.0,0.0,0.0,0.0,0.0,0.0,0.0,0.0,0.0,0.0,0.0,0.0,0.0,0.0,0.0,0.0,0.0,0.0,0.0,0.0,0.0,0.0,0.0,0.0,0.0,0.0,0.0,0.0,0.0,0.0,0.0,0.0,0.0,0.0,0.0,0.0,0.0,0.0,0.0,0.0,0.0,0.0,0.0,0.0,0.0,0.0,0.0,0.0,0.0,0.0,0.0,0.0,0.0,0.0,0.0,0.0,0.0,0.0,0.0,0.0,0.0,0.0,0.0,0.0,0.0,0.0,0.0,0.0,0.0,0.0,0.0,0.0,0.0,0.0,0.0,0.0,0.0,0.0,0.0,0.0,0.0,0.0,0.0,0.0,0.0,0.0,0.0,0.0,0.0,0.0,0.0,0.0,0.0,0.0,0.0,0.0,0.0,0.0,0.0,0.0,0.0,0.0,0.0,0.0,0.0,0.0,0.0,0.0,0.0,0.0,0.0,0.0,0.0,0.0,0.0,0.0,0.0,0.0,0.0,0.0,0.0,0.0,0.0,0.0,0.0,0.0,0.0,0.0,0.0,0.0,0.0,0.0,0.0,0.0,0.0,0.0,0.0,0.0,0.0,0.0,0.0,0.0,0.0,0.0,0.0,0.0,0.0,0.0,0.0,0.0,0.0,0.0,0.0,0.0,0.0,0.0,0.0,0.0,0.0,0.0,0.0,0.0,0.0,0.0,0.0,0.0,0.0,0.0,0.0,0.0,0.0,0.0,0.0,0.0,0.0,0.0,0.0,0.0,0.0,0.0,0.0,0.0,0.0,0.0,0.0,0.0,0.0,0.0,0.0,0.0,0.0,0.0,0.0,0.0,0.0,0.0,0.0,0.0,0.0,0.0,0.0,0.0,0.0,0.0,0.0,0.0,0.0,0.0,0.0,0.0,0.0,0.0,0.0,0.0,0.0,0.0,0.0,0.0,0.0,0.0,0.0,0.0,0.0,0.0,0.0,0.0,0.0,0.0,0.0,0.0,0.0,0.0,0.0,0.0,0.0,0.0,0.0,0.0,0.0,0.0,0.0,0.0,0.0,0.0,0.0,0.0,0.0,0.0,0.0,0.0,0.0,0.0,0.0,0.0,0.0,0.0,0.0,0.0,0.0,0.0,0.0,0.0,0.0,0.0,0.0,0.0,0.0,0.0,0.0,0.0,0.0,0.0,0.0,0.0,0.0,0.0,0.0,0.0,0.0,0.0,0.0,0.0,0.0,0.0,0.0,0.0,0.0,0.0,0.0,0.0,0.0,0.0,0.0,0.0,0.0,0.0,0.0,0.0,0.0,0.0,0.0,0.0,0.0,0.0,0.0,0.0,0.0,0.0,0.0,0.0,0.0,0.0,0.0,0.0,0.0,0.0,0.0,0.0,0.0,0.0,0.0,0.0,0.0,0.0,0.0,0.0,0.0,0.0,0.0,0.0,0.0,0.0,0.0,0.0,0.0,0.0,0.0,0.0,0.0,0.0,0.0,0.0,0.0,0.0,0.0,0.0,0.0,0.0,0.0,0.0,0.0,0.0,0.0,0.0,0.0,0.0,0.0,0.0,0.0,0.0,0.0,0.0,0.0,0.0,0.0,0.0,0.0,0.0,0.0,0.0,0.0,0.0,0.0,0.0,0.0,0.0,0.0,0.0,0.0,0.0,0.0,0.0,0.0,0.0,0.0,0.0,0.0,0.0,0.0,0.0,0.0,0.0,0.0,0.0,0.0,0.0,0.0,0.0,0.0,0.0,0.0,0.0,0.0,0.0,0.0,0.0,0.0,0.0,0.0,0.0,0.0,0.0,0.0,0.0,0.0,0.0,0.0,0.0,0.0,0.0,0.0,0.0,0.0,0.0,0.0,0.0,0.0,0.0,0.0,0.0,0.0,0.0,0.0,0.0,0.0,0.0,0.0,0.0,0.0,0.0,0.0,0.0,0.0,0.0,0.0,0.0,0.0,0.0,0.0,0.0,0.0,0.0,0.0,0.0,0.0,0.0,0.0,-1.9269,0.0,0.0,0.0,0.0,0.0,0.0,0.0,0.0,0.0,0.0,0.0,0.0,0.0,0.0,0.0,0.0,0.0,0.0,0.0,0.0,0.0,0.0,0.0,0.0,0.0,0.0,0.0,0.0,0.0,0.0,0.0,0.0,0.0,0.0,0.0,0.0,0.0,0.0,-0.6052,-0.619,-0.6006,-0.5557,-0.5416,-0.532,-0.5262,0.0,0.0,0.0,0.0,0.0,0.0,0.0,0.0,0.0,0.0,0.0,0.0,0.0,0.0,0.0,0.0,0.0,0.0,0.0,0.0,0.0,0.0,0.0,0.0,0.0,0.0,0.0,0.0,0.0,0.0,0.0,0.0,0.0,0.0,0.0,0.0,0.0,0.0,0.0,0.0,0.0,0.0,0.0,0.0,0.0,0.0,0.0,0.0,0.0,0.0,0.0,0.0,0.0,0.0,0.0,0.0,0.0,0.0,0.0,0.0,0.0,0.0,0.0,0.0,0.0,0.0,0.0,0.0,0.0,0.0,0.0,-2.1866,0.0,0.0,0.0,0.0,0.0,0.0,0.0,0.0,0.0,0.0,0.0,0.0,0.0,0.0,0.0,0.0,0.0,0.0,0.0,0.0,0.0,0.0,0.0,-0.1942,-0.2144,-0.2424,-0.2744,-0.298,0.0,0.0,0.0,0.0,0.0,0.0,-0.5482,-0.6117,-0.6393,-0.6276,-0.6168,-0.5812,-0.5193,-0.5377,-0.5468,-0.5437,-0.5685,0.0,0.0,0.0,0.0,0.0,0.0,0.0,0.0,0.0,0.0,0.0,0.0,0.0,0.0,0.0,0.0,0.0,0.0,0.0,0.0,0.0,0.0,0.0,0.0,0.0,0.0,0.0,0.0,0.0,0.0,0.0,0.0,0.0,0.0,0.0,0.0,0.0,0.0,0.0,0.0,0.0,0.0,0.0,0.0,0.0,0.0,0.0,0.0,0.0,0.0,0.0,0.0,0.0,0.0,0.0,0.0,0.0,0.0,0.0,0.0,0.0,0.0,0.0,-2.8958,-2.981,-3.0912,-3.0856,-3.0573,-2.9914,-2.7289,-2.5928,-2.5487,-2.4811,0.0,0.0,0.0,0.0,0.0,0.0,0.0,0.0,0.0,0.0,0.0,0.0,0.0,0.0,0.0,0.0,0.0,0.0,0.0,0.0,0.0,-0.2221,-0.2192,-0.2234,-0.2693,-0.3037,-0.3184,0.0,0.0,0.0,0.0,0.0,-0.5505,-0.6269,-0.6494,-0.6131,-0.5947,-0.5743,-0.5546,-0.5667,-0.5698,-0.5586,-0.55,-0.5551,-0.5695,0.0,0.0,0.0,0.0,0.0,0.0,0.0,0.0,0.0,0.0,0.0,0.0,0.0,0.0,0.0,0.0,0.0,0.0,0.0,0.0,0.0,0.0,0.0,0.0,0.0,0.0,0.0,0.0,0.0,0.0,0.0,0.0,0.0,0.0,0.0,0.0,0.0,0.0,0.0,0.0,0.0,-1.6424,-1.7427,0.0,0.0,0.0,0.0,0.0,0.0,0.0,0.0,0.0,0.0,0.0,0.0,0.0,-2.7808,-2.8265,-3.0261,-3.1379,-3.1518,-3.1809,-3.2055,-3.2265,-3.2172,-3.233,-3.2687,-3.2256,0.0,-2.8393,-2.7735,0.0,0.0,0.0,0.0,0.0,0.0,0.0,0.0,0.0,0.0,0.0,0.0,0.0,0.0,0.0,0.0,0.0,0.0,0.0,0.0,0.0,-0.2275,-0.2326,-0.2477,-0.2697,-0.2937,-0.3175,-0.3748,0.0,0.0,0.0,-0.5722,-0.5997,-0.6416,-0.6469,-0.6092,-0.5779,-0.5506,-0.5256,-0.532,-0.5491,-0.5698,-0.578,-0.5903,-0.6091,-0.599,0.0,0.0,0.0,0.0,0.0,0.0,0.0,0.0,0.0,0.0,0.0,0.0,0.0,0.0,0.0,0.0,0.0,0.0,0.0,0.0,0.0,0.0,0.0,0.0,0.0,0.0,0.0,0.0,0.0,0.0,0.0,0.0,0.0,0.0,0.0,0.0,0.0,0.0,0.0,-1.6263,-1.789,-1.9121,-1.9388,-1.9643,0.0,0.0,0.0,0.0,0.0,0.0,0.0,0.0,0.0,-2.688,-2.8781,-3.0036,-3.0526,-3.2321,-3.3377,-3.3658,-3.3744,-3.4044,-3.4452,-3.4426,-3.451,-3.4607,-3.5057,-3.4511,-3.3026,-3.0987,-3.0417,-3.0694,0.0,0.0,0.0,0.0,-2.9164,-2.9366,0.0,0.0,0.0,0.0,0.0,0.0,0.0,0.0,0.0,0.0,0.0,0.0,-0.2181,-0.2292,-0.2394,-0.2578,-0.2731,-0.2885,-0.3082,-0.3685,-0.4247,-0.4726,-0.5226,-0.577,-0.6393,-0.644,-0.6332,-0.6081,-0.561,-0.5249,-0.5049,-0.5049,-0.5332,-0.5857,-0.6043,-0.622,-0.639,-0.6293,-0.6293,-0.6316,0.0,0.0,0.0,0.0,0.0,0.0,0.0,0.0,0.0,0.0,0.0,0.0,0.0,0.0,0.0,0.0,0.0,0.0,0.0,0.0,0.0,0.0,0.0,0.0,0.0,0.0,0.0,0.0,0.0,0.0,0.0,0.0,0.0,0.0,0.0,0.0,0.0,-1.7659,-1.9278,-2.061,-2.1271,-2.1696,0.0,0.0,0.0,0.0,0.0,0.0,-2.6625,-2.7302,-2.8045,-2.8951,-3.0577,-3.1746,-3.2464,-3.3804,-3.4631,-3.499,-3.5198,-3.5551,-3.6054,-3.6142,-3.617,-3.6158,-3.6727,-3.6973,-3.6701,-3.4108,-3.2922,-3.2763,-3.24,-3.2074,-3.1881,-3.2832,-3.306,-3.3005,0.0,0.0,0.0,0.0,0.0,0.0,0.0,0.0,0.0,0.0,0.0,-0.1641,-0.2236,-0.2357,-0.2384,-0.2322,-0.2796,-0.3011,-0.2834,-0.3626,-0.4247,-0.4587,-0.511,-0.5711,-0.6374,-0.622,-0.6101,-0.5994,-0.5355,-0.5084,-0.518,-0.518,-0.5471,-0.5976,-0.6056,-0.622,-0.6405,-0.6591,-0.649,-0.6207,-0.632,0.0,0.0,0.0,0.0,0.0,0.0,0.0,0.0,0.0,0.0,0.0,0.0,0.0,0.0,0.0,0.0,0.0,0.0,0.0,0.0,0.0,0.0,0.0,0.0,0.0,0.0,0.0,0.0,0.0,0.0,0.0,0.0,0.0,0.0,0.0,0.0,0.0,0.0,-2.1727,-2.3077,0.0,0.0,0.0,0.0,-2.493,-2.5719,-2.6877,-2.8571,-2.8881,-2.9732,-3.1382,-3.209,-3.3039,-3.4271,-3.5074,-3.5427,-3.5218,-3.6223,-3.6486,-3.6111,-3.6573,-3.693,-3.7232,-3.7181,-3.7494,-3.7952,-3.6726,-3.6836,-3.7553,-3.6808,-3.662,-3.6797,-3.6637,-3.64,-3.6213,0.0,0.0,0.0,0.0,0.0,0.0,0.0,0.0,-0.0767,-0.1071,-0.1348,-0.171,-0.2182,-0.2215,-0.2242,-0.2297,-0.2432,-0.2494,-0.241,-0.332,-0.3974,-0.4271,-0.5244,-0.6089,-0.6705,-0.6153,-0.5859,-0.5884,-0.5242,-0.4942,-0.4953,-0.4953,-0.5245,-0.5752,-0.6039,-0.6303,-0.6552,-0.6659,-0.6712,-0.6678,-0.6379,-0.6411,0.0,0.0,0.0,0.0,0.0,0.0,0.0,0.0,0.0,0.0,0.0,0.0,0.0,0.0,0.0,0.0,0.0,0.0,0.0,0.0,0.0,0.0,0.0,0.0,0.0,0.0,0.0,0.0,0.0,0.0,0.0,0.0,0.0,0.0,0.0,0.0,0.0,-2.3652,-2.4608,0.0,-2.5228,-2.538,-2.5587,-2.5795,-2.6495,-2.7699,-2.9358,-2.9682,-3.0439,-3.183,-3.3051,-3.4113,-3.4907,-3.6065,-3.6833,-3.7248,-3.7481,-3.7882,-3.8442,-3.8573,-3.8856,-3.9092,-3.926,-3.937,-3.9399,-3.9347,-3.8944,-3.8274,-3.7992,-3.7941,-3.8032,-3.8111,-3.8081,-3.7944,0.0,0.0,0.0,0.0,0.0,0.0,0.0,0.0,-0.081,-0.1033,-0.1288,-0.1584,-0.1955,-0.2002,-0.2032,-0.2135,-0.2184,-0.223,-0.2258,-0.3098,-0.3756,-0.4072,-0.5278,-0.6075,-0.6408,-0.5874,-0.5614,-0.5659,-0.5115,-0.4887,-0.4969,-0.4925,-0.524,-0.587,-0.6286,-0.6605,-0.6901,-0.7153,-0.7179,-0.6967,-0.6654,-0.6621,-0.6738,0.0,0.0,0.0,0.0,0.0,0.0,0.0,0.0,0.0,0.0,0.0,0.0,0.0,0.0,0.0,0.0,0.0,0.0,0.0,0.0,0.0,0.0,0.0,0.0,0.0,0.0,0.0,0.0,0.0,0.0,0.0,0.0,0.0,0.0,-2.1171,-2.3125,-2.4446,-2.5917,-2.6713,-2.6445,-2.7012,-2.7211,-2.6867,-2.7597,-2.8574,-2.9753,-3.0597,-3.1405,-3.2105,-3.3623,-3.4705,-3.5318,-3.64,-3.7364,-3.825,-3.8497,-3.9043,-3.9837,-4.0022,-4.0257,-4.0511,-4.043,-4.0352,-4.0387,-4.0755,-4.03,-3.9303,-3.9335,-3.9182,-3.9009,-3.9201,-3.9205,-3.9175,0.0,0.0,0.0,0.0,0.0,0.0,0.0,-0.0457,-0.074,-0.1148,-0.1132,-0.1234,-0.1559,-0.1725,-0.1797,-0.1797,-0.2046,-0.2263,-0.2403,-0.305,-0.3638,-0.4125,-0.5197,-0.5685,-0.5538,-0.5381,-0.5344,-0.5401,-0.5026,-0.4974,-0.5318,-0.5191,-0.5547,-0.6345,-0.6802,-0.7161,-0.7445,-0.8114,-0.7857,-0.7048,-0.7179,-0.7101,-0.6886,0.0,0.0,0.0,0.0,0.0,0.0,0.0,0.0,0.0,0.0,0.0,0.0,0.0,0.0,0.0,0.0,0.0,0.0,0.0,0.0,0.0,0.0,0.0,0.0,0.0,0.0,0.0,0.0,0.0,0.0,0.0,0.0,0.0,-2.0423,-2.2218,-2.3756,-2.4123,-2.707,-2.8598,-2.7428,-2.8486,-2.8919,-2.8206,-2.9011,-2.9633,-2.9828,-3.1666,-3.2652,-3.2361,-3.3716,-3.474,-3.5455,-3.6086,-3.6991,-3.8034,-3.9165,-3.9849,-4.0193,-4.0674,-4.1085,-4.1288,-4.0524,-4.0485,-4.0933,-4.0933,-4.0965,-4.0959,-4.0909,-4.0572,-4.0052,-3.9966,-3.992,-3.9925,0.0,0.0,0.0,0.0,0.0,0.0,0.0,-0.0216,-0.0498,-0.0987,-0.1047,-0.1222,-0.1689,-0.1698,-0.174,-0.1933,-0.224,-0.2484,-0.2599,-0.3473,-0.4338,-0.5147,-0.5023,-0.5251,-0.5923,-0.5474,-0.5414,-0.5768,-0.5502,-0.5446,-0.5518,-0.563,-0.5957,-0.6453,-0.6889,-0.7257,-0.762,-0.7955,-0.7914,-0.7567,-0.7584,-0.7344,-0.7054,0.0,0.0,0.0,0.0,0.0,0.0,0.0,0.0,0.0,0.0,0.0,0.0,0.0,0.0,0.0,0.0,0.0,0.0,0.0,0.0,0.0,0.0,0.0,0.0,0.0,0.0,0.0,0.0,0.0,0.0,0.0,-2.1472,-2.2453,-2.2525,-2.4459,-2.6372,-2.7637,-2.9401,-3.0428,-3.0206,-3.1095,-3.1209,-3.0089,-3.0382,-3.0528,-3.0303,-3.1245,-3.1618,-3.1236,-3.3659,-3.4822,-3.4562,-3.6133,-3.7636,-3.9073,-3.9062,-3.995,-4.1597,-4.1517,-4.1646,-4.1919,-4.1931,-4.191,-4.1834,-4.2031,-4.2022,-4.1823,-4.1415,-4.1117,-4.09,-4.0731,-4.0851,-4.1172,0.0,0.0,0.0,0.0,0.0,0.0,0.0,0.0165,-0.013,-0.0687,-0.0791,-0.0964,-0.134,-0.1385,-0.1478,-0.1675,-0.1974,-0.2284,-0.2636,-0.3538,-0.4455,-0.5351,-0.4812,-0.487,-0.574,-0.5251,-0.5204,-0.5701,-0.5663,-0.5733,-0.5912,-0.6099,-0.6337,-0.6584,-0.7236,-0.7556,-0.762,-0.8136,-0.8142,-0.7722,-0.7749,-0.7465,-0.7031,-0.7106,-0.7009,-0.6859,-0.6933,-0.6798,-0.6593,-0.6947,0.0,0.0,0.0,0.0,0.0,0.0,0.0,0.0,0.0,0.0,0.0,0.0,0.0,0.0,0.0,0.0,0.0,0.0,0.0,0.0,0.0,0.0,0.0,0.0,-2.3559,-2.4665,-2.5331,-2.6403,-2.7627,-2.8991,-3.0751,-3.1801,-3.162,-3.2815,-3.3032,-3.1728,-3.2022,-3.2026,-3.1333,-3.2243,-3.2377,-3.1521,-3.3952,-3.4978,-3.4346,-3.6152,-3.7973,-3.9663,-3.9411,-4.0428,-4.2552,-4.2331,-4.2441,0.0,-4.2497,-4.2457,-4.2569,-4.2577,-4.2359,0.0,0.0,0.0,0.0,0.0,-4.1263,-4.1781,0.0,0.0,0.0,0.0,0.0,0.0,0.0,0.0607,0.0295,-0.0258,-0.0442,-0.0586,-0.076,-0.0926,-0.11,-0.1275,-0.1472,-0.1892,-0.2611,-0.3442,-0.4236,-0.4961,-0.4534,-0.4567,-0.5262,-0.4925,-0.4983,-0.547,-0.5688,-0.595,-0.6338,-0.6525,-0.6648,-0.6719,-0.7664,-0.7867,-0.7583,-0.8504,-0.8407,-0.773,-0.7843,-0.7508,-0.6908,-0.6861,-0.6779,-0.6678,-0.6638,-0.6626,-0.6716,-0.7121,0.0,0.0,0.0,0.0,0.0,0.0,0.0,0.0,0.0,0.0,0.0,0.0,0.0,0.0,0.0,0.0,0.0,0.0,0.0,0.0,0.0,0.0,0.0,0.0,-2.5927,-2.7296,-2.8345,-2.8209,-2.8333,-2.9277,-3.1514,-3.2798,-3.2374,-3.3882,-3.4439,-3.337,-3.3921,-3.3776,-3.2729,0.0,0.0,0.0,0.0,-3.5254,-3.4698,-3.6391,-3.8158,-3.9917,-4.0016,-4.1072,-4.2918,-4.2911,-4.3078,-4.333,-4.269,-4.2657,-4.3121,-4.2862,-4.2449,-4.2048,-4.23,-4.1831,-4.102,-4.097,-4.1497,-4.2147,0.0,0.0,0.0,0.0,0.0,0.0,0.0,0.1021,0.0763,0.0158,-0.0024,-0.025,-0.061,-0.0672,-0.0849,-0.1177,-0.1464,-0.2028,-0.3023,-0.3558,-0.3995,-0.4354,-0.4111,-0.435,-0.5121,-0.5058,-0.5299,-0.5881,-0.6098,-0.629,-0.6563,-0.6753,-0.6974,-0.7268,-0.7638,-0.8018,-0.8374,-0.8558,-0.8541,-0.8381,-0.8056,-0.7569,-0.7057,-0.7001,-0.7064,-0.7258,-0.7218,-0.7128,-0.7071,-0.7512,-0.7633,-0.7667,-0.8011,-0.8255,0.0,0.0,0.0,0.0,0.0,0.0,0.0,0.0,0.0,0.0,0.0,0.0,0.0,0.0,0.0,0.0,0.0,0.0,0.0,-2.5307,-2.6885,-2.839,-3.0133,-3.0441,-3.0658,-3.1088,-3.2563,-3.3785,-3.4445,-3.5098,-3.5582,-3.5733,-3.5464,-3.5005,-3.4377,-3.4843,-3.443,-3.3013,-3.5023,-3.58,-3.5199,-3.7319,-3.8998,-4.0116,0.0,0.0,-4.2569,-4.2411,-4.2768,-4.3436,-4.3534,-4.3727,-4.4051,-4.3778,-4.3597,-4.3349,-4.2067,-4.1976,-4.2588,-4.2568,-4.2941,-4.343,0.0,0.0,0.0,0.0,0.0,0.0,0.0,0.1482,0.1128,0.0529,0.0287,0.0,-0.0367,-0.0532,-0.0715,-0.1033,-0.167,-0.2303,-0.2865,-0.3372,-0.3807,-0.4174,-0.3962,-0.4231,-0.5085,-0.5092,-0.5339,-0.581,-0.625,-0.6514,-0.6601,-0.7019,-0.7219,-0.7313,-0.7695,-0.794,-0.817,-0.849,-0.8507,-0.834,-0.7899,-0.7621,-0.7467,-0.6961,-0.6888,-0.7033,-0.6947,-0.6976,-0.7101,-0.7304,-0.7473,-0.7574,-0.7828,-0.8148,-0.8549,0.0,0.0,0.0,0.0,0.0,0.0,0.0,0.0,0.0,0.0,0.0,0.0,0.0,0.0,-1.9544,-2.1647,0.0,-2.436,-2.7218,-2.8239,-2.9207,-3.068,-3.1226,-3.1525,-3.1766,-3.285,-3.3844,-3.4578,-3.5427,-3.6058,-3.6458,-3.6578,-3.6412,-3.5955,-3.5957,-3.5382,-3.414,-3.5743,-3.6398,-3.5926,-3.7872,-3.9447,-4.0675,-4.0523,-4.1175,-4.2513,-4.2407,-4.2821,-4.3628,-4.3621,-4.3987,-4.4479,-4.4054,-4.3926,-4.3808,-4.2786,-4.2988,-4.3772,-4.3391,-4.349,-4.381,0.0,0.0,0.0,0.0,0.0,0.0,0.0,0.1864,0.1496,0.0913,0.0592,0.0288,-0.0025,-0.0348,-0.0639,-0.0944,-0.1914,-0.2501,-0.2523,-0.3116,-0.3645,-0.4055,-0.3872,-0.4175,-0.4984,-0.5055,-0.5246,-0.5599,-0.6226,-0.6566,-0.6678,-0.7145,-0.7305,-0.7247,-0.7707,-0.7903,-0.7844,-0.8383,-0.8472,-0.8245,-0.7757,-0.7628,-0.7661,-0.6924,-0.6718,-0.6825,-0.6573,-0.6676,-0.6986,-0.7114,-0.7375,-0.7637,-0.7921,-0.8353,-0.8768,-0.8754,-0.9237,0.0,0.0,0.0,0.0,0.0,0.0,0.0,0.0,-1.6162,-1.7161,-1.8931,-2.0021,-2.1465,-2.424,-2.4956,-2.6087,-2.9017,-2.955,-2.9941,-3.0908,-3.144,-3.1805,-3.195,-3.2667,-3.3485,-3.4141,-3.5172,-3.5998,-3.6606,-3.7232,-3.7518,-3.7303,-3.7142,-3.661,-3.5592,-3.6587,-3.702,-3.6926,-3.8479,-3.9832,-4.1033,-4.0796,-4.133,-4.2413,-4.2469,-4.2974,-4.3806,-4.3646,-4.4022,-4.4696,-4.4279,-4.4149,-4.4163,-4.3966,-4.4333,-4.4875,-4.4108,-4.3999,-4.4176,0.0,0.0,0.0,0.0,0.0,0.0,0.0,0.0,0.188,0.1374,0.1047,0.073,0.0457,0.0024,-0.052,-0.12,-0.203,-0.2421,-0.2253,-0.2979,-0.3472,-0.3564,-0.3671,-0.3995,-0.4652,-0.4953,-0.5224,-0.5496,-0.6056,-0.6505,-0.6881,-0.6896,-0.7052,-0.739,-0.7556,-0.787,-0.8229,-0.8479,-0.8604,-0.8504,-0.8028,-0.7588,-0.7139,-0.6861,-0.7021,-0.7351,-0.6919,-0.6834,-0.7016,-0.758,-0.7967,-0.8307,-0.8923,-0.9258,-0.9534,-1.0233,-0.949,-0.8787,-1.0426,-1.1653,-1.2728,-1.3848,-1.4954,-1.6047,0.0,-1.8052,-1.8994,-2.0181,-2.1755,-2.3332,-2.4713,-2.6087,-2.7612,-2.9517,-3.0134,-3.066,-3.1492,-3.1813,-3.1893,-3.1761,-3.2201,-3.299,-3.4166,-3.4431,-3.5094,-3.6582,-3.7252,-3.7666,-3.7919,-3.8092,-3.7921,-3.734,-3.7618,-3.7912,-3.8119,-3.954,-4.0428,-4.0723,-4.1525,-4.198,-4.2155,-4.2356,-4.2849,-4.3504,-4.3949,-4.4411,-4.4722,-4.494,-4.5034,-4.5088,-4.5276,-4.5542,-4.5793,-4.5242,-4.5194,-4.5316,0.0,0.0,0.0,0.0,0.0,0.0,0.0,0.0,0.0,0.1683,0.15,0.1257,0.0786,0.0114,-0.0526,-0.1032,-0.1807,-0.2191,-0.2042,-0.2775,-0.3314,-0.3503,-0.363,-0.3982,-0.4586,-0.4896,-0.5101,-0.5223,-0.5929,-0.626,-0.6194,-0.6659,-0.6946,-0.7053,-0.7484,-0.7812,-0.8091,-0.8265,-0.8376,-0.8277,-0.7483,-0.7097,-0.6967,-0.6185,-0.6097,-0.6435,-0.6245,-0.6266,0.0,-0.6873,-0.7243,-0.7617,-0.8464,-0.9201,-0.9732,-0.9297,-0.9915,-1.105,-1.2367,-1.3138,-1.3811,-1.476,-1.6049,-1.7247,-1.8102,-1.9118,-2.023,-2.1561,-2.2865,-2.4295,-2.5863,-2.6775,-2.7911,-2.978,-3.0097,-3.0393,-3.1323,-3.1673,-3.1728,-3.1426,-3.1693,-3.2333,-3.3431,-3.3783,-3.4553,-3.607,-3.6575,-3.7181,-3.7966,-3.7964,-3.7831,-3.7613,-3.78,-3.8209,-3.8795,-3.9483,-4.029,-4.1218,-4.1459,-4.1757,-4.211,-4.2211,-4.2818,-4.3708,-4.4148,-4.4463,-4.4722,-4.4843,-4.5018,-4.5234,-4.5502,-4.5755,-4.598,-4.5751,-4.5612,-4.5546,0.0,0.0,0.0,0.0,0.0,0.0,0.0,0.0,0.0,0.0,0.1877,0.1569,0.0784,0.0045,-0.0539,-0.0874,-0.1623,-0.2018,-0.1918,-0.2591,-0.3156,-0.3429,-0.3585,-0.3906,-0.4438,-0.483,-0.5009,-0.4985,-0.5761,-0.597,-0.5786,-0.6391,-0.6724,-0.6725,-0.7286,-0.7594,-0.7677,-0.7881,-0.7931,-0.7833,-0.6987,-0.6688,-0.66,-0.5624,-0.5318,-0.5443,-0.5382,-0.5499,-0.5676,-0.589,-0.6243,-0.6754,-0.7924,-0.8985,-0.979,-0.9325,-1.0999,-1.3154,-1.3808,-1.4371,-1.4958,-1.5896,-1.7083,-1.8241,-1.8943,-1.9972,-2.1138,-2.2449,-2.3619,-2.4877,-2.6522,-2.7177,-2.8073,-2.9829,-2.9906,-3.007,-3.108,-3.1276,-3.1225,-3.1014,-3.104,-3.1464,-3.2498,-3.3169,-3.4083,-3.541,-3.6067,-3.6784,-3.7628,-3.7788,-3.7788,-3.7693,-3.8162,-3.8704,-3.9284,-3.9641,-4.0335,-4.1492,-4.139,-4.1573,-4.211,-4.2268,-4.2943,-4.3899,-4.4107,-4.4367,-4.4722,-4.4789,-4.5005,-4.5341,-4.5595,-4.5754,-4.591,-4.6072,-4.6027,-4.579,0.0,0.0,0.0,0.0,0.0,0.0,0.0,0.0,0.0,0.0,0.0,0.0,0.0,-0.0157,-0.0539,-0.0877,-0.1588,-0.1966,-0.1915,-0.2483,-0.2971,-0.3287,-0.3427,-0.3688,-0.4121,-0.4682,-0.4981,-0.5015,-0.5427,-0.5712,-0.5899,-0.6123,-0.6311,-0.6521,-0.6917,-0.7112,-0.712,-0.7338,-0.7296,-0.7123,-0.6833,-0.6415,-0.5999,-0.5541,-0.5121,-0.4715,-0.4653,-0.4604,-0.4601,-0.4858,-0.5308,-0.601,-0.7687,-0.8828,-0.9816,-1.1408,-1.2858,-1.4001,-1.424,-1.5057,-1.6158,-1.7435,-1.823,-1.8904,-1.9833,-2.0722,-2.1642,-2.2593,-2.3854,-2.5118,-2.6132,-2.7222,-2.8387,-2.9691,-2.9669,-2.984,-3.0883,-3.0549,-3.0307,-3.049,-3.0162,-3.0409,-3.1545,-3.2554,-3.3576,-3.4638,-3.5941,-3.6716,-3.6822,-3.7817,-3.8273,-3.8015,-3.9071,-3.9623,-3.9609,-4.0381,-4.0914,-4.1242,-4.1447,-4.1789,-4.2098,-4.2706,-4.3321,-4.3899,-4.3899,-4.4203,-4.4735,-4.5072,-4.5341,-4.5595,-4.5861,-4.5841,-4.5682,-4.6265,-4.6469,-4.6292,0.0,0.0,0.0,0.0,0.0,0.0,0.0,0.0,0.0,0.0,0.0,0.0,0.0,0.0,0.0,0.0,-0.1306,-0.1749,-0.1773,-0.2421,-0.2934,-0.3208,-0.3608,-0.3975,-0.4278,-0.4618,-0.4873,-0.4997,-0.5371,-0.5462,-0.5383,-0.5789,-0.5945,-0.5876,-0.6286,-0.6566,-0.6654,-0.6695,-0.6695,-0.6602,-0.61,-0.5737,-0.5409,-0.4839,-0.4473,-0.423,0.0,-0.3735,-0.4077,-0.4284,-0.4683,-0.5389,-0.7038,-0.7967,-0.8931,-1.1368,-1.2542,-1.3426,-1.493,-1.6198,-1.7181,-1.7793,-1.8481,-1.9191,-1.9825,-2.0549,-2.1446,-2.2522,-2.3474,-2.448,-2.5587,-2.6647,-2.7622,-2.855,-2.9009,-2.9542,-3.0363,-3.0483,-3.052,-3.0634,-3.1082,-3.1551,-3.1918,0.0,0.0,-3.406,-3.4806,-3.5481,-3.6214,-3.7307,-3.8015,-3.826,-3.9204,-3.9827,-4.0135,-4.0604,-4.0914,-4.1184,-4.1688,-4.1984,-4.2098,-4.2706,-4.3321,-4.3899,-4.3899,-4.4216,-4.4722,-4.4843,-4.5059,-4.5341,-4.5649,-4.5794,-4.5868,-4.5901,-4.6143,-4.636,0.0,0.0,0.0,0.0,0.0,0.0,0.0,0.0,0.0,0.0,0.0,0.0,0.0,0.0,0.0,0.0,0.0,-0.1548,-0.1666,-0.2221,-0.2748,-0.318,-0.3572,-0.3966,-0.4331,-0.4601,-0.4767,-0.4855,-0.5228,-0.5213,-0.4885,-0.5472,-0.5604,-0.5378,-0.5784,-0.6051,-0.609,-0.605,-0.6075,-0.6109,-0.5494,-0.5154,-0.5023,-0.4339,-0.3911,0.0,-0.3185,-0.3186,-0.3412,-0.3548,-0.3918,-0.4691,-0.6427,-0.8143,-0.9923,-1.1851,-1.3028,-1.4096,-1.5748,-1.6891,-1.7741,-1.8281,-1.8752,-1.9234,-1.9882,-2.0419,-2.1077,-2.2242,-2.2962,-2.3732,-2.4811,-2.5951,-2.6963,-2.7707,-2.8486,-2.9266,-3.008,-3.0052,-3.005,-3.0398,-3.0959,-3.1492,-3.1924,-3.1804,0.0,-3.4041,-3.4557,-3.5186,-3.6214,-3.7195,-3.8029,-3.8565,-3.9653,-4.0335,-4.0396,-4.0966,-4.1278,-4.1344,-4.1871,-4.2155,-4.2256,-4.2762,-4.3252,-4.3708,-4.3832,-4.4161,-4.4572,-4.4681,-4.4897,-4.5234,-4.5502,-4.5501,-4.5388,-4.5664,-4.5768,-4.5817,0.0,0.0,0.0,0.0,0.0,0.0,0.0,0.0,0.0,0.0,0.0,0.0,0.0,0.0,0.0,0.0,0.0,0.0,-0.154,-0.1884,-0.2419,-0.3143,-0.3348,-0.3693,-0.4226,-0.4599,-0.4737,-0.4614,-0.5011,-0.497,-0.4527,-0.5095,-0.5253,-0.5113,-0.5393,-0.5532,-0.5538,-0.5348,-0.5457,-0.5676,-0.4969,-0.4757,-0.4761,-0.406,-0.3429,-0.2994,-0.3068,-0.2934,-0.2705,-0.2676,-0.3167,-0.4139,-0.6074,-0.9333,-1.2474,-1.283,-1.4298,-1.5932,-1.665,-1.7242,-1.7886,-1.8915,-1.9012,-1.9058,-2.0019,-2.0246,-2.0609,-2.1785,-2.2359,-2.2938,-2.3949,-2.5234,-2.6378,-2.7229,-2.8142,-2.9071,-3.0034,-2.9368,-2.9094,-2.9971,-2.9937,-3.0384,-3.1764,-3.2525,-3.3458,-3.4683,0.0,-3.5808,-3.6708,-3.7565,-3.8316,-3.8944,-4.0475,-4.106,-4.0505,-4.1545,-4.1915,-4.1606,-4.1915,-4.2199,-4.2469,-4.2806,-4.3129,-4.3394,-4.3764,-4.4052,-4.4313,-4.4572,-4.4897,-4.518,-4.5448,-4.5021,-4.4385,-4.5551,-4.5425,-4.4817,0.0,0.0,0.0,0.0,0.0,0.0,0.0,0.0,0.0,0.0,0.0,0.0,0.0,0.0,0.0,0.0,0.0,0.0,-0.1068,-0.1634,-0.2203,-0.2808,-0.3495,-0.4085,-0.4571,-0.4769,-0.492,-0.4965,-0.5088,-0.5049,-0.4889,-0.4935,-0.4969,-0.4959,-0.4846,-0.4879,-0.5086,-0.4954,-0.4971,-0.5035,-0.4738,-0.4361,-0.3955,-0.3523,-0.3032,-0.2582,-0.2725,-0.2776,-0.2887,-0.3521,-0.4823,-0.6428,-0.7799,-0.967,-1.1621,-1.2893,-1.4275,-1.5632,-1.6896,-1.7687,-1.8247,-1.8786,-1.8874,-1.892,-1.9371,-1.9646,-2.0011,-2.0817,-2.1518,-2.2218,-2.3002,-2.424,-2.5467,-2.6435,-2.7477,-2.8606,-2.9829,-2.9874,-3.0132,-3.0998,-3.1607,-3.2261,-3.3053,-3.4384,-3.5424,0.0,-3.5724,-3.5655,-3.5837,-3.7599,-3.8945,-3.9782,-4.0974,-4.1638,-4.1651,-4.1688,-4.1663,-4.1606,-4.1663,-4.1777,-4.1834,-4.24,-4.2806,-4.3141,-4.3666,-4.3955,-4.4052,-4.4518,-4.4626,-4.4585,-4.4843,-4.4767,-4.4651,-4.5168,-4.5369,-4.5446,0.0,0.0,0.0,0.0,0.0,0.0,0.0,0.0,0.0,0.0,0.0,0.0,0.0,0.0,0.0,0.0,0.0,0.0,0.0,-0.1144,-0.1774,-0.249,-0.319,-0.3827,-0.4387,-0.4681,-0.484,-0.4932,-0.4988,-0.4941,-0.4815,-0.4803,-0.4815,-0.4858,-0.4608,-0.4568,-0.4717,-0.4535,-0.4533,0.0,0.0,-0.3927,-0.3541,-0.3088,-0.264,-0.2267,-0.2502,-0.3007,-0.3697,-0.4995,-0.6397,-0.7845,-0.9427,-1.0918,-1.2335,-1.3454,-1.4598,-1.5715,-1.6817,-1.7642,-1.821,-1.8464,-1.8525,-1.8597,-1.868,-1.8953,-1.9414,-2.0124,-2.0783,-2.1526,-2.2441,-2.3928,-2.525,-2.6031,-2.7575,-2.9024,-3.0045,-3.0212,-3.0611,-3.1662,-3.2224,-3.2938,-3.3994,-3.5504,-3.6484,-3.6645,-3.6849,-3.7024,-3.7305,-3.8711,-3.9871,-4.0577,-4.1802,-4.2587,-4.2833,-4.2258,-4.1834,-4.1606,-4.1732,-4.1789,-4.1846,-4.23,-4.2694,-4.3042,0.0,-4.3764,-4.3955,-4.4367,-4.4518,-4.4463,-4.4626,-4.4632,-4.4556,-4.5034,-4.5289,-4.546,0.0,0.0,0.0,0.0,0.0,0.0,0.0,0.0,0.0,0.0,0.0,0.0,0.0,0.0,0.0,0.0,0.0,0.0,0.0,0.0,-0.1237,-0.2182,-0.2679,-0.3266,-0.3962,-0.4411,-0.4643,-0.466,-0.4779,-0.4757,-0.4613,-0.4646,-0.4684,-0.4738,-0.4484,-0.4411,-0.4425,-0.4117,-0.4101,-0.425,-0.376,-0.343,-0.3207,0.0,-0.2238,-0.1966,-0.2328,-0.3215,-0.4513,-0.6364,-0.7593,-0.8732,-1.0774,-1.2426,-1.3738,-1.4291,-1.5107,-1.5925,-1.6633,-1.7322,-1.7869,-1.7972,-1.8085,-1.8153,-1.7918,-1.819,-1.8722,-1.9417,-2.0009,-2.0763,-2.1989,-2.3689,-2.5169,-2.584,-2.7796,-2.9544,-3.0431,-3.0519,-3.0949,-3.2159,-3.2537,-3.3254,-3.4739,-3.6186,-3.709,-3.717,-3.8327,-3.9156,-3.9437,-4.0179,-4.0834,-4.1413,-4.2637,-4.3402,-4.3694,-4.2904,-4.227,-4.1777,-4.1972,-4.2098,-4.2041,-4.2312,-4.2581,-4.293,-4.324,0.0,-4.3729,-4.4123,-4.437,-4.4509,-4.4533,-4.4434,-4.4335,-4.4847,-4.5077,-4.5165,0.0,0.0,0.0,0.0,0.0,0.0,0.0,0.0,0.0,0.0,0.1899,0.1539,0.0,0.0,0.0,0.0,0.0,0.0,0.0,0.0,0.0,-0.1757,-0.2306,-0.298,-0.3821,-0.4135,-0.4369,-0.4532,-0.456,-0.4601,-0.4657,-0.4197,-0.4154,-0.4444,-0.4039,-0.3942,-0.4077,-0.3891,-0.3777,-0.3641,-0.3425,-0.2993,-0.2445,-0.1965,0.0,0.0,-0.1978,-0.2678,-0.3651,-0.5796,-0.7707,-0.9547,-1.1514,-1.3041,-1.4339,-1.5185,-1.5564,-1.5906,-1.668,-1.7077,-1.7267,-1.7276,-1.7504,-1.7596,-1.7106,-1.7258,-1.7628,-1.8198,-1.892,-1.9795,-2.1033,-2.2469,-2.3968,-2.5416,-2.6981,-2.8527,-3.0068,-3.1321,-3.2277,-3.2814,-3.3927,-3.4827,-3.5423,-3.6943,-3.8088,0.0,-4.0241,-4.0556,-3.8914,-4.0245,-4.135,-4.1938,-4.2428,-4.2788,-4.3143,-4.2709,-4.2564,-4.275,-4.2312,-4.1972,-4.172,-4.2029,-4.2211,-4.2268,-4.2806,0.0,-4.2907,-4.364,-4.381,-4.3627,-4.3656,-4.3894,-4.4292,-4.4177,-4.4587,-4.5142,0.0,0.0,0.0,0.0,0.0,0.0,0.0,0.2907,0.2486,0.2453,0.222,0.1888,0.1452,0.1467,0.151,0.0,0.0,0.0,0.0,0.0,0.0,0.0,-0.1824,-0.2469,-0.3266,-0.3602,-0.389,-0.4122,0.0,-0.4144,-0.4327,-0.3887,-0.3803,-0.3974,-0.3669,-0.3608,-0.3682,-0.3597,-0.3417,-0.3185,-0.3154,-0.2755,-0.2143,0.0,0.0,0.0,-0.2039,-0.2505,-0.3202,-0.5118,-0.6868,-0.8685,-1.1254,-1.2688,-1.3708,-1.4851,-1.511,-1.521,-1.6181,-1.643,-1.646,-1.6507,-1.6624,-1.6572,-1.6075,-1.6374,-1.6914,-1.73,-1.8114,-1.9201,-2.0538,-2.1953,-2.3386,-2.4811,-2.6772,-2.8509,-2.969,-3.133,-3.27,-3.3395,-3.3989,-3.4981,-3.6532,-3.717,-3.8132,-3.9671,-4.0914,-4.1235,-4.0468,-4.1344,-4.2262,-4.3155,-4.277,-4.2836,-4.3402,-4.3117,-4.2818,-4.2559,-4.2569,-4.2356,-4.2061,-4.2243,-4.2425,-4.2594,-4.2862,0.0,-4.3039,-4.3483,-4.3762,-4.3857,-4.3704,-4.4039,-4.4463,-4.4367,-4.4498,-4.4771,0.0,0.0,0.0,0.0,0.0,0.0,0.0,0.314,0.2761,0.2746,0.2635,0.2398,0.1983,0.1899,0.1895,0.0,0.0,0.0,0.0,0.0,0.0,0.0,0.0,0.0,-0.2605,0.0,0.0,-0.3716,-0.3598,0.0,0.0,0.0,0.0,0.0,-0.338,-0.3266,-0.321,-0.3171,-0.299,0.0,0.0,-0.2474,0.0,0.0,0.0,0.0,0.0,-0.2417,-0.2975,-0.4534,-0.5954,-0.755,-1.0373,-1.1922,-1.2948,-1.4065,-1.4476,-1.4719,-1.5604,-1.5901,-1.5928,-1.5777,-1.572,-1.5612,-1.5033,-1.5523,-1.619,-1.6492,-1.7357,-1.8571,-2.0158,-2.1482,-2.2785,-2.4256,-2.6517,-2.8433,-2.9391,-3.1177,-3.2815,-3.3834,-3.39,-3.4822,-3.736,-3.7169,0.0,-4.0047,-4.0819,-4.1497,-4.2154,-4.2291,-4.2762,-4.3699,-4.2898,-4.2774,-4.347,-4.3376,-4.2995,-4.228,-4.2821,-4.2918,-4.2581,-4.2513,-4.2694,-4.2974,-4.2862,0.0,0.0,-4.3232,-4.3509,-4.3968,-4.3707,-4.4045,-4.4587,-4.4353,-4.4254,-4.4428,0.0,0.0,0.0,0.0,0.0,0.0,0.0,0.3476,0.3298,0.324,0.3323,0.3298,0.3082,0.2897,0.2793,0.0,0.0,0.0,0.0,0.0,0.0,0.0,0.0,0.0,0.0,0.0,0.0,-0.3429,-0.3418,0.0,0.0,0.0,0.0,0.0,0.0,-0.2877,-0.2589,-0.2713,0.0,0.0,0.0,0.0,0.0,0.0,0.0,0.0,0.0,-0.2212,-0.2982,-0.4164,-0.5482,-0.6994,-0.8836,-1.092,-1.2826,-1.337,-1.4227,-1.5055,-1.5161,-1.5652,-1.5954,-1.505,-1.5056,-1.4997,-1.4048,-1.4512,-1.527,-1.5709,-1.642,-1.7561,-1.96,-2.0366,-2.1535,-2.4112,-2.5853,-2.749,-2.9245,-3.1231,-3.2922,-3.4054,-3.4248,-3.5117,-3.7143,-3.7117,-3.7532,-3.8805,-3.9935,-4.1254,-4.273,-4.2164,-4.1921,-4.2306,-4.1974,-4.1953,-4.2341,-4.2814,-4.2994,-4.292,-4.325,-4.324,-4.2918,-4.2638,-4.2694,-4.2974,-4.2425,0.0,0.0,-4.2606,-4.2783,-4.3092,-4.2847,-4.3371,-4.4183,-4.3148,-4.3415,-4.4269,0.0,0.0,0.0,0.0,0.0,0.0,0.4231,0.3858,0.3591,0.3651,0.3674,0.3641,0.3521,0.3503,0.3347,0.2934,0.0,0.0,0.0,0.0,0.0,0.0,0.0,0.0,0.0,0.0,-0.2517,-0.2856,-0.294,0.0,0.0,0.0,0.0,0.0,0.0,-0.2522,-0.2193,-0.2222,0.0,0.0,0.0,0.0,0.0,0.0,0.0,0.0,0.0,0.0,-0.321,-0.4034,-0.5343,-0.6846,-0.8145,-1.0045,-1.2075,-1.3356,-1.4207,-1.4825,-1.5558,-1.5657,-1.5408,-1.4853,-1.4494,-1.4173,-1.3636,-1.405,-1.4645,-1.5122,-1.6021,-1.728,-1.9097,-2.0113,-2.1456,-2.3864,-2.5513,-2.6911,-2.8228,-3.0225,-3.1833,-3.2665,-3.3032,-3.4003,-3.603,0.0,-3.6319,-3.8083,-3.9047,-4.0041,-4.1142,-4.0923,-4.108,-4.1832,-4.1156,-4.095,-4.1422,-4.1969,-4.2384,-4.2516,-4.2971,-4.3309,-4.3555,-4.3376,-4.3209,-4.2974,-4.2918,0.0,0.0,-4.2581,-4.2758,-4.2796,-4.3017,-4.3559,-4.4261,-4.3808,-4.3609,-4.3625,0.0,0.0,0.0,0.0,0.0,0.4462,0.4689,0.4284,0.4027,0.4194,0.4253,0.4205,0.4042,0.4192,0.4045,0.3374,0.287,0.0,0.0,0.0,0.0,0.0,0.0,0.0,0.0,0.0,-0.1989,-0.241,-0.2577,-0.2719,0.0,0.0,-0.2549,-0.2296,0.0,0.0,0.0,0.0,0.0,0.0,0.0,0.0,0.0,0.0,0.0,0.0,0.0,0.0,0.0,0.0,0.0,-0.708,-0.8073,-0.9745,-1.1609,-1.3119,-1.4029,-1.4761,-1.581,-1.5815,-1.5436,-1.4874,-1.4323,-1.3835,-1.3411,-1.3786,-1.4342,-1.4806,-1.5763,-1.7056,-1.8689,-1.9791,-2.1262,-2.368,-2.5272,-2.6551,-2.766,-2.9674,-3.1233,-3.1621,-3.2196,-3.3196,-3.4812,-3.4787,-3.5456,-3.7358,-3.8011,-3.859,-3.9218,-3.9182,-3.9811,-4.1258,-4.0447,-4.0186,-4.0637,-4.1337,-4.1763,-4.1939,-4.2669,-4.3287,-4.374,-4.3588,-4.3301,-4.3,-4.2823,0.0,0.0,-4.2268,-4.2464,-4.2254,-4.2785,-4.3487,-4.4152,-4.3689,-4.3307,-4.3141,0.0,0.0,0.0,0.0,0.0,0.0,0.5014,0.4762,0.4682,0.496,0.5223,0.5232,0.4838,0.5078,0.5007,0.435,0.3683,0.0,0.0,0.0,0.0,0.0,0.0,0.0,0.0,0.0,-0.1598,-0.2212,-0.2408,-0.2635,-0.2888,-0.2775,-0.2635,-0.2493,0.0,0.0,0.0,0.0,0.0,0.0,0.0,0.0,0.0,0.0,0.0,0.0,0.0,0.0,0.0,0.0,0.0,0.0,0.0,-1.0182,-1.1725,-1.2424,-1.37,-1.5057,-1.5709,-1.6234,-1.6327,-1.5196,-1.4706,-1.4236,-1.3327,-1.3657,-1.4342,-1.4806,-1.5591,-1.6738,-1.8382,-1.9219,-2.0604,-2.3599,-2.51,-2.6379,-2.7805,-3.0019,-3.1486,-3.1408,-3.2333,-3.3158,-3.3689,-3.4382,-3.5306,-3.6535,-3.6736,0.0,-3.7199,-3.6992,-3.7933,-4.0334,-3.9943,-3.9807,-4.0005,-4.0926,-4.1389,-4.131,-4.2477,-4.311,-4.3379,-4.2879,-4.277,0.0,0.0,0.0,0.0,-4.138,-4.1559,-4.1351,-4.1902,-4.284,-4.3749,-4.2293,-4.2268,-4.3023,0.0,0.0,0.0,0.0,0.0,0.0,0.0,0.5271,0.5185,0.5074,0.5257,0.528,0.4976,0.4992,0.4868,0.4468,0.3993,0.0,0.0,0.0,0.0,0.0,0.0,0.0,0.0,0.0,-0.1424,-0.179,-0.2324,-0.2684,-0.2888,-0.2521,-0.2324,-0.2296,-0.2212,-0.2001,0.0,0.0,0.0,0.0,0.0,0.0,0.0,0.0,0.0,0.0,0.0,0.0,0.0,0.0,0.0,0.0,0.0,0.0,0.0,-1.2677,-1.3984,-1.5325,-1.595,-1.6188,-1.6122,-1.5597,-1.4958,-1.4338,-1.4039,-1.4057,-1.4343,-1.5092,-1.5959,-1.7004,-1.8541,-1.9745,-2.1259,-2.3685,-2.472,-2.5978,-2.8178,-2.9553,-3.0428,-3.0739,-3.1516,-3.2227,0.0,0.0,-3.3962,-3.4654,-3.5336,0.0,-3.6894,-3.6498,-3.7215,-3.9232,-3.8816,-3.8743,-3.9191,-3.9708,-4.0228,-4.0751,-4.1315,-4.2002,-4.2837,-4.2863,-4.2924,0.0,0.0,0.0,0.0,-4.2204,-4.1932,-4.0623,-4.2153,-4.2934,-4.3257,-4.3217,-4.3261,-4.332,0.0,0.0,0.0,0.0,0.0,0.0,0.0,0.5781,0.5656,0.5468,0.5594,0.5547,0.5151,0.5166,0.5049,0.4686,0.4438,0.0,0.0,0.0,0.0,0.0,0.0,0.0,0.0,-0.0156,-0.0843,-0.1265,-0.1818,-0.2242,-0.2508,-0.2211,-0.2059,-0.2007,-0.195,-0.1835,0.0,0.0,0.0,0.0,0.0,0.0,-0.1397,0.0,0.0,0.0,0.0,0.0,0.0,0.0,0.0,0.0,0.0,0.0,0.0,0.0,-1.3921,-1.52,-1.5981,-1.6213,-1.6167,-1.5981,-1.5458,-1.4916,-1.472,-1.4734,-1.4985,-1.5643,-1.6535,-1.7532,-1.8693,-2.0204,-2.1887,-2.359,-2.4588,-2.588,-2.7881,-2.9344,-3.0675,-3.2082,-3.1845,0.0,0.0,-3.3439,-3.3662,-3.4747,-3.5365,0.0,-3.6426,-3.6338,-3.6839,-3.8165,-3.7679,-3.768,-3.8368,-3.8706,-3.9285,-4.0174,-4.0702,-4.1399,-4.2281,-4.2385,-4.2475,0.0,0.0,0.0,0.0,-4.2141,-4.1902,-4.0558,-4.2058,-4.2862,-4.3172,-4.3369,-4.339,-4.3394,0.0,0.0,0.0,0.0,0.0,0.0,0.0,0.6237,0.6083,0.6037,0.6129,0.599,0.5419,0.5559,0.5503,0.4979,0.0,0.0,0.0,0.0,0.0,0.0,0.0,0.0,0.0,0.0678,0.0025,-0.0655,-0.1056,-0.1484,-0.1863,-0.1828,-0.1755,-0.1682,-0.1715,-0.1601,0.0,0.0,0.0,0.0,0.0,0.0,0.0,0.0,0.0,0.0,0.0,0.0,0.0,0.0,0.0,0.0,0.0,0.0,0.0,0.0,0.0,0.0,0.0,-1.6206,-1.6389,-1.6342,-1.6154,-1.5817,-1.5314,-1.5643,0.0,-1.6435,-1.7318,-1.8207,-1.8818,-2.0652,-2.2369,-2.3318,-2.4723,-2.6084,-2.7324,-2.9463,-3.1899,-3.4598,-3.2963,-3.2792,-3.571,-3.4394,-3.4218,-3.6201,-3.6358,0.0,-3.6019,-3.6468,-3.6931,-3.7209,-3.675,-3.6826,-3.7593,-3.7935,-3.8632,-3.9645,-4.0498,-4.1181,-4.1724,-4.1557,-4.1621,0.0,0.0,0.0,0.0,-4.1496,-4.1629,-4.0967,-4.1849,-4.2638,-4.3275,-4.2836,-4.2971,-4.3353,0.0,0.0,0.0,0.0,0.0,0.0,0.0,0.0,0.0,0.0,0.6253,0.6114,0.5866,0.5763,0.5609,0.0,0.0,0.0,0.0,0.0,0.0,0.0,0.0,0.0,0.1619,0.0989,0.0441,-0.0076,-0.0685,-0.1151,-0.1438,-0.1126,-0.1118,-0.1387,-0.1077,-0.1115,0.0,0.0,0.0,0.0,0.0,0.0,0.0,0.0,0.0,0.0,-0.3629,-0.4286,0.0,0.0,0.0,0.0,0.0,0.0,0.0,0.0,-1.3444,-1.4517,-1.5179,0.0,-1.634,-1.6803,-1.6601,-1.6288,0.0,-1.6312,-1.6509,-1.7245,-1.7853,-1.8464,-1.9225,-2.1167,-2.281,-2.313,-2.4997,-2.7094,-2.9231,-3.0925,-3.2265,-3.3152,-3.2457,-3.2185,-3.2883,-3.3768,-3.4526,-3.5007,0.0,-3.6458,-3.6798,-3.7171,-3.7445,-3.7475,-3.7417,-3.7443,-3.7616,-3.8075,-3.8561,-3.901,-4.012,-4.079,-4.1129,-4.175,-4.2151,0.0,0.0,0.0,-4.073,-4.2206,-4.1922,-4.0782,-4.2431,-4.2961,-4.2725,-4.3088,-4.3436,-4.365,0.0,0.0,0.0,0.0,0.0,0.0,0.0,0.0,0.0,0.0,0.0,0.0,0.0,0.0,0.0,0.0,0.0,0.0,0.0,0.0,0.0,0.0,0.0,0.2743,0.2177,0.1505,0.1006,0.0645,-0.0047,-0.0444,-0.0526,-0.0557,-0.0571,-0.0625,-0.0685,-0.0907,0.0,0.0,0.0,0.0,-0.1581,0.0,0.0,0.0,0.0,0.0,-0.3549,-0.4153,0.0,-0.5306,-0.6086,-0.7096,0.0,0.0,0.0,0.0,-1.3697,-1.479,-1.5483,-1.5864,-1.6168,-1.6568,-1.6684,-1.6721,-1.649,-1.6771,-1.7302,-1.7845,-1.8484,-1.9035,-1.956,-2.1541,-2.3231,-2.3579,-2.5441,-2.7871,-3.0868,-3.2441,-3.339,-3.3742,-3.3488,-3.3348,0.0,-3.4238,-3.483,-3.5436,0.0,-3.6527,-3.6711,-3.7612,-3.7967,-3.7584,-3.8125,-3.8178,-3.78,-3.7706,-3.8264,-3.942,-3.9917,-4.055,-4.1337,-4.1815,-4.1995,0.0,0.0,0.0,-4.1138,-4.1655,-4.1519,-4.1165,-4.2099,-4.2375,-4.2357,-4.2818,-4.302,-4.3021,0.0,0.0,0.0,0.0,0.0,0.0,0.0,0.0,0.0,0.0,0.0,0.0,0.0,0.0,0.0,0.0,0.0,0.0,0.0,0.0,0.0,0.0,0.0,0.3233,0.2732,0.2061,0.159,0.1366,0.0693,0.0403,0.0471,0.0024,-0.0051,0.0154,-0.0439,-0.0848,0.0,0.0,0.0,0.0,-0.2154,0.0,0.0,0.0,0.0,0.0,0.0,0.0,0.0,-0.5332,-0.6011,-0.6857,-0.8449,0.0,0.0,0.0,0.0,0.0,-1.5857,-1.6021,-1.6099,-1.6384,-1.6867,-1.7159,-1.657,-1.7343,-1.8183,-1.8321,-1.897,-1.9599,-1.9862,-2.1958,-2.3801,-2.4267,-2.6287,-2.8863,-3.2014,-3.3534,-3.4439,-3.4647,-3.4726,0.0,-3.5518,-3.5258,-3.5526,0.0,0.0,-3.6845,-3.6677,-3.795,-3.8467,-3.7903,-3.8723,-3.8831,-3.8269,-3.7533,-3.8202,-4.0184,-4.0099,-4.0681,-4.1802,-4.1893,-4.1735,-4.1341,0.0,0.0,-4.1263,-4.0937,-4.1204,-4.1815,-4.1614,-4.1816,-4.2278,-4.2432,-4.2313,-4.2087,0.0,0.0,0.0,0.0,0.0,0.0,0.0,0.0,0.0,0.0,0.0,0.0,0.0,0.0,0.0,0.0,0.0,0.0,0.0,0.0,0.0,0.4714,0.414,0.3527,0.289,0.2415,0.2036,0.1725,0.1321,0.103,0.0829,0.0802,0.0521,0.0,-0.0489,-0.0877,-0.1202,0.0,0.0,0.0,0.0,0.0,0.0,0.0,0.0,0.0,0.0,0.0,0.0,-0.516,-0.562,-0.6248,-0.8154,0.0,0.0,0.0,0.0,0.0,-1.4717,-1.5365,-1.6465,-1.7645,-1.7952,-1.7954,-1.7978,-1.8434,-1.8789,-1.8594,-1.892,-1.9472,-2.0156,-2.3018,-2.5085,-2.4556,-2.8082,-3.1101,-3.169,-3.3126,-3.381,-3.2821,0.0,-3.4985,-3.5007,-3.6341,-3.7325,0.0,0.0,-3.8275,-3.823,-3.853,-3.8838,-3.9177,-3.8971,-3.9042,-3.9443,-3.9111,-3.9422,-4.0473,-4.1366,-4.1794,-4.1724,-4.2239,-4.219,-4.1608,0.0,-4.1298,-4.1352,-4.2022,-4.2357,-4.2461,-4.2418,-4.2576,-4.2866,-4.2654,-4.2385,-4.2024,0.0,0.0,0.0,0.0,0.0,0.0,0.0,0.0,0.0,0.0,0.0,0.0,0.0,0.0,0.0,0.0,0.0,0.0,0.0,0.0,0.0,0.4823,0.4429,0.3946,0.335,0.2793,0.2555,0.2613,0.199,0.1697,0.169,0.1252,0.0752,0.0191,-0.0226,-0.066,-0.1034,-0.1109,0.0,0.0,0.0,0.0,0.0,0.0,0.0,0.0,0.0,0.0,0.0,0.0,-0.559,-0.6468,-0.8341,0.0,0.0,0.0,0.0,0.0,-1.5175,-1.5606,-1.6338,-1.7473,-1.7722,-1.7865,-1.8341,-1.8971,-1.9617,-2.0069,-2.0446,-2.0926,-2.1847,-2.3758,-2.5722,-2.7315,-3.0946,-3.3628,-3.3895,-3.4686,-3.5155,0.0,0.0,-3.6118,-3.6006,-3.6724,0.0,0.0,0.0,0.0,-3.7998,-3.8456,-3.8639,-3.8482,-3.8694,-3.9111,-3.969,-3.9688,-4.0099,-4.1018,-4.1671,-4.2064,-4.2182,-4.2644,-4.2489,-4.193,0.0,-4.1361,-4.1744,-4.1376,-4.1699,-4.2307,-4.1682,-4.1808,-4.2171,-4.1305,-4.0985,-4.0914,0.0,0.0,0.0,0.0,0.0,0.0,0.0,0.0,0.0,0.0,0.0,0.0,0.0,0.0,0.0,0.0,0.0,0.0,0.0,0.0,0.5436,0.4867,0.4587,0.4232,0.3766,0.3173,0.2976,0.3231,0.2586,0.2292,0.2339,0.1517,0.0875,0.0373,0.0055,-0.0364,-0.0785,-0.0898,-0.1122,0.0,0.0,0.0,0.0,0.0,0.0,0.0,0.0,0.0,0.0,0.0,0.0,0.0,0.0,0.0,0.0,-1.2875,-1.4087,-1.4959,-1.5134,-1.5637,-1.6228,-1.6928,-1.7338,-1.7736,-1.8389,-1.9274,-2.0208,-2.1022,-2.1425,-2.2059,-2.341,-2.4825,-2.6887,-3.045,-3.3199,-3.5024,-3.5331,-3.5991,-3.6411,-3.6449,-3.6957,-3.7303,-3.7203,-3.7237,0.0,0.0,0.0,0.0,-3.7938,-3.8344,-3.8509,-3.8351,-3.8547,-3.9084,-3.995,-4.0172,-4.063,-4.1354,-4.1874,-4.2181,-4.2318,-4.2644,-4.2527,-4.1951,-4.1515,-4.1541,-4.19,-4.1106,-4.1312,-4.2109,-4.1246,-4.1263,-4.1615,-4.0063,-3.9759,-4.0003,0.0,0.0,0.0,0.0,0.0,0.0,0.0,0.0,0.0,0.0,0.0,0.0,0.0,0.0,0.0,0.0,0.0,0.0,0.0,0.0,0.5485,0.5007,0.4561,0.4188,0.388,0.3527,0.3246,0.3023,0.302,0.275,0.2205,0.1585,0.0978,0.04,0.0249,-0.0056,-0.0449,-0.0449,-0.0561,-0.0785,0.0,0.0,0.0,0.0,0.0,0.0,0.0,0.0,0.0,0.0,0.0,0.0,0.0,0.0,-1.0085,-1.1174,-1.2681,-1.3858,-1.33,-1.4676,-1.6333,-1.6507,-1.7326,-1.812,-1.8282,-1.9331,-2.0246,-2.02,-2.0543,-2.1609,-2.4067,-2.6551,-2.9392,-3.2885,-3.3736,-3.3938,-3.3883,0.0,-3.6436,-3.5506,-3.6734,-3.7762,-3.8007,0.0,0.0,0.0,0.0,0.0,-3.9243,-3.8621,-3.8971,-4.0509,-3.907,-3.9058,-4.0805,-4.1008,-4.1181,-4.131,-4.2398,-4.236,-4.1426,-4.1992,-4.1957,-4.1428,-4.2177,-4.2047,-4.1455,-4.2371,-4.2553,-4.216,-4.2109,-4.21,-4.1947,-3.9944,-3.9586,-4.0003,0.0,0.0,0.0,0.0,0.0,0.0,0.0,0.0,0.0,0.0,0.0,0.0,0.0,0.0,0.0,0.0,0.0,0.0,0.0,0.5712,0.5431,0.5133,0.4801,0.4561,0.4451,0.3877,0.3615,0.3687,0.3298,0.2942,0.2629,0.1796,0.1182,0.0745,0.0359,-0.0084,-0.0561,-0.0364,-0.0482,-0.0808,-0.0707,-0.0994,0.0,0.0,0.0,0.0,0.0,0.0,0.0,0.0,-0.5545,-0.6421,-0.801,-0.9189,-1.0243,-1.1589,-1.256,-1.3253,-1.334,-1.4285,-1.5453,-1.625,-1.7349,-1.8463,-1.9093,-2.0256,-2.1333,-2.1883,-2.2429,-2.3624,-2.6238,-2.9173,-3.1711,-3.3158,-3.4306,-3.5051,-3.5163,-3.6108,-3.687,-3.7017,-3.7763,-3.839,-3.8789,0.0,0.0,0.0,0.0,0.0,-3.8951,-3.8813,-3.9169,-4.0005,-3.9732,-3.9984,-4.0897,-4.1314,-4.1522,-4.1544,-4.2903,-4.2785,-4.1323,-4.2285,-4.259,-4.2344,-4.2528,-4.2515,-4.2331,-4.2255,-4.2215,-4.2173,-4.1853,-4.126,-4.0536,-3.9591,-3.9148,-3.9058,0.0,0.0,0.0,0.0,0.0,0.0,0.0,0.0,0.0,0.0,0.0,0.0,0.0,0.0,0.0,0.0,0.0,0.0,0.613,0.5814,0.5561,0.5371,0.5106,0.4958,0.4958,0.4425,0.411,0.4027,0.3332,0.2952,0.2909,0.2068,0.1516,0.1276,0.0883,0.0364,-0.0168,0.0056,-0.0114,-0.055,-0.034,-0.0597,0.0,0.0,0.0,0.0,0.0,0.0,0.0,0.0,-0.5376,-0.6378,-0.7906,-0.8999,-0.9972,-1.1427,-1.2382,-1.3134,-1.3565,-1.4769,-1.6033,-1.6547,-1.8034,-1.9428,-1.9747,-2.0996,-2.2299,-2.3022,-2.4375,-2.6138,-2.8454,-3.1033,-3.3089,-3.371,-3.4901,-3.5832,-3.6074,-3.6845,-3.7544,-3.8122,-3.8554,-3.8904,-3.9158,0.0,0.0,0.0,0.0,0.0,0.0,-3.9005,-3.9368,-4.036,-4.0253,-4.0474,-4.102,-4.1603,-4.1689,-4.1321,-4.2848,-4.2804,-4.1323,-4.2323,-4.2667,-4.2462,-4.2853,-4.2788,-4.2436,-4.2255,-4.2073,-4.1878,-4.1235,-4.0527,-3.9767,-3.9216,-3.8945,-3.8841,0.0,0.0,0.0,0.0,0.0,0.0,0.0,0.0,0.0,0.0,0.0,0.0,0.0,0.0,0.0,0.0,0.0,0.0,0.6725,0.627,0.5917,0.5701,0.5436,0.5306,0.5311,0.5171,0.4709,0.3902,0.3106,0.2797,0.2988,0.2319,0.1955,0.1916,0.1824,0.1459,0.0898,0.0898,0.0617,0.0168,0.0056,-0.0168,-0.0449,0.0,0.0,0.0,0.0,0.0,0.0,0.0,-0.5184,-0.6121,-0.7466,-0.8314,-0.9057,-1.0257,-1.1992,-1.3548,-1.3689,-1.6171,-1.8535,-1.757,-1.9367,-2.1135,-2.0079,-2.141,-2.2992,-2.3351,-2.609,-2.888,-3.0425,-3.1842,-3.3334,-3.4875,-3.5562,-3.5961,-3.61,-3.7532,-3.8541,-3.8393,-3.8925,-3.9203,0.0,0.0,0.0,0.0,0.0,0.0,0.0,-3.9104,-3.9668,-4.1985,-4.0609,-4.0261,-4.1186,-4.1967,-4.171,-4.0448,-4.2173,-4.2398,-4.1298,-4.1926,-4.1879,-4.1415,-4.3127,-4.2892,-4.1415,-4.2539,-4.2281,-4.1234,-4.0389,-4.0102,-3.995,-3.8814,-3.8945,-3.9581,0.0,0.0,0.0,0.0,0.0,0.0,0.0,0.0,0.0,0.0,0.0,0.0,0.0,0.0,0.0,0.0,0.0,0.0,0.6797,0.6285,0.5976,0.5917,0.5734,0.5734,0.5927,0.5383,0.4797,0.4188,0.352,0.3186,0.3117,0.2461,0.2261,0.245,0.1906,0.1375,0.0898,0.0898,0.0426,-0.0261,0.0113,-0.0085,-0.0608,0.0,0.0,0.0,0.0,0.0,0.0,0.0,0.0,0.0,-0.7095,-0.8403,-0.9666,-1.0562,-1.1959,-1.3403,-1.4209,-1.5751,-1.7392,-1.8278,-1.9816,-2.1202,-2.1555,-2.2618,-2.3969,-2.5564,-2.7525,-2.9398,-3.0868,-3.2048,-3.3445,-3.5355,-3.5589,-3.5884,-3.6818,-3.7705,-3.8351,-3.864,-3.9319,-3.9645,0.0,0.0,0.0,0.0,0.0,0.0,0.0,-3.917,-3.9674,-4.0587,-4.0347,-4.0335,-4.0634,-4.1269,-4.1391,-4.105,-4.1357,-4.1259,-4.0799,-4.1958,-4.2064,-4.1453,-4.2527,-4.2463,-4.1671,-4.1745,-4.1246,-4.0453,-4.0185,-3.9876,-3.9481,-3.8902,-3.8998,-3.9374,0.0,0.0,0.0,0.0,0.0,0.0,0.0,0.0,0.0,0.0,0.8574,0.0,0.0,0.0,0.0,0.0,0.0,0.0,0.0,0.6605,0.634,0.6282,0.6142,0.6114,0.62,0.5707,0.5166,0.4574,0.3737,0.3327,0.3304,0.267,0.2492,0.2693,0.2237,0.1684,0.1066,0.1066,0.0568,-0.0202,0.017,-0.0028,-0.0577,0.0,0.0,0.0,0.0,0.0,0.0,0.0,0.0,0.0,-0.7028,-0.8318,-0.9561,-1.0484,-1.238,-1.4316,-1.5057,-1.6605,-1.8262,-1.9247,-2.0412,-2.1714,-2.3402,-2.4078,-2.4917,-2.7013,-2.8618,-3.0034,-3.1503,-3.2678,0.0,-3.5378,-3.5709,-3.618,-3.7472,-3.8087,-3.8675,-3.9341,-3.9832,-3.9922,0.0,0.0,0.0,0.0,0.0,0.0,0.0,-3.8965,-3.9263,-3.9833,-3.9778,-3.9706,-3.9706,-4.037,-4.0738,-4.0766,-4.0827,-4.0943,-4.1042,-4.2025,-4.1921,-4.1081,-4.1686,-4.1931,-4.193,-4.1256,-4.0464,-3.9601,-3.9726,-3.9225,-3.8506,-3.9106,-3.9287,-3.9295,0.0,0.0,0.0,0.0,0.0,0.0,0.0,0.0,0.0,0.0,0.894,0.8795,0.0,0.0,0.0,0.0,0.0,0.0,0.0,0.0,0.6878,0.673,0.6617,0.6435,0.6249,0.6083,0.5669,0.5053,0.3869,0.3346,0.3454,0.2864,0.2643,0.2706,0.2646,0.2158,0.1318,0.1291,0.0842,0.0112,0.014,-0.0084,-0.0477,-0.0477,0.0,0.0,0.0,0.0,0.0,0.0,0.0,0.0,-0.7165,-0.8128,-0.902,-1.0308,-1.3014,-1.5616,-1.5992,-1.8032,-2.0053,-2.0219,-2.0997,-2.2445,-2.5083,-2.5473,-2.5864,-2.7969,-2.9324,-3.0591,-3.2218,-3.3341,-3.4264,-3.5046,-3.5767,-3.6677,-3.803,-3.8639,-3.9322,-4.0298,-4.0428,0.0,0.0,0.0,0.0,0.0,0.0,0.0,0.0,-3.8411,-3.851,-3.9377,-3.8859,-3.8559,-3.8507,-3.9444,-3.9902,-3.9815,-4.0487,-4.1149,-4.1711,-4.2007,-4.1594,-4.067,-4.0808,-4.1346,-4.1941,-4.0913,-3.9855,-3.8868,-3.9189,-3.8482,-3.7593,-3.9377,-3.9767,-3.9459,0.0,0.0,0.0,0.0,0.0,0.0,0.0,0.0,0.0,0.0,0.0,0.0,0.0,0.0,0.0,0.0,0.0,0.0,0.0,0.0,0.7083,0.6943,0.6865,0.6745,0.6602,0.6099,0.5685,0.5404,0.4395,0.3692,0.3266,0.2805,0.2659,0.2764,0.2344,0.1931,0.1511,0.1261,0.0505,-0.0477,-0.0224,-0.0449,-0.0954,-0.0954,-0.1217,0.0,0.0,0.0,0.0,0.0,0.0,0.0,-0.6958,-0.8253,-0.9615,-1.0991,-1.2472,-1.4006,-1.5588,-1.6944,-1.8232,-1.9465,-2.0997,-2.2565,-2.3661,-2.5177,-2.6876,-2.903,-2.9418,-2.9959,-3.2125,-3.2023,-3.2385,-3.483,-3.5289,-3.6032,-3.7919,-3.8908,-3.9648,-4.0229,-4.0631,0.0,0.0,0.0,0.0,0.0,0.0,0.0,-3.7455,-3.7337,-3.7462,-3.7935,-3.7645,-3.7315,-3.7033,-3.8592,-3.9242,0.0,-4.0236,-4.0932,-4.1103,-4.1634,-4.1866,-4.1799,-4.1178,-4.091,-4.0823,-4.0606,-3.9588,-3.8259,-3.8983,-3.8976,-3.8638,-3.9484,-3.9975,-4.0192,0.0,0.0,0.0,0.0,0.0,0.0,0.0,0.0,0.0,0.0,0.0,0.0,0.0,0.0,0.0,0.0,0.0,0.0,0.0,0.0,0.737,0.7021,0.6929,0.6723,0.6367,0.5986,0.5663,0.5366,0.4574,0.3962,0.352,0.2937,0.2593,0.2503,0.2145,0.172,0.1231,0.0834,0.0196,-0.0561,-0.0533,-0.0821,-0.1234,-0.1129,-0.1416,-0.1898,-0.245,0.0,0.0,0.0,0.0,0.0,0.0,0.0,-0.9646,-1.0898,-1.2239,-1.3605,-1.5073,-1.6308,-1.7711,-2.0153,-2.149,-2.2575,-2.4021,-2.5425,-2.684,-2.8352,-2.9192,-3.0033,-3.1295,-3.1378,-3.1962,-3.3976,-3.4649,-3.5608,-3.756,-3.8549,-3.9258,-3.9538,-3.9698,0.0,0.0,0.0,0.0,0.0,0.0,-3.646,-3.6447,-3.6573,-3.669,-3.6744,-3.6874,-3.6815,-3.666,-3.7792,-3.8644,-3.9128,-4.003,-4.065,-4.111,-4.1169,-4.1555,-4.2134,-4.1294,-4.059,-4.0119,-4.0147,-3.9131,-3.7761,-3.8973,-3.9192,-3.8871,-4.0381,-4.0645,-4.034,0.0,0.0,0.0,0.0,0.0,0.0,0.0,0.0,0.0,0.0,0.0,0.0,0.0,0.0,0.0,0.0,0.0,0.0,0.0,0.0,0.0,0.6933,0.6846,0.6575,0.604,0.5863,0.5599,0.5215,0.4644,0.4179,0.3832,0.3041,0.2497,0.2166,0.1933,0.1517,0.0915,0.0442,-0.0028,-0.0477,-0.0729,-0.1055,-0.137,-0.1247,-0.1597,-0.2249,-0.2853,-0.3409,-0.3934,-0.4812,0.0,0.0,0.0,0.0,-0.9347,-1.0484,-1.1895,-1.3279,-1.4365,-1.5932,-1.8021,-2.1102,-2.2153,-2.2862,-2.4682,-2.5833,-2.6634,-2.7112,-2.865,-2.9996,-3.0287,-3.087,-3.1667,-3.2777,-3.3722,-3.4921,-3.6667,-3.7612,-3.8229,-3.8431,0.0,0.0,0.0,0.0,0.0,0.0,0.0,-3.5453,-3.5629,-3.5859,-3.6025,-3.5976,-3.6328,-3.6573,-3.6769,-3.7351,-3.8306,-3.9669,-4.0044,-4.0601,-4.1261,-4.0858,-4.1065,-4.1796,-4.1099,-4.0217,-3.9357,-3.9474,-3.8576,-3.7291,-3.8979,-3.9206,-3.8879,-4.1114,-4.1247,-4.0383,0.0,0.0,0.0,0.0,0.0,0.0,0.0,0.0,0.0,0.0,1.0544,0.0,0.0,0.0,0.0,0.0,0.0,0.0,0.8431,0.0,0.0,0.6593,0.6498,0.6367,0.6184,0.5868,0.5566,0.5285,0.4797,0.4252,0.3633,0.2928,0.2426,0.2088,0.1488,0.1175,0.1031,0.0559,-0.0028,-0.0645,-0.0533,-0.0815,-0.1327,-0.149,-0.1871,-0.245,-0.3177,-0.3619,-0.4024,-0.4815,-0.5349,0.0,0.0,0.0,-0.8784,-1.0085,-1.0835,-1.1627,-1.3298,-1.6007,-1.8796,-2.0944,-2.2638,-2.3857,-2.3925,-2.5849,-2.7402,-2.6684,-2.7625,-2.8805,-2.9651,-2.9806,-3.0193,-3.1448,-3.2323,-3.3256,-3.4587,-3.5583,-3.6429,-3.7069,0.0,0.0,0.0,0.0,0.0,0.0,-3.4786,-3.5003,-3.5033,-3.4907,-3.5263,-3.6237,-3.5881,-3.6113,-3.7062,-3.7818,-3.8765,-3.9981,-4.0984,-4.1403,-4.1311,-4.1211,-4.0876,-4.0361,-4.0234,-3.9316,-3.7942,-3.8605,-3.8114,-3.7026,-3.8704,-3.928,-3.9293,-4.037,-4.0887,-4.1112,0.0,0.0,0.0,0.0,0.0,0.0,0.0,0.0,0.0,0.0,0.0,1.0467,0.0,0.0,0.0,0.9489,0.8909,0.8406,0.8024,0.7383,0.6891,0.6622,0.6336,0.6058,0.5814,0.5599,0.5318,0.5024,0.4622,0.4176,0.3636,0.2936,0.2332,0.1784,0.1165,0.0894,0.0895,0.0118,-0.0381,-0.0663,-0.0808,-0.1107,-0.1536,-0.1741,-0.2192,-0.2862,-0.3956,-0.4364,-0.4531,-0.5433,-0.5874,-0.6201,-0.7051,0.0,0.0,0.0,-1.045,-1.1124,-1.328,-1.5793,-1.8298,-2.0366,-2.1926,-2.3084,-2.373,-2.5208,-2.6339,-2.6039,-2.6854,-2.7948,-2.875,-2.911,-2.9607,-3.0603,-3.1517,-3.244,-3.3405,-3.4264,-3.4946,-3.5353,0.0,0.0,0.0,0.0,0.0,0.0,-3.3649,-3.384,-3.4225,-3.4638,-3.5137,-3.5621,-3.6003,-3.6481,-3.7108,-3.7699,-3.8751,-4.0171,-4.1191,-4.1547,-4.1311,-4.0971,-4.0705,-4.0558,-4.0558,-3.9686,-3.8379,-3.9031,-3.8587,-3.7706,-3.9191,-3.977,-3.9845,-4.0671,-4.0887,-4.0852,0.0,0.0,0.0,0.0,0.0,0.0,0.0,0.0,0.0,0.0,0.0,0.0,0.0,0.0,0.0,0.0,0.9031,0.8265,0.7486,0.7044,0.6695,0.646,0.6084,0.5742,0.5402,0.5326,0.514,0.4801,0.4513,0.4157,0.3713,0.3097,0.2431,0.1741,0.1074,0.0821,0.0817,-0.0121,-0.0543,-0.0612,-0.1194,-0.1604,-0.1887,-0.2343,-0.2825,-0.3393,-0.4724,-0.5134,-0.5185,-0.5987,-0.638,-0.6656,-0.7332,-0.8001,0.0,0.0,0.0,-1.1457,-1.3829,-1.5795,-1.7687,-1.9695,-2.0997,-2.2079,-2.3297,-2.4468,-2.534,-2.5572,-2.6417,-2.7249,-2.7855,-2.8449,-2.9053,-2.9791,-3.0628,-3.1413,-3.2053,-3.258,-3.3016,-3.3283,0.0,0.0,0.0,0.0,0.0,0.0,-3.2927,-3.3235,-3.3888,-3.4632,-3.5188,-3.5468,-3.6225,-3.6879,-3.7513,-3.8285,-3.9169,-4.0205,-4.124,-4.1468,-4.1076,-4.0618,-4.0431,-4.0443,-4.0264,-3.9597,-3.8743,-3.9094,-3.8852,-3.8306,-3.9506,-3.9984,-4.0087,-4.0658,-4.0752,-4.0501,0.0,0.0,0.0,0.0,0.0,0.0,0.0,0.0,0.0,0.0,0.0,0.0,1.0602,1.0244,1.0019,1.0059,0.9174,0.8119,0.7002,0.7031,0.6684,0.5789,0.5666,0.0,0.5132,0.5238,0.5133,0.4801,0.4661,0.4321,0.3782,0.3501,0.2977,0.2216,0.1364,0.1014,0.1045,0.0271,-0.0179,-0.0508,-0.1607,-0.2107,-0.232,-0.3519,-0.3939,-0.4007,-0.531,0.0,0.0,0.0,0.0,-0.7015,-0.7233,-0.7705,-0.8255,0.0,0.0,0.0,-1.4858,-1.6179,-1.7317,-1.9012,-2.0311,-2.1392,-2.2272,-2.3805,-2.5134,-2.5521,-2.6198,-2.6834,-2.7091,-2.7637,-2.8243,-2.8779,-2.93,-2.9725,-3.0,-3.0029,-3.0267,-3.0915,0.0,0.0,0.0,0.0,0.0,0.0,-3.3185,-3.3913,-3.452,-3.477,-3.543,-3.6502,-3.6412,-3.7057,-3.8611,-4.0235,-4.067,-3.9942,-4.1129,-4.1258,-4.0461,-4.0435,-4.0002,-3.9252,-3.8495,-3.8174,-3.814,-3.809,-3.8241,-3.8563,-3.9406,-3.9735,-3.9735,-3.9772,-4.0086,-4.0438,0.0,0.0,0.0,0.0,0.0,0.0,0.0,0.0,0.0,0.0,0.0,0.0,0.0,1.0477,1.0264,1.0235,0.9231,0.8249,0.7413,0.6877,0.6446,0.6091,0.574,0.5392,0.5111,0.5143,0.5041,0.4801,0.4535,0.4231,0.3866,0.3414,0.2978,0.2503,0.1409,0.1127,0.1387,-0.0096,-0.0669,-0.0676,-0.1462,-0.2346,-0.3179,-0.3439,-0.4064,0.0,0.0,0.0,0.0,0.0,0.0,-0.7777,-0.7843,-0.8439,-0.9305,-1.0106,-1.1254,-1.2614,-1.3981,-1.5304,-1.6565,-1.7499,-1.9033,-2.0536,-2.1392,-2.2852,-2.4231,-2.4909,-2.5557,-2.6192,-2.663,-2.727,-2.7857,-2.8233,-2.8839,-2.9359,-2.9588,-3.0021,-3.0437,0.0,0.0,0.0,0.0,0.0,0.0,0.0,0.0,-3.3738,-3.4731,-3.5236,-3.5823,-3.6586,-3.6909,-3.7603,-3.8697,-3.997,-4.059,-4.0474,-4.113,-4.1096,-4.0409,-4.0056,-3.9637,-3.9136,-3.7921,-3.8063,-3.9066,-3.9083,-3.9258,-3.9549,-3.9661,-3.9697,-3.9697,-3.9697,-3.9823,-3.9961,0.0,0.0,0.0,0.0,0.0,0.0,0.0,0.0,0.0,1.0813,0.0,0.0,0.0,0.0,1.0215,0.9868,0.9162,0.8403,0.7617,0.6898,0.6442,0.631,0.5736,0.5335,0.5111,0.5084,0.4954,0.4692,0.4429,0.4159,0.3882,0.3488,0.3145,0.2778,0.1493,0.1237,0.1699,0.0162,-0.055,-0.0721,-0.1779,-0.2952,-0.4095,-0.4504,0.0,0.0,0.0,0.0,0.0,0.0,0.0,0.0,-0.8742,-0.9352,-1.016,-1.1128,-1.1781,-1.2419,-1.3457,-1.4622,-1.567,-1.6261,-1.7705,-1.9264,-2.0439,-2.1717,-2.3038,-2.4193,-2.5015,-2.5691,-2.636,-2.7109,-2.7726,-2.8092,-2.8746,-2.9347,-2.9669,-3.0157,-3.0505,0.0,0.0,0.0,0.0,0.0,0.0,0.0,0.0,0.0,-3.4848,-3.5548,-3.6254,-3.6988,-3.7652,-3.826,-3.8838,-4.0007,-4.064,-4.0803,-4.1235,-4.1096,-4.0396,-3.986,-3.9351,-3.8864,-3.7818,-3.8201,-3.9459,-3.931,-3.955,-3.9981,-3.9942,-3.9852,-3.9697,-3.9788,-3.9788,-3.9697,0.0,0.0,0.0,0.0,0.0,0.0,0.0,0.0,1.0525,1.0843,0.0,0.0,0.0,0.0,0.0,0.9012,0.8959,0.8563,0.7578,0.7142,0.6736,0.6316,0.5671,0.525,0.5111,0.5047,0.4832,0.4504,0.4364,0.4162,0.3884,0.3763,0.348,0.3051,0.1594,0.1339,0.1943,0.099,0.0156,-0.0748,-0.2651,-0.3977,-0.4965,0.0,0.0,0.0,-0.8389,-0.8728,0.0,-0.8838,0.0,0.0,-0.9845,-1.0269,-1.07,-1.1706,-1.2003,-1.2268,0.0,0.0,0.0,-1.5502,-1.6388,-1.7557,-1.9401,-2.0456,-2.1626,-2.3577,-2.4555,-2.5366,-2.6328,-2.7098,-2.7783,-2.8312,-2.9046,-2.9669,-3.017,-3.0237,-3.0316,0.0,0.0,0.0,0.0,0.0,0.0,0.0,-3.3496,-3.408,-3.4861,-3.5692,-3.6671,-3.7861,-3.853,-3.8965,-3.9104,-4.0427,-4.0985,-4.0803,-4.1419,-4.1232,-4.0396,-3.986,-3.9142,-3.8346,-3.8036,-3.8388,-3.922,-3.8675,-3.8956,-3.9736,-4.0249,-4.0147,-3.9749,-3.9981,-3.9929,-3.9697,0.0,0.0,0.0,0.0,0.0,0.0,1.0745,1.0687,1.0668,0.0,0.0,0.0,1.064,1.0303,0.9884,0.9373,0.9007,0.8561,0.8036,0.7402,0.6888,0.6527,0.6101,0.5627,0.5111,0.5174,0.498,0.4504,0.4456,0.421,0.3744,0.3567,0.3371,0.3143,0.2234,0.1895,0.1856,-0.0545,-0.1762,-0.2209,-0.3671,-0.4959,0.0,0.0,0.0,0.0,0.0,-0.9466,-0.975,0.0,-1.0243,-1.0842,0.0,-1.1408,-1.1298,-1.2003,-1.2231,-1.2378,-1.3156,0.0,0.0,0.0,0.0,0.0,0.0,0.0,-2.0904,-2.2996,-2.4237,-2.5338,-2.6547,-2.7394,-2.8162,-2.9037,-2.9511,-3.0011,-3.0634,-3.1163,-3.145,0.0,0.0,0.0,0.0,0.0,0.0,0.0,-3.3766,-3.4374,-3.5158,-3.617,-3.7103,-3.7874,-3.8421,-3.8823,-3.9097,-4.0241,-4.083,-4.0803,-4.1419,-4.1232,-4.0396,-3.986,-3.906,-3.8062,-3.7531,-3.7706,-3.8365,-3.863,-3.9247,-3.9981,-3.9942,-3.9852,-3.9697,-3.9788,-3.9736,-3.9697,0.0,0.0,0.0,0.0,0.0,1.0937,1.0935,1.0886,1.0821,0.0,0.0,0.0,1.0409,1.0147,0.9842,0.9439,0.8918,0.8459,0.8106,0.7457,0.6938,0.6584,0.6199,0.5789,0.5272,0.5198,0.4958,0.4539,0.4342,0.4056,0.3697,0.3369,0.3152,0.2943,0.2039,0.16,0.1375,-0.1049,-0.2186,-0.2535,-0.3983,0.0,0.0,-0.7939,-0.8768,0.0,0.0,0.0,-1.0478,-1.0484,-1.0967,0.0,0.0,0.0,-1.177,-1.2638,-1.2654,-1.255,-1.3043,-1.3709,-1.4356,0.0,0.0,0.0,-1.7785,-1.883,-2.0023,0.0,-2.2913,-2.4133,-2.5315,-2.6416,-2.7487,-2.8571,-2.9057,-2.9825,-3.1319,-3.1793,-3.1979,0.0,0.0,0.0,0.0,-3.2706,-3.3056,-3.3488,-3.3733,-3.4313,-3.5279,-3.5838,-3.648,-3.7313,-3.769,-3.8224,-3.8852,-3.9959,-4.0717,-4.1116,-4.1603,-4.1561,-4.0897,-4.0013,-3.9177,-3.8431,-3.7621,-3.7619,-3.8188,-3.8528,-3.9171,-3.9929,-3.9993,-3.9903,-3.9697,-3.9839,-3.9788,-3.9697,0.0,0.0,1.1616,1.142,1.1426,1.1373,1.1086,1.1019,1.0943,0.0,1.0563,1.0322,1.0157,1.003,0.9794,0.9359,0.8797,0.8296,0.7919,0.7393,0.6915,0.6513,0.6132,0.5785,0.5443,0.5154,0.4849,0.4552,0.4162,0.388,0.3678,0.3249,0.2908,0.2647,0.0,0.0897,0.0757,-0.0874,-0.1813,-0.2354,-0.395,-0.5569,0.0,0.0,-0.9712,-1.0341,-1.0616,-1.0872,-1.1042,-1.0927,-1.138,0.0,0.0,0.0,0.0,0.0,-1.314,0.0,0.0,0.0,0.0,0.0,0.0,0.0,-1.7762,-1.8425,-1.9103,0.0,-2.109,-2.2304,-2.3305,-2.4745,-2.616,-2.7237,-2.7877,-2.9166,-3.1905,-3.2043,-3.2066,0.0,0.0,0.0,-3.3111,-3.3283,-3.3484,-3.367,-3.3513,-3.4023,-3.529,-3.5066,-3.5378,-3.6438,-3.6718,-3.735,-3.8394,-3.9528,-4.0483,-4.1301,-4.1718,-4.1745,-4.1423,-4.0101,-3.9364,-3.9045,-3.7971,-3.7869,-3.8421,-3.8421,-3.8931,-3.9749,-4.0198,-4.0096,-3.9749,-3.9981,-3.989,-3.9697,0.0,1.218,1.2054,1.1957,1.1866,1.1693,1.1373,1.1134,1.0905,1.0678,1.0495,1.038,1.0351,1.0049,0.9734,0.9478,0.8724,0.8167,0.7912,0.7349,0.6863,0.652,0.6259,0.5807,0.5113,0.5079,0.4779,0.4192,0.4324,0.4126,0.3626,0.335,0.3059,0.2675,0.1978,0.1323,0.0647,-0.0709,0.0,-0.3638,-0.4761,-0.5801,-0.6909,-0.9437,-1.0311,-1.0304,-1.1131,-1.148,-1.1602,-1.1969,-1.2236,-1.2601,0.0,0.0,0.0,-1.307,0.0,0.0,0.0,0.0,0.0,0.0,0.0,0.0,-1.6266,-1.7068,-1.8158,0.0,-2.0165,-2.1068,-2.2604,-2.3748,-2.4703,-2.5495,-2.6516,-2.8222,-3.1095,-3.1234,-3.1507,-3.2882,0.0,0.0,-3.3318,-3.324,-3.3313,-3.367,-3.367,-3.4096,-3.5124,-3.4817,-3.4992,-3.5704,-3.6113,-3.6603,-3.715,-3.8528,-3.9289,-3.9427,-4.0268,-4.0455,-3.9961,-3.9207,-3.8739,-3.8523,-3.7803,-3.7951,-3.8689,-3.8507,-3.8931,-3.9697,-3.98,-3.98,-3.9697,-3.9736,-3.9736,-3.976,1.2538,1.2473,1.2354,1.2383,1.2186,1.1902,1.163,1.1348,1.1019,1.0659,1.0572,1.0438,1.0137,0.9922,0.9558,0.9007,0.8116,0.7553,0.7454,0.6847,0.6389,0.6105,0.6029,0.5658,0.4905,0.4857,0.4709,0.4456,0.428,0.4082,0.384,0.3256,0.2564,0.1785,0.123,0.0221,-0.114,-0.1841,-0.2935,-0.422,-0.5136,0.0,-0.721,-0.929,-1.0084,-1.0275,-1.1149,-1.1556,-1.1731,-1.1989,-1.2156,0.0,0.0,-1.2909,-1.2501,0.0,-1.3135,-1.2654,0.0,0.0,0.0,-1.4313,0.0,0.0,0.0,-1.697,-1.7681,-1.8848,-1.919,-1.9745,-2.1247,-2.21,-2.2849,-2.3696,-2.4719,-2.6117,-2.8362,-2.9445,-3.0601,-3.2098,0.0,0.0,-3.2773,-3.2613,-3.2604,-3.2942,-3.3233,-3.3723,-3.4451,-3.4178,-3.43,-3.5038,-3.5128,-3.5588,-3.6547,-3.7638,-3.8519,-3.9096,-3.9821,-4.0015,-3.9777,-3.9346,-3.9107,-3.8964,-3.8678,-3.8718,-3.902,-3.9156,-3.9357,-3.9639,-3.9687,-3.9788,-3.989,-3.9736,-3.9697,-3.9772,1.2692,1.2644,1.2579,1.2644,1.2383,1.2077,1.1829,1.1582,1.1251,1.0761,1.0642,1.039,0.9787,0.9585,0.9208,0.8473,0.7462,0.6859,0.6916,0.6314,0.583,0.557,0.5625,0.5382,0.475,0.4618,0.4578,0.4626,0.4144,0.3939,0.4032,0.3196,0.2222,0.114,0.0425,-0.0907,-0.2679,-0.2992,0.0,-0.4737,0.0,-0.631,-0.7379,-0.8799,-0.9647,-1.0174,-1.0995,-1.1462,-1.172,-1.1688,-1.1852,-1.2218,-1.3007,-1.2864,0.0,0.0,0.0,0.0,0.0,0.0,0.0,0.0,0.0,-1.6018,0.0,0.0,0.0,-1.8288,-1.8332,-1.8564,-1.9621,0.0,0.0,0.0,0.0,0.0,0.0,-2.6996,0.0,-3.0366,0.0,0.0,-3.148,-3.14,-3.144,-3.1851,-3.2298,-3.28,-3.3395,-3.3366,-3.3657,-3.4331,-3.4139,-3.4675,-3.607,-3.6731,-3.7643,-3.8776,-3.9289,-3.9485,-3.9509,-3.952,-3.949,-3.9442,-3.9608,-3.9503,-3.9288,-3.9809,-3.9881,-3.9783,-3.9765,-3.9942,-4.0134,-3.9839,-3.9749,-3.994,1.2733,1.2785,1.2715,1.2544,1.2437,1.224,1.1866,1.1831,1.1648,1.1105,1.0637,1.0124,0.9506,0.8869,0.8483,0.8482,0.7135,0.0,0.6629,0.0,0.5536,0.509,0.5142,0.4972,0.4535,0.4402,0.4232,0.399,0.3924,0.3887,0.3815,0.341,0.2854,0.2091,0.076,-0.0532,-0.1811,0.0,-0.4204,0.0,-0.6009,-0.6194,0.0,-0.8325,-0.9427,-1.011,-1.101,-1.1477,-1.1714,0.0,-1.2132,-1.2747,0.0,-1.3323,-1.2999,-1.3418,0.0,0.0,0.0,0.0,0.0,0.0,-1.5258,0.0,0.0,0.0,-1.7496,-1.7624,0.0,0.0,0.0,0.0,0.0,0.0,0.0,0.0,-2.2936,-2.3759,-2.5046,-2.7246,-2.8047,0.0,0.0,-2.9163,-2.9718,-3.0721,-3.0686,-3.0948,-3.165,-3.2608,-3.3265,-3.353,-3.3679,-3.4215,-3.522,-3.5624,-3.6191,-3.699,-3.7475,-3.7723,-3.7805,-3.8766,-3.9036,-3.8841,-3.9601,-3.979,-3.9603,-3.9871,-4.0128,-4.0278,-4.0109,-4.0236,-4.0402,-3.9903,-3.9993,-4.0504,1.2938,1.2885,1.2785,1.2738,1.2579,1.2405,1.2287,1.2058,1.1562,1.0625,1.0485,1.0061,0.8953,0.0,0.0,0.0,0.0,0.5809,0.0,0.0,0.4723,0.4098,0.4482,0.4424,0.3815,0.3868,0.3899,0.3902,0.3774,0.3694,0.3624,0.3131,0.2199,0.0902,-0.0312,0.0,-0.4063,0.0,-0.5572,0.0,0.0,0.0,0.0,-0.856,-0.9917,-1.1038,-1.1402,-1.1674,-1.1882,0.0,-1.2043,0.0,0.0,0.0,0.0,0.0,0.0,0.0,0.0,0.0,0.0,0.0,0.0,0.0,-1.6843,0.0,-1.7363,0.0,0.0,0.0,0.0,0.0,0.0,0.0,-2.0053,0.0,0.0,0.0,-2.3622,0.0,0.0,0.0,0.0,0.0,0.0,0.0,-2.9358,-2.9692,-3.0884,-3.1675,-3.2407,-3.31,-3.3504,-3.423,-3.5277,-3.5365,-3.5835,-3.6691,-3.6875,-3.7131,-3.7531,-3.8309,-3.871,-3.8736,-3.9433,-3.9695,-3.9577,-3.9557,-3.9891,-4.0337,-4.0002,-4.0209,-4.0694,-4.0134,-4.0286,-4.0783,1.3072,1.2973,1.2873,1.2873,1.2615,1.2403,1.2338,1.2006,1.1361,1.0266,1.0215,0.0,0.8189,0.7711,0.0,0.0,0.5675,0.5079,0.0,0.0,0.406,0.0,0.0,0.0,0.0,0.3236,0.3353,0.3356,0.335,0.3306,0.3181,0.2625,0.1602,0.0164,0.0,-0.3067,-0.5164,0.0,-0.6507,-0.7754,-0.6687,-0.6733,-0.7529,-0.8621,-0.9985,-1.1334,-1.1385,-1.1669,-1.1986,-1.1937,-1.2055,0.0,-1.2415,0.0,0.0,0.0,0.0,0.0,-1.4202,0.0,0.0,0.0,0.0,0.0,0.0,0.0,0.0,0.0,0.0,0.0,0.0,0.0,0.0,0.0,0.0,-2.0133,0.0,-2.1211,0.0,0.0,0.0,0.0,0.0,0.0,0.0,-2.7814,-2.7643,-2.8126,-2.9564,-3.0553,-3.1546,-3.2472,-3.3228,-3.4092,-3.5113,-3.4955,-3.5404,-3.6401,-3.6261,-3.654,-3.7333,-3.8041,-3.8488,-3.8655,-3.9398,-3.966,-3.9625,-3.9563,-3.9813,-4.0288,-4.0124,-4.0383,-4.0833,-4.0389,-4.0632,-4.1297,1.3072,1.3077,1.3037,1.2838,1.2473,1.2079,1.1699,1.1513,0.0,0.0,0.0,0.0,0.0,0.0,0.0,0.0,0.0,0.4158,0.4429,0.0,0.3797,0.0,0.0,0.3254,0.0,0.0,0.2484,0.1965,0.2486,0.2634,0.2438,0.196,0.1383,0.0675,-0.1431,-0.2797,-0.3603,-0.5489,-0.6415,-0.6659,-0.6658,-0.7178,-0.7935,0.0,-0.9242,-1.0371,-1.0554,0.0,0.0,-1.1774,-1.232,0.0,0.0,0.0,0.0,0.0,0.0,0.0,0.0,0.0,0.0,-1.6261,0.0,0.0,0.0,0.0,-1.8031,0.0,0.0,0.0,0.0,0.0,0.0,0.0,0.0,0.0,0.0,0.0,0.0,0.0,0.0,0.0,0.0,0.0,-2.3859,-2.5108,-2.5228,-2.5765,-2.7057,-2.9159,-3.071,-3.1518,-3.2744,-3.3725,-3.4439,-3.3992,-3.4431,-3.5727,-3.5251,-3.5656,-3.6781,-3.7887,-3.8394,-3.848,-3.9528,-3.9838,-3.9651,-4.0174,-4.0213,-4.0044,-4.065,-4.087,-4.0883,-4.0605,-4.122,-4.2098,1.207,1.2431,1.268,1.2544,1.2246,1.1838,0.0,1.1116,0.0,0.0,0.0,0.0,0.0,0.5722,0.5444,0.0,0.0,0.4239,0.4024,0.383,0.0,0.0,0.0,0.2327,0.0,0.0,0.0,0.0,0.2061,0.2036,0.1407,0.1656,0.1169,0.0029,0.0,-0.2316,0.0,0.0,0.0,0.0,0.0,-0.6992,-0.7737,0.0,0.0,-1.0449,-1.1117,-1.1516,0.0,-1.222,-1.2553,-1.2839,-1.2839,-1.3613,-1.4416,-1.3933,-1.4448,0.0,0.0,0.0,-1.5471,-1.6725,0.0,0.0,0.0,0.0,0.0,0.0,0.0,0.0,0.0,0.0,0.0,0.0,0.0,0.0,0.0,0.0,0.0,0.0,0.0,0.0,0.0,0.0,0.0,-2.4911,-2.4506,-2.4682,-2.5875,-2.7559,-2.9126,-3.0385,-3.1752,-3.3176,-3.4592,-3.4008,-3.4375,-3.5683,-3.5073,-3.5382,-3.6499,-3.7019,-3.7497,-3.7849,-3.8383,-3.9,-3.9586,-3.9246,-3.9784,-4.0848,-4.0504,-4.0709,-4.1161,-4.0846,-4.1504,-4.241,1.1329,1.1851,1.23,1.233,0.0,0.0,0.0,0.0,0.0,0.0,0.7916,0.0,0.5467,0.0,0.482,0.0,0.4236,0.3811,0.3542,0.3411,0.0,0.1198,0.1811,0.0,0.0,0.0,0.0,0.0,0.0,0.1126,0.0425,0.0897,0.0595,-0.039,0.0,-0.1735,-0.2954,-0.3059,-0.399,0.0,0.0,-0.7038,0.0,0.0,-0.9762,-1.0454,0.0,-1.1602,-1.1882,-1.2432,-1.2769,-1.2979,-1.3077,-1.3969,-1.4964,-1.4583,-1.5262,-1.601,-1.5827,-1.5692,0.0,-1.7066,-1.6892,0.0,-1.7555,0.0,0.0,0.0,0.0,0.0,0.0,0.0,0.0,0.0,0.0,0.0,0.0,-1.8992,0.0,0.0,0.0,0.0,0.0,-2.2735,-2.3348,-2.4243,-2.3816,-2.3934,0.0,0.0,-2.795,-2.96,-3.1143,-3.279,-3.4468,-3.4003,-3.4408,-3.5683,-3.514,-3.5399,-3.6405,-3.6628,-3.6956,-3.7366,-3.7957,-3.8723,-3.9586,-3.9259,-3.9914,-4.1121,-4.0694,-4.0785,-4.1147,-4.1047,-4.1518,-4.2123,1.0932,1.1433,0.0,0.0,1.1206,0.0,0.0,0.0,0.7916,0.0,0.6406,0.5854,0.4769,0.4374,0.4125,0.3993,0.3352,0.2973,0.304,0.31,0.0,0.0,0.1854,0.1427,-0.0168,0.0,0.0,0.0,0.0,0.0,-0.0507,-0.0214,-0.0254,-0.0525,-0.0294,0.0,-0.277,-0.309,-0.4157,-0.5714,-0.665,-0.729,-0.7808,-0.9128,-0.9937,-1.0424,-1.0885,-1.1456,-1.2037,-1.2338,-1.29,-1.3504,-1.3815,-1.4608,-1.5474,-1.5774,-1.6442,-1.6968,-1.6558,-1.6566,-1.6861,-1.7294,0.0,0.0,0.0,0.0,-1.7453,0.0,0.0,0.0,0.0,0.0,0.0,0.0,0.0,0.0,0.0,0.0,0.0,0.0,0.0,0.0,0.0,-2.2628,-2.3133,-2.3108,-2.3163,-2.3461,0.0,0.0,-2.7225,-2.9024,-3.0803,-3.2479,-3.4027,-3.3924,-3.4451,-3.5657,-3.5332,-3.5584,-3.6405,-3.6581,-3.6875,-3.7185,-3.8215,-3.9037,-3.969,-4.0174,-4.0588,-4.0946,-4.1211,-4.1161,-4.0896,-4.1187,-4.1273,-4.1293,1.0922,1.1222,1.1449,0.0,1.0526,0.9807,0.0,0.0,0.0,0.0,0.6935,0.637,0.426,0.4144,0.4015,0.3577,0.3741,0.0,0.0,0.0,0.0,0.1698,0.1822,0.1231,-0.0168,0.019,0.0,-0.0879,0.0,0.0,-0.0775,-0.017,-0.0233,-0.0839,0.0,-0.0777,-0.1981,-0.2191,-0.3303,-0.5113,-0.6676,-0.7671,0.0,0.0,-1.0509,-1.1106,-1.1562,-1.1781,-1.1926,-1.2891,-1.3573,-1.4026,-1.4104,-1.4888,-1.5723,-1.5416,-1.6016,-1.6771,-1.6648,-1.7009,-1.7482,-1.773,-1.7556,-1.7592,0.0,0.0,0.0,0.0,0.0,0.0,0.0,0.0,0.0,0.0,0.0,0.0,0.0,0.0,0.0,-2.0653,0.0,0.0,-2.1534,-2.3012,-2.3735,-2.3133,-2.3866,-2.3923,-2.2927,0.0,0.0,-2.7385,-2.8898,-3.0826,-3.3264,-3.3046,-3.3688,-3.5236,-3.4977,-3.5269,-3.6098,-3.6546,-3.7104,-3.7796,-3.7994,-3.8906,-4.0187,-3.9926,-4.036,-4.1211,-4.1261,-4.101,-4.0657,-4.1145,-4.1281,-4.1243,1.0589,1.0975,0.0,1.084,0.0,0.0,0.9021,0.8198,0.0,0.5962,0.6117,0.0,0.3699,0.3586,0.3572,0.3413,0.3352,0.0,0.3597,0.0,0.0,0.1639,0.1678,0.1021,-0.0439,-0.0223,0.0,-0.1253,0.0,0.0,-0.0982,-0.0343,-0.0291,-0.071,0.0,-0.0067,-0.1239,-0.2375,-0.3711,-0.5231,-0.7186,-0.8274,0.0,-1.0197,-1.1122,-1.1677,-1.212,-1.2197,-1.2123,-1.3009,-1.3633,-1.4047,-1.4309,-1.5026,-1.5791,-1.5755,-1.6353,-1.7025,-1.7025,-1.7343,-1.775,-1.7895,-1.7941,-1.8115,-1.8606,-1.8372,-1.805,0.0,0.0,0.0,0.0,0.0,0.0,0.0,0.0,0.0,0.0,0.0,0.0,0.0,-2.1996,0.0,-2.1753,-2.3272,-2.3966,-2.315,-2.3626,-2.3656,0.0,0.0,0.0,-2.7173,-2.8587,-3.0612,-3.3238,-3.3775,-3.4543,-3.5652,-3.5731,-3.5999,-3.6465,-3.6888,-3.7476,-3.8157,-3.8117,-3.8994,-4.0347,-3.9852,-4.0205,-4.1161,-4.1161,-4.0846,-4.0491,-4.058,-4.0732,-4.0851,1.0003,0.0,0.0,0.0,0.0,0.0,0.0,0.6781,0.0,0.4839,0.0,0.4441,0.3217,0.3044,0.3102,0.3274,0.0,0.2738,0.3544,0.3019,0.2334,0.1504,0.1575,0.0901,-0.0682,-0.0704,-0.1008,0.0,0.0,0.0,-0.1101,-0.0646,-0.0456,-0.0411,0.0,0.0,0.0,-0.3104,-0.4584,-0.5601,-0.7768,-0.8717,-0.9021,-1.0674,-1.1613,-1.2089,-1.2593,-1.2607,-1.2497,-1.301,-1.3449,-1.3841,-1.4452,-1.5126,-1.5738,-1.6322,-1.6865,-1.7286,-1.7367,-1.7546,-1.7781,-1.8031,-1.8273,-1.8545,-1.8993,-1.8904,-1.8803,-1.8912,-1.8551,-1.8391,0.0,0.0,0.0,0.0,0.0,0.0,0.0,0.0,0.0,0.0,0.0,0.0,0.0,0.0,-2.4187,-2.3281,-2.3223,0.0,0.0,0.0,0.0,-2.7581,-2.8913,-3.0829,-3.3445,0.0,-3.5844,-3.6379,-3.6865,-3.7091,-3.7155,-3.74,-3.7855,-3.8497,-3.8355,-3.906,-4.0311,-3.9816,-4.0114,-4.0883,-4.0833,-4.0643,-4.0351,-3.9788,-3.9848,-4.0306,0.9205,0.0,0.0,0.0,0.0,0.6147,0.6907,0.6796,0.6107,0.4658,0.5052,0.4813,0.3131,0.335,0.338,0.2717,0.3074,0.0,0.0,0.0,0.0,0.2342,0.2044,0.1231,-0.0288,-0.0464,-0.0822,0.0,0.0,0.0,-0.1168,0.0,-0.0703,-0.0794,0.0,0.0,-0.1522,-0.3286,0.0,-0.5018,-0.7288,-0.8349,-0.8759,-1.0582,-1.163,-1.2175,-1.2786,-1.2768,-1.2521,-1.3399,-1.3778,-1.401,-1.4701,-1.5147,-1.5404,-1.5648,-1.6139,-1.6744,-1.7048,-1.7546,-1.8031,-1.8451,-1.8834,-1.9183,-1.9439,-1.935,-1.9201,-1.9234,-1.9088,-1.8912,-1.8635,0.0,0.0,0.0,0.0,0.0,0.0,0.0,0.0,0.0,0.0,-2.5281,0.0,0.0,0.0,0.0,0.0,0.0,0.0,0.0,0.0,0.0,-2.7499,0.0,0.0,0.0,-3.492,-3.6238,-3.677,-3.7176,-3.7413,-3.7459,-3.8075,-3.8994,-3.8062,-3.8601,-4.0102,-3.928,-3.9754,-4.0833,-4.0427,-4.0083,-3.9788,-3.9154,-3.9274,-3.9732,0.8342,0.0,0.0,0.0,0.0,0.0,0.0,0.5097,0.0,0.4008,0.4335,0.4075,0.269,0.2697,0.2741,0.2512,0.2722,0.3043,0.3461,0.3327,0.291,0.2178,0.1825,0.0,-0.0329,-0.0537,-0.0964,-0.1547,0.0,0.0,0.0,0.0,0.0,-0.115,0.0,-0.0954,0.0,0.0,0.0,-0.4944,-0.709,-0.8254,-0.8903,-1.0636,-1.1603,-1.2106,-1.2677,-1.2679,-1.2533,-1.3361,-1.3724,-1.3924,-1.4286,-1.4696,-1.5106,-1.5243,-1.5791,-1.6392,-1.6941,-1.7619,-1.8273,-1.8732,-1.924,-1.9627,-1.9745,-1.9597,-1.9478,-1.9478,-1.9551,-1.9629,-1.9688,-2.0191,0.0,0.0,0.0,0.0,0.0,0.0,0.0,0.0,0.0,0.0,0.0,0.0,0.0,0.0,0.0,0.0,0.0,0.0,0.0,0.0,0.0,0.0,0.0,0.0,0.0,-3.6272,-3.7338,-3.7826,-3.7861,-3.7861,-3.8272,-3.8899,-3.7761,-3.82,-3.9602,-3.9013,-3.9372,-4.0236,-3.9826,-3.9517,-3.9218,-3.8893,-3.9167,-3.9609,0.0,0.7434,0.0,0.0,0.5695,0.0,0.4157,0.3128,0.258,0.3182,0.3338,0.3051,0.2175,0.1973,0.2014,0.2316,0.2266,0.251,0.31,0.2772,0.2359,0.1979,0.1531,0.0803,-0.0233,-0.0638,-0.1138,0.0,0.0,0.0,0.0,0.0,0.0,0.0,0.0,0.0,0.0,0.0,-0.3377,-0.4733,-0.664,-0.7966,-0.8999,-1.0534,-1.1492,-1.2022,-1.2536,-1.2533,-1.2426,-1.3027,-1.3328,-1.3467,-1.3617,-1.4046,-1.4579,-1.494,-1.5504,-1.6149,-1.6875,-1.761,-1.8336,-1.8962,-1.9429,-1.9824,-1.9942,-1.9794,-1.9625,-1.9708,-2.0003,-2.0424,-2.0968,-2.1669,0.0,0.0,0.0,0.0,0.0,0.0,0.0,0.0,0.0,0.0,-2.4818,0.0,0.0,0.0,0.0,0.0,0.0,0.0,0.0,0.0,0.0,-2.896,-3.1902,0.0,-3.5626,-3.6215,-3.7763,-3.8408,-3.82,-3.82,-3.8392,-3.8731,-3.7586,-3.7762,-3.8753,-3.8605,-3.8915,-3.9465,-3.9154,-3.8893,-3.8736,-3.8631,-3.9006,-3.9486,0.0,0.0,0.0,0.0,0.0,0.0,0.2639,0.175,0.1345,0.2368,0.2406,0.22,0.1793,0.1839,0.1862,0.1793,0.216,0.2376,0.2317,0.2549,0.262,0.2449,0.1694,0.106,0.0517,-0.0482,-0.1203,0.0,0.0,0.0,0.0,0.0,0.0,0.0,0.0,0.0,0.0,-0.189,-0.2874,-0.4024,-0.5441,-0.6995,-0.8692,-1.0124,-1.1093,-1.1832,-1.2524,-1.245,-1.2069,-1.241,-1.2367,-1.231,-1.3038,-1.3239,-1.3478,-1.4585,-1.5209,-1.5776,-1.6723,-1.7367,-1.8023,-1.924,-1.9429,-1.9499,-2.0108,-1.9912,-1.9708,-2.0071,-2.0626,-2.1176,-2.1473,-2.1903,-2.1851,0.0,0.0,0.0,0.0,0.0,-2.499,-2.4083,0.0,0.0,0.0,-2.4377,0.0,0.0,-2.3717,0.0,0.0,0.0,0.0,-2.6537,0.0,-2.9352,-3.1973,-3.4041,-3.5337,-3.5978,-3.7515,-3.82,-3.82,-3.82,-3.8543,-3.8991,-3.7692,-3.7225,-3.7418,-3.7604,-3.8182,-3.8856,-3.8344,-3.825,-3.8409,-3.8145,-3.8563,-3.9209,0.0,0.0,0.0,0.0,0.0,0.0,0.0,0.1013,0.0686,0.1883,0.1643,0.1384,0.1465,0.1358,0.1558,0.2179,0.2219,0.2455,0.3007,0.2742,0.2531,0.238,0.1727,0.096,0.0126,-0.0552,-0.1242,0.0,0.0,0.0,0.0,0.0,0.0,0.0,0.0,-0.1893,-0.1737,-0.251,-0.3306,-0.4151,-0.5651,-0.6953,-0.8204,-0.95,-1.0445,-1.111,-1.1573,-1.1658,-1.1563,-1.1568,-1.1775,-1.2083,-1.2562,-1.2997,-1.3489,-1.4215,-1.493,-1.568,-1.6573,-1.7416,-1.8296,-1.9183,-1.9429,-1.9587,-1.9981,-1.9833,-1.9757,-2.032,-2.1396,-2.2366,-2.2834,-2.2935,-2.2935,0.0,0.0,0.0,0.0,0.0,0.0,0.0,0.0,-2.5679,0.0,-2.4235,-2.4155,-2.3372,0.0,0.0,0.0,0.0,0.0,-2.5778,0.0,-2.9151,-3.1633,-3.3576,-3.4866,-3.5486,-3.6836,-3.7415,-3.7306,-3.7306,-3.7377,-3.7454,-3.7061,-3.6922,-3.6965,-3.7233,-3.7766,-3.8279,-3.7892,-3.785,-3.7957,-3.7986,-3.8509,-3.9153,0.0947,0.0,0.1965,0.0,0.072,0.0824,0.1293,0.0369,0.0,0.106,0.0795,0.0673,0.1093,0.0989,0.1345,0.2546,0.2443,0.268,0.3531,0.3019,0.2603,0.2434,0.1704,0.0,0.0304,-0.0444,-0.1184,-0.1905,-0.2645,0.0,0.0,0.0,0.0,0.0,-0.2372,-0.2385,-0.2362,-0.2955,-0.3612,-0.4404,-0.5696,-0.6829,-0.79,-0.8971,-0.9776,-1.0367,-1.0771,-1.0845,-1.0801,-1.085,-1.1095,-1.1457,-1.201,-1.2623,-1.3239,-1.3896,-1.4849,-1.58,-1.6562,-1.7613,-1.8605,-1.91,-1.935,-1.9597,-1.9824,-1.9809,-1.9894,-2.0702,-2.2048,-2.315,-2.3491,-2.3631,-2.3637,-2.3454,0.0,0.0,0.0,0.0,0.0,0.0,-2.5036,-2.5108,-2.3846,-2.3979,-2.3858,0.0,0.0,0.0,0.0,0.0,0.0,0.0,0.0,0.0,0.0,-3.3412,-3.4649,-3.5262,-3.6436,-3.6962,-3.6806,-3.6806,-3.6747,-3.6634,-3.6713,-3.6761,-3.6789,-3.6996,-3.728,-3.7613,-3.7477,-3.7423,-3.7393,-3.8018,-3.8586,-3.9066,0.02,0.0423,0.0407,-0.0023,-0.0244,-0.0102,0.0685,-0.0274,-0.0869,-0.0252,-0.0196,0.0055,0.0721,0.0798,0.1329,0.2678,0.2784,0.3011,0.3564,0.3294,0.2965,0.0,0.0,0.1208,0.1469,-0.0088,-0.1003,-0.1223,0.0,0.0,-0.2721,0.0,-0.2942,-0.27,-0.2843,-0.2769,-0.261,-0.2874,-0.3587,-0.4573,-0.5246,-0.6452,-0.7867,-0.862,-0.9201,-0.9717,-1.042,-1.0173,-0.9624,-1.0353,-1.0268,-1.0054,-1.1303,-1.1889,-1.2391,-1.3698,-1.5001,-1.6121,-1.6826,-1.7928,-1.8924,-1.8981,-1.9152,-1.942,-1.9824,-1.9913,-2.019,-2.1285,-2.2572,-2.3365,-2.2991,-2.3612,-2.3614,-2.183,0.0,0.0,0.0,0.0,0.0,0.0,-2.4368,-2.4646,-2.2981,-2.325,0.0,0.0,0.0,0.0,0.0,0.0,0.0,-2.6921,-2.8536,0.0,-3.1994,-3.3654,-3.4778,-3.5315,-3.6499,-3.7095,-3.7095,-3.7095,-3.7121,-3.715,-3.6836,-3.6675,-3.6706,-3.6694,-3.67,-3.6754,-3.7024,-3.6916,-3.6878,-3.8275,-3.8745,-3.881,-0.1117,-0.1028,-0.1156,-0.1886,-0.179,-0.1271,-0.0237,-0.0739,-0.0841,0.028,-0.0224,-0.0391,0.0304,0.0459,0.1063,0.0,0.2234,0.2402,0.0,0.2683,0.2266,0.2099,0.1592,0.105,0.0484,-0.0152,-0.0775,-0.1335,0.0,0.0,0.0,-0.3411,-0.3285,-0.2984,-0.2956,-0.2871,-0.272,-0.3341,-0.3844,-0.4321,-0.5246,-0.6242,-0.7194,-0.7727,-0.8424,-0.9152,-0.9562,-0.9808,-1.0012,-1.0425,-1.0334,-1.0287,-1.1534,-1.2073,-1.248,-1.3374,-1.463,-1.5899,-1.6493,-1.7285,-1.8104,-1.878,-1.8991,-1.9267,-2.0113,-2.0657,-2.1203,-2.2013,-2.2744,-2.328,-2.3487,-2.3491,-2.3456,-2.3526,-2.3539,0.0,0.0,0.0,0.0,0.0,-2.4006,-2.4126,0.0,-2.3196,0.0,0.0,0.0,0.0,0.0,0.0,0.0,0.0,-2.8983,0.0,-3.2593,-3.3953,-3.4918,-3.5461,-3.5814,-3.5945,-3.583,-3.6018,-3.6193,-3.6395,-3.6271,-3.6351,-3.6532,-3.6825,-3.697,-3.7024,-3.7316,-3.7583,-3.7925,-3.8593,-3.9148,-3.9587,-0.1725,-0.1315,-0.1183,-0.2095,-0.1927,-0.1324,-0.0376,-0.0855,-0.0953,0.0056,-0.0252,-0.0477,-0.0252,0.011,0.0,0.2275,0.2089,0.2216,0.2982,0.2376,0.1931,0.1793,0.1373,0.0945,0.0505,0.0,0.0,-0.1109,-0.2169,-0.2946,-0.3445,-0.3445,-0.3338,-0.3146,-0.3057,-0.2985,-0.3016,-0.3445,-0.3893,-0.4404,-0.516,-0.6025,-0.684,-0.7228,-0.7889,-0.866,-0.89,-0.9287,-0.9754,-1.0203,-1.0157,-1.0194,-1.1374,-1.192,-1.2335,-1.3291,-1.4608,-1.5858,-1.6287,-1.7153,-1.8042,-1.8583,-1.8886,-1.9368,-2.0404,-2.1114,-2.1687,-2.204,-2.2626,-2.3139,-2.3199,-2.3081,-2.3188,-2.386,-2.3408,-2.3218,-2.3938,0.0,0.0,0.0,0.0,0.0,0.0,-2.3614,-2.3444,0.0,0.0,0.0,0.0,0.0,0.0,-2.6936,-2.9364,0.0,-3.2983,-3.3942,-3.4782,-3.5528,-3.5528,-3.5494,-3.5377,-3.5622,-3.5966,-3.6304,-3.6279,-3.6453,-3.6697,-3.6841,-3.6862,-3.6862,-3.7251,-3.7689,-3.8174,-3.8814,-3.9491,-4.0019,-0.1703,-0.0717,0.0,0.0,-0.0954,0.0,0.0,-0.0671,-0.1122,-0.0785,-0.0308,-0.0224,-0.0813,-0.0224,0.0756,0.2148,0.0,0.0,0.0,0.2263,0.1877,0.1741,0.1094,0.0898,0.1234,0.031,-0.032,-0.065,-0.1995,-0.282,-0.3159,-0.3192,-0.3192,-0.3159,-0.3064,-0.3192,-0.3417,-0.332,-0.3821,-0.4691,-0.4988,-0.5803,-0.6823,-0.7007,-0.7536,-0.8245,-0.852,-0.8748,-0.906,-0.9756,-0.9853,-0.9895,-1.1078,-1.1565,-1.2021,-1.3356,-1.4735,-1.5859,-1.6199,-1.7376,-1.8491,-1.8406,-1.8938,-1.9695,-2.0594,-2.1302,-2.1701,-2.1475,-2.2297,-2.2853,-2.2294,-2.25,-2.2838,-2.3101,-2.2925,-2.2921,-2.3287,0.0,0.0,0.0,0.0,0.0,0.0,-2.4378,-2.3947,0.0,0.0,0.0,0.0,0.0,-2.6199,-2.8059,-2.9779,-3.142,-3.3032,-3.3579,-3.4433,-3.5512,-3.5512,-3.5512,-3.5537,-3.5831,-3.6255,-3.6751,-3.6793,-3.6885,-3.7078,-3.6808,-3.6592,-3.6386,-3.6951,-3.7333,-3.7804,-3.9121,-3.9826,-4.0126,0.0,0.0,-0.124,-0.1729,-0.1401,-0.1094,-0.1103,-0.0827,-0.0701,-0.0982,-0.0505,-0.0252,-0.0505,-0.0084,0.0392,0.084,0.1064,0.1288,0.1512,0.1485,0.1318,0.0982,0.1094,0.0982,0.0617,0.0383,-0.0187,-0.112,-0.177,-0.2353,-0.282,-0.2989,-0.2956,-0.2824,-0.3162,-0.3107,-0.2878,-0.368,-0.4192,-0.4462,-0.5082,-0.5839,-0.6684,-0.6794,-0.7408,-0.8216,-0.8442,-0.8939,-0.9517,-0.9969,-1.0251,-1.057,-1.1582,-1.1985,-1.2229,-1.3321,-1.4506,-1.559,-1.6014,-1.6973,-1.792,-1.8236,-1.9226,-2.0223,-2.0632,-2.1105,-2.1514,-2.1594,-2.2022,-2.228,-2.2152,-2.2208,-2.2539,-2.3276,-2.2882,-2.2999,-2.445,-2.4788,0.0,0.0,-2.5895,-2.5728,-2.5603,-2.4866,-2.4426,0.0,0.0,0.0,0.0,-2.6933,-2.7824,-2.8168,-3.0123,-3.1615,-3.2615,-3.3315,-3.4106,-3.4981,-3.4981,-3.4981,-3.4993,-3.5475,-3.5855,-3.6231,-3.6637,-3.6779,-3.6808,-3.697,-3.6862,-3.6692,-3.7403,-3.8158,-3.8856,-3.959,-4.0296,-4.0959,-0.1789,-0.1527,-0.1476,-0.1971,-0.1597,-0.1252,-0.1305,-0.0933,-0.0701,-0.0898,-0.0393,-0.0168,-0.0589,-0.014,0.0168,0.014,0.0449,0.0701,0.0785,0.0785,0.0757,0.0701,0.0898,0.087,0.0533,0.0442,-0.0125,-0.1222,-0.1505,-0.1883,-0.2353,-0.2555,-0.2589,-0.249,-0.2802,-0.2882,-0.2807,-0.3325,-0.3887,-0.447,-0.4824,-0.5481,-0.6291,-0.6514,-0.7139,-0.79,-0.8131,-0.8747,-0.9513,-0.9916,-1.0248,-1.0649,-1.1729,-1.2156,-1.2456,-1.3572,-1.4611,-1.5501,-1.5859,-1.6885,-1.7995,-1.8731,-1.9777,-2.0645,-2.0699,-2.097,-2.1239,-2.1239,-2.1553,-2.182,-2.19,-2.1998,-2.2362,-2.3188,-2.3333,-2.378,-2.5094,-2.5805,0.0,-2.7351,-2.7089,-2.6801,-2.672,-2.6082,-2.5606,-2.5547,-2.6001,0.0,-2.6868,-2.8232,-2.8696,-2.8151,-3.008,-3.1442,-3.2158,-3.3268,-3.4042,-3.4494,-3.4494,-3.4543,-3.4652,-3.543,-3.578,-3.5884,-3.677,-3.7003,-3.67,-3.6862,-3.6754,-3.6561,-3.7111,-3.7872,-3.8678,-3.9187,-3.9879,-4.0607,-0.2079,-0.155,-0.1282,-0.1768,-0.149,-0.117,-0.1031,-0.0875,-0.0785,-0.0701,-0.0168,-0.0056,-0.0757,-0.0224,0.0056,-0.0168,0.0112,0.0336,0.0393,0.028,0.0336,0.0617,0.0673,0.0674,0.0621,0.0469,-0.0061,-0.0943,-0.1097,-0.1379,-0.1748,-0.1951,-0.2018,-0.2053,-0.2241,-0.2516,-0.2843,-0.279,-0.3474,-0.453,-0.4568,-0.5131,-0.5961,-0.637,-0.6959,-0.758,-0.7896,-0.8556,-0.9327,-0.9838,-1.0208,-1.0653,-1.1807,-1.2398,-1.2906,-1.4082,-1.4889,-1.5528,-1.5812,-1.7005,-1.8319,-1.935,-2.0201,-2.0789,-2.0724,-2.0825,-2.0897,-2.0893,-2.1131,-2.1419,-2.1733,-2.1946,-2.2337,-2.3145,-2.3907,-2.4734,-2.5678,0.0,-2.8071,-2.8605,-2.8239,-2.7933,-2.7822,-2.7331,-2.6893,-2.6634,-2.7269,-2.7855,-2.8239,-2.9198,-2.9288,-2.8305,-3.0001,-3.1226,-3.1849,-3.3254,-3.3977,-3.4026,-3.3977,-3.4148,-3.4489,-3.5449,-3.577,-3.5704,-3.7009,-3.7209,-3.6646,-3.67,-3.6538,-3.6343,-3.6711,-3.7309,-3.804,-3.8639,-3.9302,-3.9967,-0.0943,-0.1043,-0.1131,-0.0729,-0.0771,-0.079,-0.0536,-0.0404,-0.0393,-0.0673,-0.0168,0.0028,-0.0421,-0.0168,-0.0028,-0.0196,-0.014,0.0028,0.0364,0.028,0.0224,0.028,0.0561,0.0568,0.0292,0.0248,0.0097,-0.0167,-0.047,-0.0739,-0.0975,-0.1176,-0.1277,-0.128,-0.1695,-0.2027,-0.2304,-0.3239,-0.3824,-0.4235,-0.5161,-0.5716,-0.6134,-0.6773,-0.7363,-0.7896,-0.8332,-0.8684,-0.9135,-1.0154,-1.081,-1.1461,-1.2637,-1.3456,-1.4142,-1.48,-1.5323,-1.575,-1.6331,-1.7286,-1.8357,-1.9371,-1.9708,-1.9983,-2.0656,-2.0615,-2.0654,-2.1482,-2.132,-2.132,-2.2071,-2.2141,-2.252,-2.3757,-2.4196,-2.5049,-2.6933,0.0,-2.7964,-2.8844,-2.8231,-2.7903,-2.8251,-2.751,-2.7301,-2.8018,-2.8601,-2.8912,-2.8934,-3.0105,-3.0386,-2.9531,-3.0465,-3.1329,-3.2064,-3.2961,-3.353,-3.3779,-3.353,-3.39,-3.476,-3.5156,-3.5503,-3.5905,-3.6766,-3.6862,-3.6375,-3.6592,-3.6538,-3.6412,-3.7275,-3.7891,-3.8369,-3.9267,-3.9826,-4.0175,-0.1478,-0.116,-0.087,-0.0517,-0.0535,-0.0514,-0.0328,-0.0295,-0.0336,-0.0421,-0.0112,0.0028,-0.0168,-0.0084,-0.0056,-0.0196,-0.0252,-0.0196,0.0056,0.0084,0.0084,0.0084,0.0393,0.0517,0.0483,0.041,0.0327,0.0269,0.0101,-0.0101,-0.037,-0.0571,-0.0874,-0.1212,-0.1684,-0.2231,-0.2777,-0.3445,-0.4065,-0.4633,-0.5318,-0.5844,-0.6344,-0.6939,-0.7512,-0.8113,-0.86,-0.8995,-0.9402,-1.0299,-1.095,-1.1564,-1.2483,-1.3473,-1.4436,-1.5057,-1.5812,-1.6504,-1.6985,-1.7895,-1.8866,-1.9554,-2.0164,-2.067,-2.1026,-2.1094,-2.114,-2.1513,-2.1652,-2.1853,-2.2133,-2.252,-2.3108,-2.4029,-2.4735,0.0,0.0,-2.8104,-2.8742,-2.9829,-2.9195,-2.8876,-2.9319,-2.9116,-2.9026,-2.9195,-3.0181,-3.0828,-3.0951,-3.1774,-3.2168,-3.2085,-3.1746,-3.1915,-3.2506,-3.3198,-3.363,-3.3927,-3.3481,-3.3835,-3.4828,-3.5088,-3.5393,-3.5702,-3.6372,-3.6538,-3.6266,-3.6059,-3.6274,-3.6725,-3.7039,-3.7608,-3.8282,-3.8758,-3.9198,-3.9558,-0.1988,-0.1353,-0.0795,-0.0613,-0.051,-0.0383,-0.023,-0.0296,-0.0308,-0.0224,-0.0168,-0.0168,-0.0196,-0.0224,-0.0336,-0.0504,-0.0505,-0.0477,-0.0532,-0.0224,-0.0028,0.0,0.0198,0.041,0.0655,0.0606,0.0589,0.0638,0.0638,0.047,0.0101,-0.0168,-0.0638,-0.128,-0.1777,-0.2467,-0.3249,-0.3686,-0.4311,-0.5051,-0.553,-0.5969,-0.6417,-0.6975,-0.7508,-0.8059,-0.8627,-0.9108,-0.9645,-1.042,-1.1086,-1.1713,-1.2461,-1.3526,-1.4649,-1.5371,-1.6378,-1.7296,-1.7644,-1.8448,-1.9286,-1.9884,-2.0613,-2.132,-2.169,-2.1716,-2.1733,-2.1844,-2.2154,-2.2409,-2.252,-2.3076,-2.3712,-2.438,0.0,0.0,0.0,-2.8657,-2.9546,-3.0497,-2.993,-2.9669,-3.0055,-3.0373,-3.0454,-3.0239,-3.1431,-3.2366,-3.2771,-3.3095,-3.3392,-3.3732,-3.2877,-3.2615,-3.3011,-3.3499,-3.3927,-3.4162,-3.363,-3.3904,-3.4914,-3.5055,-3.5264,-3.5607,-3.5997,-3.6157,-3.6168,-3.5687,-3.6091,-3.6979,-3.6756,-3.7369,-3.8307,-3.8124,-3.8445,-3.8931,-0.1499,-0.1363,-0.1232,-0.0853,-0.0682,-0.0504,-0.0239,-0.0219,-0.0224,-0.0196,-0.0449,-0.0701,-0.0814,-0.0954,-0.1149,-0.1482,-0.1008,-0.0924,-0.1454,-0.0672,-0.014,0.0,0.0029,0.0181,0.0514,0.0677,0.0883,0.1042,0.1042,0.084,0.0437,-0.0067,-0.0605,-0.1146,-0.1809,-0.2433,-0.3069,-0.3982,-0.4608,-0.509,-0.6053,-0.6361,-0.6286,-0.694,-0.7272,-0.7472,-0.8269,-0.8831,-0.94,-1.0596,-1.1444,-1.2237,-1.3179,-1.4237,-1.5199,-1.592,-1.6928,-1.7885,-1.8176,-1.858,-1.9132,-2.0114,-2.0553,-2.1094,-2.2482,-2.2245,-2.2025,-2.3123,-2.2841,-2.2722,-2.3696,-2.3796,-2.4144,-2.5238,0.0,0.0,-2.7864,-2.9004,-2.9785,-2.9943,-2.9703,-2.9579,-2.9827,-3.0075,-3.0487,-3.1128,-3.1974,-3.2808,-3.3579,-3.3358,-3.312,-3.291,-3.3292,-3.3421,-3.3253,-3.3793,-3.4162,-3.4384,-3.3915,-3.4202,-3.5155,-3.4941,-3.5165,-3.5795,-3.584,-3.5852,-3.5852,-3.5797,-3.6257,-3.6979,-3.6979,-3.7643,-3.8527,-3.8202,-3.8428,-3.8814,-0.1854,-0.155,-0.1238,-0.0761,-0.0735,-0.0692,-0.0373,-0.0439,-0.0533,-0.0617,-0.0757,-0.0898,-0.1122,-0.1316,-0.1455,-0.1593,-0.1455,-0.1455,-0.1593,-0.098,-0.0453,-0.0029,0.0,0.0217,0.0677,0.0952,0.1332,0.1783,0.1648,0.1379,0.0975,0.0235,-0.0543,-0.1383,-0.2149,-0.2901,-0.3661,-0.4591,-0.5046,-0.5285,-0.6195,-0.6368,-0.6135,-0.6656,-0.6984,-0.7294,-0.8201,-0.8726,-0.923,-1.0519,-1.146,-1.2232,-1.3104,-1.4139,-1.5362,-1.672,-1.7748,-1.8581,-1.9014,-1.9268,-1.9643,-2.068,-2.1464,-2.2233,-2.3372,-2.361,-2.3722,-2.4045,-2.4137,-2.4072,-2.3915,-2.3935,-2.4346,-2.5385,0.0,-2.6415,-2.8039,-2.8651,-2.9285,-3.0215,-3.008,-3.0135,-3.0667,-3.0965,-3.1303,-3.1758,-3.2829,-3.3787,-3.4592,-3.4507,-3.3991,-3.309,-3.3439,-3.3574,-3.3317,-3.3674,-3.3878,-3.3965,-3.363,-3.4074,-3.5213,-3.4901,-3.5188,-3.5797,-3.5632,-3.5643,-3.5797,-3.5423,-3.6161,-3.7506,-3.7337,-3.7954,-3.8974,-3.8444,-3.8487,-3.8741,-0.2324,-0.192,-0.1552,-0.1113,-0.1022,-0.0909,-0.0649,-0.0691,-0.0813,-0.0954,-0.1065,-0.1233,-0.1542,-0.1764,-0.193,-0.2015,-0.193,-0.1902,-0.2015,-0.1401,-0.0712,-0.0029,0.006,0.0279,0.071,0.115,0.1593,0.1991,0.1909,0.1674,0.1195,0.0301,-0.0546,-0.1403,-0.2304,-0.3137,-0.3936,-0.4843,-0.5282,-0.5479,-0.6215,-0.6179,-0.5705,-0.6034,-0.6276,-0.6583,-0.7473,-0.823,-0.8943,-1.018,-1.1246,-1.218,-1.2968,-1.4238,-1.5806,-1.739,-1.8125,-1.871,-1.9641,-1.9842,-2.0026,-2.1182,-2.2099,-2.3047,-2.4148,-2.467,-2.4906,-2.4821,-2.5058,-2.5038,-2.427,-2.4303,-2.474,-2.563,-2.572,-2.6283,-2.8118,-2.8519,-2.9104,-3.0441,-3.0487,-3.0643,-3.12,-3.1609,-3.2023,-3.2542,-3.3451,-3.4329,-3.5023,-3.467,-3.403,-3.3101,-3.3145,-3.3208,-3.3181,-3.363,-3.3828,-3.3767,-3.3681,-3.4162,-3.5069,-3.5062,-3.5272,-3.5687,-3.5577,-3.5577,-3.5654,-3.5535,-3.6365,-3.7622,-3.7565,-3.8124,-3.8942,-3.8368,-3.8342,-3.8455,-0.284,-0.2498,-0.2239,-0.2032,-0.1561,-0.1186,-0.1116,-0.0982,-0.0954,-0.1094,-0.14,-0.1762,-0.2155,-0.238,-0.2607,-0.2888,-0.2352,-0.2268,-0.286,-0.1906,-0.0911,-0.0029,0.0206,0.0364,0.0516,0.1225,0.1579,0.1514,0.1758,0.1592,0.0999,0.0099,-0.058,-0.1158,-0.2231,-0.3027,-0.3632,-0.4606,-0.5201,-0.5637,-0.6106,-0.575,-0.5018,-0.514,-0.5137,-0.5212,-0.6008,-0.7234,-0.864,-0.9574,-1.085,-1.2135,-1.2968,-1.4695,-1.6641,-1.7795,-1.7992,-1.8269,-1.9841,-2.0079,-2.0202,-2.1476,-2.2318,-2.3229,-2.4729,-2.5166,-2.528,-2.5442,-2.5488,-2.5355,-2.4886,-2.5046,-2.5434,-2.611,-2.6438,-2.7003,-2.8254,-2.8803,-2.9485,-3.0476,-3.0758,-3.1003,-3.1204,-3.1709,-3.2465,-3.3538,-3.3847,-3.4202,-3.468,-3.3502,-3.2805,-3.2782,-3.237,-3.2358,-3.288,-3.3679,-3.4064,-3.4003,-3.4268,-3.4537,-3.4819,-3.5301,-3.5472,-3.5423,-3.5687,-3.5632,-3.5456,-3.6285,-3.6895,-3.7349,-3.7679,-3.8008,-3.8313,-3.7798,-3.7744,-3.7878,-0.3306,-0.2978,-0.2597,-0.196,-0.156,-0.1337,-0.1378,-0.1022,-0.1037,-0.1765,-0.1875,-0.2099,-0.2635,-0.2968,-0.3081,-0.2916,-0.2828,-0.2601,-0.2155,-0.1597,-0.0986,-0.0313,0.0089,0.0465,0.0839,0.1481,0.186,0.1993,0.2078,0.1809,0.1195,0.0167,-0.0448,-0.0793,-0.1813,-0.231,-0.2482,-0.3665,-0.4107,-0.4109,-0.4735,-0.4666,-0.4219,-0.4127,-0.4199,-0.4515,-0.542,-0.6702,-0.8127,-0.9435,-1.101,-1.2625,-1.4185,-1.5677,-1.7047,-1.7809,-1.8259,-1.8742,-1.9679,-2.0096,-2.0588,-2.2016,-2.2751,-2.3427,-2.4572,-2.5338,-2.5728,-2.5372,-2.5658,-2.5781,-2.5174,-2.5027,-2.5227,-2.5878,-2.622,-2.6737,-2.7756,-2.8318,-2.8989,-3.0011,-3.0454,-3.0923,-3.1476,-3.1972,-3.2725,-3.3781,-3.4845,-3.5136,-3.4504,-3.4664,-3.4148,-3.2852,-3.3202,-3.3444,-3.3408,-3.3469,-3.353,-3.353,-3.3915,-3.4383,-3.4819,-3.5301,-3.558,-3.5698,-3.5742,-3.5742,-3.5732,-3.634,-3.6895,-3.7292,-3.7451,-3.7903,-3.8313,-3.7562,-3.7577,-3.7878,-0.3704,-0.3327,-0.2843,-0.2064,-0.1804,-0.1623,-0.1302,-0.1153,-0.1289,-0.1959,-0.1959,-0.2155,-0.2747,-0.3107,-0.319,-0.2916,-0.297,-0.277,-0.2184,-0.1793,-0.1316,-0.07,-0.0236,0.0277,0.0793,0.1452,0.1806,0.1855,0.1908,0.1606,0.0927,0.0268,-0.0208,-0.051,-0.1201,-0.1497,-0.1567,-0.262,-0.3051,-0.3091,-0.3754,-0.3831,-0.3603,-0.3725,-0.382,-0.4041,-0.4996,-0.6116,-0.7397,-0.9075,-1.1217,-1.3459,-1.5199,-1.6404,-1.7295,-1.8099,-1.8531,-1.8919,-1.9604,-2.0064,-2.0658,-2.2032,-2.2741,-2.3345,-2.4449,-2.5232,-2.5635,-2.5266,-2.5675,-2.5918,-2.5423,-2.5327,-2.5552,-2.6335,-2.6501,-2.6918,-2.7993,-2.8397,-2.8973,-3.0054,-3.0697,-3.1333,-3.2075,-3.267,-3.3428,-3.4382,-3.5388,-3.5615,-3.4873,-3.5015,-3.4619,-3.3479,-3.3743,-3.378,-3.3656,-3.3519,-3.3481,-3.3492,-3.4032,-3.4486,-3.4831,-3.5615,-3.5979,-3.6004,-3.6223,-3.6283,-3.6291,-3.6836,-3.7179,-3.7424,-3.7685,-3.796,-3.8156,-3.7796,-3.7874,-3.813,-0.4034,-0.3549,-0.2982,-0.2228,-0.2128,-0.186,-0.1055,-0.126,-0.1598,-0.179,-0.1818,-0.2043,-0.2635,-0.2938,-0.3049,-0.2916,-0.2916,-0.2833,-0.2719,-0.2268,-0.1734,-0.1146,-0.0694,-0.0149,0.043,0.1205,0.1489,0.1325,0.1493,0.1195,0.0454,0.0366,0.0139,-0.0145,-0.0401,-0.0561,-0.0742,-0.1446,-0.2033,-0.2503,-0.3088,-0.3285,-0.3288,-0.3843,-0.3939,-0.3826,-0.4743,-0.565,-0.6698,-0.8739,-1.1573,-1.4521,-1.5903,-1.6786,-1.7445,-1.8471,-1.8754,-1.8851,-1.9561,-1.9927,-2.0463,-2.159,-2.2208,-2.2943,-2.4287,-2.4893,-2.5128,-2.5101,-2.5522,-2.585,-2.5582,-2.576,-2.6245,-2.7108,-2.7127,-2.7396,-2.8606,-2.8817,-2.9236,-3.0382,-3.1182,-3.1894,-3.2635,-3.3546,-3.4407,-3.5201,-3.5705,-3.5856,-3.5588,-3.4965,-3.4548,-3.4456,-3.403,-3.3812,-3.3817,-3.3729,-3.3703,-3.3761,-3.444,-3.4819,-3.4952,-3.611,-3.6561,-3.6444,-3.6874,-3.708,-3.7138,-3.7575,-3.7667,-3.7652,-3.8123,-3.8145,-3.7938,-3.8205,-3.8347,-3.838,-0.4276,-0.3748,-0.309,-0.2238,-0.1853,-0.1543,-0.1249,-0.1025,-0.1149,-0.1875,-0.1959,-0.2155,-0.2635,-0.2938,-0.3077,-0.3049,-0.297,-0.2833,-0.2719,-0.2268,-0.179,-0.1285,-0.0955,-0.0502,0.0089,0.0946,0.1426,0.1547,0.1426,0.1207,0.0933,0.0604,0.065,0.1025,0.0542,0.0556,0.084,-0.0195,-0.1176,-0.2077,-0.2504,-0.3287,-0.4109,-0.3919,-0.4174,-0.4632,-0.4746,-0.5819,-0.7572,-1.0331,-1.2774,-1.4806,-1.5663,-1.6766,-1.7895,-1.8536,-1.8807,-1.8967,-1.9129,-1.9632,-2.0233,-2.0729,-2.1248,-2.2089,-2.356,-2.4419,-2.4811,-2.4459,-2.5225,-2.5894,-2.5814,-2.617,-2.6572,-2.693,-2.7425,-2.7949,-2.8429,-2.8793,-2.9311,-2.9987,-3.0525,-3.1221,-3.2134,-3.3691,-3.4954,-3.5688,-3.6071,-3.6227,-3.6106,-3.6189,-3.5855,-3.5068,-3.4726,-3.4569,-3.4543,-3.3767,-3.3577,-3.3957,-3.4498,-3.5108,-3.5723,-3.6218,-3.6812,-3.7489,-3.7037,-3.7234,-3.7993,-3.8086,-3.7897,-3.7618,-3.773,-3.7833,-3.7894,-3.7566,-3.7855,-3.844,-0.4364,-0.3877,-0.3211,-0.2273,-0.1866,-0.1514,-0.0958,-0.0885,-0.1122,-0.1737,-0.1875,-0.2071,-0.2549,-0.291,-0.313,-0.3244,-0.3079,-0.2942,-0.2805,-0.2577,-0.2184,-0.1649,-0.1282,-0.0806,-0.0201,0.0543,0.0965,0.1073,0.1054,0.1035,0.0956,0.0835,0.099,0.1403,0.1225,0.1294,0.1479,0.0544,-0.0471,-0.149,-0.2179,-0.3223,-0.4379,-0.4419,-0.4844,-0.5358,-0.5593,-0.7093,-0.9318,-1.1399,-1.3471,-1.5291,-1.6219,-1.7149,-1.8092,-1.8767,-1.9112,-1.924,-1.9042,-1.9566,-2.0207,-2.0427,-2.0897,-2.1614,-2.3016,-2.3783,-2.4138,-2.4028,-2.4845,-2.5626,-2.5855,-2.6469,-2.708,-2.756,-2.7999,-2.843,-2.8707,-2.9157,-2.9768,-3.0532,-3.1263,-3.2202,-3.3466,-3.4438,-3.5248,-3.5918,-3.61,-3.6185,-3.6142,-3.6523,-3.6314,-3.5404,-3.5508,-3.5307,-3.4775,-3.415,-3.409,-3.4589,-3.4722,-3.5091,-3.5643,-3.6214,-3.6851,-3.7531,-3.7519,-3.7997,-3.8844,-3.8776,-3.8608,-3.8367,-3.8073,-3.8004,-3.8096,-3.7829,-3.8204,-3.8846,-0.4386,-0.3939,-0.3337,-0.2423,-0.2055,-0.1589,-0.063,-0.0805,-0.115,-0.1515,-0.1653,-0.1903,-0.2437,-0.2854,-0.316,-0.333,-0.3216,-0.3077,-0.2942,-0.2916,-0.2607,-0.1959,-0.1569,-0.1065,-0.0421,0.0058,0.0388,0.049,0.0715,0.0824,0.087,0.1128,0.1361,0.1568,0.1726,0.1734,0.1546,0.0853,-0.0157,-0.1333,-0.2238,-0.3343,-0.4593,-0.5076,-0.5569,-0.607,-0.6533,-0.8384,-1.0833,-1.2073,-1.3794,-1.5637,-1.6837,-1.7574,-1.8112,-1.8984,-1.935,-1.9399,-1.9082,-1.9533,-2.0131,-2.0293,-2.0681,-2.131,-2.2503,-2.3133,-2.3547,-2.3754,-2.4562,-2.5327,-2.577,-2.6663,-2.757,-2.8104,-2.8511,-2.8845,-2.9026,-2.9508,-3.0146,-3.1045,-3.2183,-3.348,-3.4884,-3.5213,-3.5565,-3.6168,-3.6228,-3.6263,-3.6241,-3.664,-3.6499,-3.5752,-3.6121,-3.5883,-3.4932,-3.4724,-3.4852,-3.5409,-3.5045,-3.5051,-3.5376,-3.6147,-3.6727,-3.7167,-3.7925,-3.8685,-3.9402,-3.9344,-3.936,-3.9297,-3.8645,-3.8418,-3.8488,-3.8488,-3.8834,-3.9297,-0.4456,-0.4052,-0.352,-0.2965,-0.234,-0.1661,-0.0932,-0.0778,-0.0898,-0.129,-0.1346,-0.1654,-0.241,-0.2854,-0.3102,-0.313,-0.3272,-0.3272,-0.3077,-0.297,-0.2521,-0.1679,-0.1706,-0.1315,-0.0421,-0.0435,-0.0148,0.0504,0.082,0.1005,0.1066,0.1561,0.1955,0.2273,0.2249,0.1788,0.1063,0.0538,-0.0861,-0.282,-0.3139,-0.4125,-0.5427,-0.5509,-0.6134,-0.6902,-0.674,-0.8297,-1.0556,-1.2021,-1.3697,-1.5356,-1.6551,-1.7313,-1.7902,-1.8794,-1.9042,-1.9082,-1.9002,-1.9322,-1.9687,-1.963,-2.0095,-2.0817,-2.1668,-2.27,-2.3547,-2.3754,-2.4562,-2.5285,-2.5496,-2.6713,-2.7612,-2.7481,-2.8341,-2.9004,-2.8839,-2.9255,-2.9691,-3.0067,-3.1763,-3.3242,-3.4173,-3.5229,-3.6213,-3.6922,-3.7168,-3.732,-3.7273,-3.7366,-3.7074,-3.6323,-3.6168,-3.5883,-3.5524,-3.5489,-3.5709,-3.6207,-3.5489,-3.5422,-3.5875,-3.5726,-3.624,-3.719,-3.75,-3.8307,-3.9482,-3.9173,-3.9302,-3.9638,-3.8978,-3.8741,-3.8752,-3.8752,-3.899,-3.9238,-0.3928,-0.3744,-0.3432,-0.2724,-0.2221,-0.1686,-0.1058,-0.0993,-0.1094,-0.129,-0.1542,-0.1849,-0.2296,-0.2796,-0.313,-0.3244,-0.3357,-0.3246,-0.2912,-0.2633,-0.2268,-0.1734,-0.1456,-0.1149,-0.0785,-0.0598,-0.0258,0.0229,0.0404,0.0832,0.1449,0.1647,0.2017,0.256,0.2281,0.1712,0.0948,0.0153,-0.133,-0.3136,-0.3535,-0.443,-0.5549,-0.5665,-0.6319,-0.7352,-0.8346,-0.9838,-1.1548,-1.3009,-1.4235,-1.54,-1.6997,-1.7608,-1.7902,-1.8865,-1.9152,-1.9152,-1.9042,-1.9371,-1.9729,-1.9662,-2.0189,-2.0887,-2.1738,-2.253,-2.3154,-2.3363,-2.4251,-2.5073,-2.5285,-2.6757,-2.7821,-2.7558,-2.8542,-2.922,-2.885,-2.9209,-2.9827,-3.0664,-3.2273,-3.3344,-3.342,-3.433,-3.5254,-3.6134,-3.6299,-3.6577,-3.7049,-3.7214,-3.6934,-3.6193,-3.629,-3.6184,-3.5812,-3.5499,-3.5685,-3.6398,-3.5004,-3.4862,-3.5788,-3.5606,-3.586,-3.6512,-3.751,-3.8406,-3.9265,-3.973,-3.9977,-3.9989,-3.9509,-3.9049,-3.8596,-3.8752,-3.8823,-3.8775]},{"header":{"parameterUnit":"m.s-1","parameterCategory":1,"la1":30.6,"la2":28.766,"lo1":-90.7593,"lo2":-88.6598,"dy":0.0162,"dx":0.0183,"nx":116,"ny":114,"refTime":"2023-09-04T00:00:00:Z","depth":0,"parameterNumber":3,"parameterNumberName":"V-component_of_WINDS"},"data":[0.0,0.0,0.0,0.0,0.0,0.0,0.0,0.0,0.0,0.0,0.0,0.0,0.0,0.0,0.0,0.0,0.0,0.0,0.0,0.0,0.0,0.0,0.0,0.0,0.0,0.0,0.0,0.0,0.0,0.0,0.0,0.0,0.0,0.0,0.0,0.0,0.0,0.0,0.0,0.0,0.0,0.0,0.0,0.0,0.0,0.0,0.0,0.0,0.0,0.0,0.0,0.0,0.0,0.0,0.0,0.0,0.0,0.0,0.0,0.0,0.0,0.0,0.0,0.0,0.0,0.0,0.0,0.0,0.0,0.0,0.0,0.0,0.0,0.0,0.0,0.0,0.0,0.0,0.0,0.0,0.0,0.0,0.0,0.0,0.0,0.0,0.0,0.0,0.0,0.0,0.0,0.0,0.0,0.0,0.0,0.0,0.0,0.0,0.0,0.0,0.0,0.0,0.0,0.0,0.0,0.0,0.0,0.0,0.0,0.0,0.0,0.0,0.0,0.0,0.0,0.0,0.0,0.0,0.0,0.0,0.0,0.0,0.0,0.0,0.0,0.0,0.0,0.0,0.0,0.0,0.0,0.0,0.0,0.0,0.0,0.0,0.0,0.0,0.0,0.0,0.0,0.0,0.0,0.0,0.0,0.0,0.0,0.0,0.0,0.0,0.0,0.0,0.0,0.0,0.0,0.0,0.0,0.0,0.0,0.0,0.0,0.0,0.0,0.0,0.0,0.0,0.0,0.0,0.0,0.0,0.0,0.0,0.0,0.0,0.0,0.0,0.0,0.0,0.0,0.0,0.0,0.0,0.0,0.0,0.0,0.0,0.0,0.0,0.0,0.0,0.0,0.0,0.0,0.0,0.0,0.0,0.0,0.0,0.0,0.0,0.0,0.0,0.0,0.0,0.0,0.0,0.0,0.0,0.0,0.0,0.0,0.0,0.0,0.0,0.0,0.0,0.0,0.0,0.0,0.0,0.0,0.0,0.0,0.0,0.0,0.0,0.0,0.0,0.0,0.0,0.0,0.0,0.0,0.0,0.0,0.0,0.0,0.0,0.0,0.0,0.0,0.0,0.0,0.0,0.0,0.0,0.0,0.0,0.0,0.0,0.0,0.0,0.0,0.0,0.0,0.0,0.0,0.0,0.0,0.0,0.0,0.0,0.0,0.0,0.0,0.0,0.0,0.0,0.0,0.0,0.0,0.0,0.0,0.0,0.0,0.0,0.0,0.0,0.0,0.0,0.0,0.0,0.0,0.0,0.0,0.0,0.0,0.0,0.0,0.0,0.0,0.0,0.0,0.0,0.0,0.0,0.0,0.0,0.0,0.0,0.0,0.0,0.0,0.0,0.0,0.0,0.0,0.0,0.0,0.0,0.0,0.0,0.0,0.0,0.0,0.0,0.0,0.0,0.0,0.0,0.0,0.0,0.0,0.0,0.0,0.0,0.0,0.0,0.0,0.0,0.0,0.0,0.0,0.0,0.0,0.0,0.0,0.0,0.0,0.0,0.0,0.0,0.0,0.0,0.0,0.0,0.0,0.0,0.0,0.0,0.0,0.0,0.0,0.0,0.0,0.0,0.0,0.0,0.0,0.0,0.0,0.0,0.0,0.0,0.0,0.0,0.0,0.0,0.0,0.0,0.0,0.0,0.0,0.0,0.0,0.0,0.0,0.0,0.0,0.0,0.0,0.0,0.0,0.0,0.0,0.0,0.0,0.0,0.0,0.0,0.0,0.0,0.0,0.0,0.0,0.0,0.0,0.0,0.0,0.0,0.0,0.0,0.0,0.0,0.0,0.0,0.0,0.0,0.0,0.0,0.0,0.0,0.0,0.0,0.0,0.0,0.0,0.0,0.0,0.0,0.0,0.0,0.0,0.0,0.0,0.0,0.0,0.0,0.0,0.0,0.0,0.0,0.0,0.0,0.0,0.0,0.0,0.0,0.0,0.0,0.0,0.0,0.0,0.0,0.0,0.0,0.0,0.0,0.0,0.0,0.0,0.0,0.0,0.0,0.0,0.0,0.0,0.0,0.0,0.0,0.0,0.0,0.0,0.0,0.0,0.0,0.0,0.0,0.0,0.0,0.0,0.0,0.0,0.0,0.0,0.0,0.0,0.0,0.0,0.0,0.0,0.0,0.0,0.0,0.0,0.0,0.0,0.0,0.0,0.0,0.0,0.0,0.0,0.0,0.0,0.0,0.0,0.0,0.0,0.0,0.0,0.0,0.0,0.0,0.0,0.0,0.0,0.0,0.0,0.0,0.0,0.0,0.0,0.0,0.0,0.0,0.0,0.0,0.0,0.0,0.0,0.0,0.0,0.0,0.0,0.0,0.0,0.0,0.0,0.0,0.0,0.0,0.0,0.0,0.0,0.0,0.0,0.0,0.0,0.0,0.0,0.0,0.0,0.0,0.0,0.0,0.0,0.0,0.0,0.0,0.0,0.0,0.0,0.0,0.0,0.0,0.0,0.0,0.0,0.0,0.0,0.0,0.0,0.0,0.0,0.0,0.0,0.0,0.0,0.0,0.0,0.0,0.0,0.0,0.0,0.0,0.0,0.0,0.0,0.0,0.0,0.0,0.0,0.0,0.0,0.0,0.0,0.0,0.0,0.0,0.0,0.0,0.0,0.0,0.0,0.0,0.0,0.0,0.0,0.0,0.0,0.0,0.0,0.0,0.0,0.0,0.0,0.0,0.0,0.0,0.0,0.0,0.0,0.0,0.0,0.0,0.0,0.0,0.0,0.0,0.0,0.0,0.0,0.0,0.0,0.0,0.0,0.0,0.0,0.0,0.0,0.0,0.0,0.0,0.0,0.0,0.0,0.0,0.0,0.0,0.0,0.0,0.0,0.0,0.0,0.0,0.0,0.0,0.0,0.0,0.0,0.0,0.0,0.0,0.0,0.0,0.0,0.0,0.0,0.0,0.0,0.0,0.0,0.0,0.0,0.0,0.0,0.0,0.0,0.0,0.0,0.0,0.0,0.0,0.0,0.0,0.0,0.0,0.0,0.0,0.0,0.0,0.0,0.0,0.0,0.0,0.0,0.0,0.0,0.0,0.0,0.0,0.0,0.0,0.0,0.0,0.0,0.0,0.0,0.0,0.0,0.0,0.0,0.0,0.0,0.0,0.0,0.0,0.0,0.0,0.0,0.0,0.0,0.0,0.0,0.0,0.0,0.0,0.0,0.0,0.0,0.0,0.0,0.0,0.0,0.0,0.0,0.0,0.0,0.0,0.0,0.0,0.0,0.0,0.0,0.0,0.0,0.0,0.0,0.0,0.0,0.0,0.0,0.0,0.0,0.0,0.0,0.0,0.0,0.0,0.0,0.0,0.0,0.0,0.0,0.0,0.0,0.0,0.0,0.0,0.0,0.0,0.0,0.0,0.0,0.0,0.0,0.0,0.0,0.0,0.0,0.0,0.0,0.0,0.0,0.0,0.0,0.0,0.0,0.0,0.0,0.0,0.0,0.0,0.0,0.0,0.0,0.0,0.0,0.0,0.0,0.0,0.0,0.0,0.0,0.0,0.0,0.0,0.0,0.0,0.0,0.0,0.0,0.0,0.0,0.0,0.0,0.0,0.0,0.0,0.0,0.0,0.0,0.0,0.0,0.0,0.0,0.0,0.0,0.0,0.0,0.0,0.0,0.0,0.0,0.0,0.0,0.0,0.0,0.0,0.0,0.0,0.0,0.0,0.0,0.0,0.0,0.0,0.0,0.0,0.0,0.0,0.0,0.0,0.0,0.0,0.0,0.0,0.0,0.0,0.0,0.0,0.0,0.0,0.0,0.0,0.0,0.0,0.0,0.0,0.0,0.0,0.0,0.0,0.0,0.0,0.0,0.0,0.0,0.0,0.0,0.0,0.0,0.0,0.0,0.0,0.0,0.0,0.0,0.0,0.0,0.0,0.0,0.0,0.0,0.0,0.0,0.0,0.0,0.0,0.0,0.0,0.0,0.0,0.0,0.0,0.0,0.0,0.0,0.0,0.0,0.0,0.0,0.0,0.0,0.0,0.0,0.0,0.0,0.0,0.0,0.0,0.0,0.0,0.0,0.0,0.0,0.0,0.0,0.0,0.0,0.0,0.0,0.0,0.0,0.0,0.0,0.0,0.0,0.0,0.0,0.0,0.0,0.0,0.0,0.0,0.0,0.0,0.0,0.0,0.0,0.0,0.0,0.0,0.0,0.0,0.0,0.0,0.0,0.0,0.0,0.0,0.0,0.0,0.0,0.0,0.0,0.0,0.0,0.0,0.0,0.0,0.0,0.0,0.0,0.0,0.0,0.0,0.0,0.0,0.0,0.0,0.0,0.0,0.0,0.0,0.0,0.0,0.0,0.0,0.0,0.0,0.0,0.0,0.0,0.0,0.0,0.0,0.0,0.0,0.0,0.0,0.0,0.0,0.0,0.0,0.0,0.0,0.0,0.0,0.0,0.0,0.0,0.0,0.0,0.0,0.0,0.0,0.0,0.0,0.0,0.0,0.0,0.0,0.0,0.0,0.0,0.0,0.0,0.0,0.0,0.0,0.0,0.0,0.0,0.0,0.0,0.0,0.0,0.0,0.0,0.0,0.0,0.0,0.0,0.0,0.0,0.0,0.0,0.0,0.0,0.0,0.0,0.0,0.0,0.0,0.0,0.0,0.0,0.0,0.0,0.0,0.0,0.0,0.0,0.0,0.0,0.0,0.0,0.0,0.0,0.0,0.0,0.0,0.0,0.0,0.0,0.0,0.0,0.0,0.0,0.0,0.0,0.0,0.0,0.0,0.0,0.0,0.0,0.0,0.0,0.0,0.0,0.0,0.0,0.0,0.0,0.0,0.0,0.0,0.0,0.0,0.0,0.0,0.0,0.0,0.0,0.0,0.0,0.0,0.0,0.0,0.0,0.0,0.0,0.0,0.0,0.0,0.0,0.0,0.0,0.0,0.0,0.0,0.0,0.0,0.0,0.0,0.0,0.0,0.0,0.0,0.0,0.0,0.0,0.0,0.0,0.0,0.0,0.0,0.0,0.0,0.0,0.0,0.0,0.0,0.0,0.0,0.0,0.0,0.0,0.0,0.0,0.0,0.0,0.0,0.0,0.0,0.0,0.0,0.0,0.0,0.0,0.0,0.0,0.0,0.0,0.0,0.0,0.0,0.0,0.0,0.0,0.0,0.0,0.0,0.0,0.0,0.0,0.0,0.0,0.0,0.0,0.0,0.0,0.0,0.0,0.0,0.0,0.0,0.0,0.0,0.0,0.0,0.0,0.0,0.0,0.0,0.0,0.0,0.0,0.0,0.0,0.0,0.0,0.0,0.0,0.0,0.0,0.0,0.0,0.0,0.0,0.0,0.0,0.0,0.0,0.0,0.0,0.0,0.0,0.0,0.0,0.0,0.0,0.0,0.0,0.0,0.0,0.0,0.0,0.0,0.0,0.0,0.0,0.0,0.0,0.0,0.0,0.0,0.0,0.0,0.0,0.0,0.0,0.0,0.0,0.0,0.0,0.0,0.0,0.0,0.0,0.0,0.0,0.0,0.0,0.0,0.0,0.0,0.0,0.0,0.0,0.0,0.0,0.0,0.0,0.0,0.0,0.0,0.0,0.0,0.0,0.0,0.0,0.0,0.0,0.0,0.0,0.0,0.0,0.0,0.0,0.0,0.0,0.0,0.0,0.0,0.0,0.0,0.0,0.0,0.0,0.0,0.0,0.0,0.0,0.0,0.0,0.0,0.0,0.0,0.0,0.0,0.0,0.0,0.0,0.0,0.0,0.0,0.0,0.0,0.0,0.0,0.0,0.0,0.0,0.0,0.0,0.0,0.0,0.0,0.0,0.0,0.0,0.0,0.0,0.0,0.0,0.0,0.0,0.0,0.0,0.0,0.0,0.0,0.0,0.0,0.0,0.0,0.0,0.0,0.0,0.0,0.0,0.0,0.0,0.0,0.0,0.0,0.0,0.0,0.0,0.0,0.0,0.0,0.0,0.0,0.0,0.0,0.0,0.0,0.0,0.0,0.0,0.0,0.0,0.0,0.0,0.0,0.0,0.0,0.0,0.0,0.0,0.0,0.0,0.0,0.0,0.0,0.0,0.0,0.0,0.0,0.0,0.0,0.0,0.0,0.0,0.0,2.8301,0.0,0.0,0.0,0.0,0.0,0.0,0.0,0.0,0.0,0.0,0.0,0.0,0.0,0.0,0.0,0.0,0.0,0.0,0.0,0.0,0.0,0.0,0.0,0.0,0.0,0.0,0.0,0.0,0.0,0.0,0.0,0.0,0.0,0.0,0.0,0.0,0.0,0.0,2.2986,2.4262,2.5634,2.7012,2.6623,2.6443,2.6454,0.0,0.0,0.0,0.0,0.0,0.0,0.0,0.0,0.0,0.0,0.0,0.0,0.0,0.0,0.0,0.0,0.0,0.0,0.0,0.0,0.0,0.0,0.0,0.0,0.0,0.0,0.0,0.0,0.0,0.0,0.0,0.0,0.0,0.0,0.0,0.0,0.0,0.0,0.0,0.0,0.0,0.0,0.0,0.0,0.0,0.0,0.0,0.0,0.0,0.0,0.0,0.0,0.0,0.0,0.0,0.0,0.0,0.0,0.0,0.0,0.0,0.0,0.0,0.0,0.0,0.0,0.0,0.0,0.0,0.0,0.0,2.9959,0.0,0.0,0.0,0.0,0.0,0.0,0.0,0.0,0.0,0.0,0.0,0.0,0.0,0.0,0.0,0.0,0.0,0.0,0.0,0.0,0.0,0.0,0.0,1.5956,1.6147,1.7666,1.7086,1.7007,0.0,0.0,0.0,0.0,0.0,0.0,2.1197,2.2058,2.2954,2.3836,2.5816,2.7198,2.8019,2.8322,2.8464,2.847,2.7943,0.0,0.0,0.0,0.0,0.0,0.0,0.0,0.0,0.0,0.0,0.0,0.0,0.0,0.0,0.0,0.0,0.0,0.0,0.0,0.0,0.0,0.0,0.0,0.0,0.0,0.0,0.0,0.0,0.0,0.0,0.0,0.0,0.0,0.0,0.0,0.0,0.0,0.0,0.0,0.0,0.0,0.0,0.0,0.0,0.0,0.0,0.0,0.0,0.0,0.0,0.0,0.0,0.0,0.0,0.0,0.0,0.0,0.0,0.0,0.0,0.0,0.0,0.0,4.004,4.0748,4.1586,4.0577,3.9933,3.9428,3.5806,3.4019,3.3594,3.3076,0.0,0.0,0.0,0.0,0.0,0.0,0.0,0.0,0.0,0.0,0.0,0.0,0.0,0.0,0.0,0.0,0.0,0.0,0.0,0.0,0.0,1.6452,1.6791,1.7711,1.7627,1.7908,1.8775,0.0,0.0,0.0,0.0,0.0,2.1191,2.2604,2.3818,2.482,2.7389,2.8708,2.8867,3.0394,3.1123,3.1084,2.8796,2.7751,2.7682,0.0,0.0,0.0,0.0,0.0,0.0,0.0,0.0,0.0,0.0,0.0,0.0,0.0,0.0,0.0,0.0,0.0,0.0,0.0,0.0,0.0,0.0,0.0,0.0,0.0,0.0,0.0,0.0,0.0,0.0,0.0,0.0,0.0,0.0,0.0,0.0,0.0,0.0,0.0,0.0,0.0,2.9103,2.9585,0.0,0.0,0.0,0.0,0.0,0.0,0.0,0.0,0.0,0.0,0.0,0.0,0.0,4.113,4.1905,4.2326,4.2601,4.2789,4.2695,4.2731,4.2817,4.1833,4.1661,4.2027,4.0552,0.0,3.7002,3.6473,0.0,0.0,0.0,0.0,0.0,0.0,0.0,0.0,0.0,0.0,0.0,0.0,0.0,0.0,0.0,0.0,0.0,0.0,0.0,0.0,0.0,1.6997,1.7818,1.9137,1.966,2.0257,2.109,2.0599,0.0,0.0,0.0,2.1356,2.1808,2.3434,2.5239,2.7197,2.8402,2.953,3.0587,3.1368,3.1954,3.2314,3.1188,3.0369,2.9774,2.8798,0.0,0.0,0.0,0.0,0.0,0.0,0.0,0.0,0.0,0.0,0.0,0.0,0.0,0.0,0.0,0.0,0.0,0.0,0.0,0.0,0.0,0.0,0.0,0.0,0.0,0.0,0.0,0.0,0.0,0.0,0.0,0.0,0.0,0.0,0.0,0.0,0.0,0.0,0.0,2.8454,2.9627,3.0452,3.0952,3.0907,0.0,0.0,0.0,0.0,0.0,0.0,0.0,0.0,0.0,4.1789,4.257,4.3297,4.4003,4.4283,4.4596,4.4971,4.4882,4.4974,4.5204,4.4163,4.3874,4.4195,4.3388,4.2523,4.1612,3.9662,3.8844,3.8675,0.0,0.0,0.0,0.0,3.445,3.4842,0.0,0.0,0.0,0.0,0.0,0.0,0.0,0.0,0.0,0.0,0.0,0.0,1.7147,1.8176,1.9325,2.0621,2.1468,2.2098,2.2465,2.2018,2.1598,2.1318,2.1664,2.2212,2.2954,2.4903,2.7022,2.9237,2.955,3.0548,3.2105,3.2105,3.2515,3.3218,3.3006,3.2377,3.1407,3.0091,2.9292,2.8788,0.0,0.0,0.0,0.0,0.0,0.0,0.0,0.0,0.0,0.0,0.0,0.0,0.0,0.0,0.0,0.0,0.0,0.0,0.0,0.0,0.0,0.0,0.0,0.0,0.0,0.0,0.0,0.0,0.0,0.0,0.0,0.0,0.0,0.0,0.0,0.0,0.0,2.9173,3.026,3.1212,3.2366,3.2624,0.0,0.0,0.0,0.0,0.0,0.0,4.0417,4.1841,4.3082,4.4053,4.449,4.5128,4.5936,4.5788,4.5852,4.6119,4.6182,4.633,4.646,4.5846,4.5574,4.5559,4.5152,4.4951,4.482,4.2498,4.1296,4.0822,4.0011,3.9344,3.8847,3.8612,3.8623,3.8901,0.0,0.0,0.0,0.0,0.0,0.0,0.0,0.0,0.0,0.0,0.0,1.807,1.8892,2.049,2.1548,2.1634,2.2365,2.2495,2.171,2.2265,2.2235,2.1349,2.2814,2.4018,2.4759,2.7348,2.9173,3.0132,3.1164,3.21,3.2935,3.2935,3.3363,3.4109,3.3282,3.2377,3.1484,3.1346,3.0369,2.8891,2.8807,0.0,0.0,0.0,0.0,0.0,0.0,0.0,0.0,0.0,0.0,0.0,0.0,0.0,0.0,0.0,0.0,0.0,0.0,0.0,0.0,0.0,0.0,0.0,0.0,0.0,0.0,0.0,0.0,0.0,0.0,0.0,0.0,0.0,0.0,0.0,0.0,0.0,0.0,3.1613,3.3577,0.0,0.0,0.0,0.0,3.7134,3.8674,4.0414,4.2359,4.3326,4.4708,4.6635,4.6365,4.6749,4.7935,4.7399,4.6695,4.5897,4.6155,4.5972,4.5397,4.5978,4.6117,4.5875,4.5915,4.5686,4.5229,4.485,4.4785,4.4952,4.4454,4.4128,4.3853,4.2991,4.2808,4.2966,0.0,0.0,0.0,0.0,0.0,0.0,0.0,0.0,1.6349,1.6626,1.7879,1.9064,1.992,2.1527,2.2761,2.3325,2.4155,2.4502,2.4197,2.3813,2.3435,2.3045,2.4024,2.5735,2.8198,2.9262,3.0497,3.1943,3.2411,3.307,3.3898,3.3898,3.4328,3.5078,3.4693,3.4011,3.3128,3.2548,3.1919,3.1248,3.0173,2.9527,0.0,0.0,0.0,0.0,0.0,0.0,0.0,0.0,0.0,0.0,0.0,0.0,0.0,0.0,0.0,0.0,0.0,0.0,0.0,0.0,0.0,0.0,0.0,0.0,0.0,0.0,0.0,0.0,0.0,0.0,0.0,0.0,0.0,0.0,0.0,0.0,0.0,3.2258,3.4026,0.0,3.4565,3.5995,3.7491,3.8788,4.0315,4.2048,4.4041,4.4318,4.5127,4.6638,4.655,4.6845,4.7716,4.7535,4.7463,4.7461,4.7651,4.7731,4.7684,4.7954,4.7876,4.7634,4.7521,4.7023,4.6334,4.6685,4.6105,4.5111,4.568,4.5417,4.4727,4.5019,4.4686,4.4134,0.0,0.0,0.0,0.0,0.0,0.0,0.0,0.0,1.7247,1.7509,1.9019,2.0407,2.1278,2.2881,2.4133,2.4713,2.5277,2.5489,2.5172,2.4788,2.44,2.4013,2.5235,2.7261,3.0147,3.0574,3.1635,3.3371,3.3479,3.3967,3.4803,3.4494,3.4803,3.5554,3.5423,3.5206,3.489,3.458,3.3777,3.2604,3.1472,3.082,3.0395,0.0,0.0,0.0,0.0,0.0,0.0,0.0,0.0,0.0,0.0,0.0,0.0,0.0,0.0,0.0,0.0,0.0,0.0,0.0,0.0,0.0,0.0,0.0,0.0,0.0,0.0,0.0,0.0,0.0,0.0,0.0,0.0,0.0,0.0,3.1094,3.2494,3.2886,3.4786,3.6019,3.5902,3.735,3.8862,4.0209,4.1694,4.3273,4.4952,4.5468,4.6124,4.7042,4.7029,4.7331,4.7947,4.7869,4.8039,4.8412,4.8615,4.8755,4.8866,4.9093,4.9053,4.8818,4.8504,4.7983,4.7288,4.7718,4.6874,4.5413,4.6157,4.5877,4.5073,4.5294,4.4902,4.4279,0.0,0.0,0.0,0.0,0.0,0.0,0.0,1.7455,1.8325,1.9106,2.0731,2.2153,2.3014,2.4666,2.5699,2.5699,2.5641,2.5231,2.4394,2.5069,2.5089,2.4162,2.6427,2.8581,3.0438,3.1318,3.2592,3.4343,3.44,3.4842,3.5581,3.4731,3.4775,3.5532,3.5407,3.5795,3.6594,3.7371,3.5808,3.2806,3.2718,3.2195,3.1382,0.0,0.0,0.0,0.0,0.0,0.0,0.0,0.0,0.0,0.0,0.0,0.0,0.0,0.0,0.0,0.0,0.0,0.0,0.0,0.0,0.0,0.0,0.0,0.0,0.0,0.0,0.0,0.0,0.0,0.0,0.0,0.0,0.0,2.9925,3.2176,3.377,3.3509,3.5923,3.7608,3.7578,3.8497,3.9803,4.1426,4.291,4.414,4.5066,4.6726,4.7732,4.7977,4.804,4.8368,4.8911,4.8545,4.8426,4.8681,4.8907,4.8882,4.865,4.9342,4.9509,4.9314,4.8833,4.8356,4.7926,4.7926,4.7229,4.6194,4.6239,4.5859,4.5172,4.4095,4.3661,4.3762,0.0,0.0,0.0,0.0,0.0,0.0,0.0,1.7987,1.9017,1.9232,2.1302,2.2838,2.3063,2.4668,2.5683,2.563,2.5605,2.5504,2.5257,2.531,2.575,2.6636,2.7435,2.9219,3.2154,3.2491,3.3471,3.5175,3.5237,3.5384,3.559,3.5296,3.5599,3.6365,3.6285,3.6692,3.7455,3.7625,3.6835,3.5411,3.4748,3.4001,3.3184,0.0,0.0,0.0,0.0,0.0,0.0,0.0,0.0,0.0,0.0,0.0,0.0,0.0,0.0,0.0,0.0,0.0,0.0,0.0,0.0,0.0,0.0,0.0,0.0,0.0,0.0,0.0,0.0,0.0,0.0,0.0,3.1314,3.1917,3.1579,3.382,3.5397,3.5216,3.6633,3.7913,3.8662,3.918,4.0307,4.2281,4.3389,4.4523,4.5782,4.5997,4.6546,4.753,4.7627,4.826,4.9475,4.9166,4.9382,5.0124,4.9662,4.9554,4.9794,5.014,5.0185,4.9957,4.9641,4.907,4.8337,4.8139,4.7497,4.6654,4.7017,4.6577,4.5724,4.5535,4.527,4.503,0.0,0.0,0.0,0.0,0.0,0.0,0.0,1.8925,1.9921,2.0301,2.1958,2.3242,2.3595,2.4864,2.5543,2.5139,2.5431,2.5464,2.5077,2.5577,2.6444,2.7691,2.8186,2.9701,3.2346,3.2469,3.3327,3.5007,3.5014,3.52,3.5567,3.5495,3.5712,3.6183,3.6795,3.7349,3.7874,3.8485,3.8304,3.7534,3.705,3.5693,3.3987,3.3792,3.2974,3.1928,3.1932,3.1641,3.1186,3.0548,0.0,0.0,0.0,0.0,0.0,0.0,0.0,0.0,0.0,0.0,0.0,0.0,0.0,0.0,0.0,0.0,0.0,0.0,0.0,0.0,0.0,0.0,0.0,0.0,3.3335,3.4105,3.4077,3.5519,3.6579,3.661,3.7221,3.8152,3.9486,3.9544,4.0429,4.2585,4.3873,4.5002,4.6126,4.6805,4.7329,4.7623,4.8376,4.9038,4.9625,4.9418,4.9937,5.1225,5.0331,5.0147,5.0599,5.0784,5.0692,0.0,4.9647,4.9166,4.8862,4.8336,4.7668,0.0,0.0,0.0,0.0,0.0,4.4735,4.4707,0.0,0.0,0.0,0.0,0.0,0.0,0.0,1.9873,2.0779,2.1541,2.2496,2.3352,2.4031,2.4963,2.5191,2.4322,2.4957,2.5085,2.4333,2.5708,2.6935,2.7783,2.8627,2.9887,3.1655,3.1769,3.261,3.4293,3.4218,3.4629,3.5493,3.542,3.5436,3.5602,3.7048,3.7823,3.812,3.9585,3.9765,3.9087,3.9204,3.7319,3.4531,3.5296,3.4675,3.3381,3.337,3.3312,3.3195,3.297,0.0,0.0,0.0,0.0,0.0,0.0,0.0,0.0,0.0,0.0,0.0,0.0,0.0,0.0,0.0,0.0,0.0,0.0,0.0,0.0,0.0,0.0,0.0,0.0,3.5603,3.6388,3.694,3.7265,3.7514,3.7727,3.7807,3.8487,4.0157,3.9847,4.0501,4.2807,4.4307,4.5541,4.6418,0.0,0.0,0.0,0.0,5.0231,4.9785,4.9631,5.0409,5.2138,5.0874,5.0606,5.1261,5.1139,5.0999,5.0733,4.9326,4.9071,4.9495,4.8553,4.7875,4.7318,4.6671,4.5751,4.4667,4.3647,4.3443,4.374,0.0,0.0,0.0,0.0,0.0,0.0,0.0,1.9485,2.0552,2.0722,2.2129,2.2909,2.2355,2.3701,2.4302,2.3427,2.3509,2.3781,2.4187,2.512,2.6339,2.7885,2.8139,2.9327,3.1659,3.1708,3.254,3.4225,3.4147,3.4569,3.5412,3.5357,3.5672,3.6331,3.7332,3.8131,3.8774,3.9833,3.9757,3.9012,3.9818,3.8939,3.7168,3.7318,3.7206,3.691,3.6918,3.6458,3.5753,3.4964,3.4077,3.3208,3.2584,3.1636,0.0,0.0,0.0,0.0,0.0,0.0,0.0,0.0,0.0,0.0,0.0,0.0,0.0,0.0,0.0,0.0,0.0,0.0,0.0,3.5975,3.6499,3.725,3.8743,3.8875,3.8803,3.8735,3.8635,3.921,4.0778,4.0554,4.1477,4.4324,4.5087,4.6034,4.7425,4.7738,4.8157,4.8715,4.9557,5.0538,5.1575,5.113,5.1635,5.3115,0.0,0.0,5.1526,5.0768,5.0519,5.0745,5.0301,5.0081,4.99,4.8941,4.8526,4.825,4.6618,4.591,4.577,4.5549,4.5251,4.4973,0.0,0.0,0.0,0.0,0.0,0.0,0.0,1.9651,2.0653,2.1087,2.1912,2.2441,2.2458,2.3236,2.3407,2.2535,2.281,2.3383,2.4206,2.5402,2.6663,2.7932,2.8416,2.9404,3.1012,3.1485,3.2118,3.2949,3.3722,3.4309,3.4769,3.5086,3.5484,3.5943,3.7201,3.7968,3.8438,3.9728,4.0024,3.966,4.0168,3.9904,3.9098,3.8735,3.8331,3.7947,3.7943,3.764,3.7179,3.6722,3.593,3.507,3.4594,3.3456,3.2185,0.0,0.0,0.0,0.0,0.0,0.0,0.0,0.0,0.0,0.0,0.0,0.0,0.0,0.0,3.4721,3.5937,0.0,3.6458,3.7634,3.7903,3.8322,3.9357,3.9699,3.9811,3.9669,3.9236,3.9365,4.0486,4.0397,4.1116,4.3066,4.4669,4.5981,4.6857,4.7934,4.8699,4.8984,5.0459,5.1383,5.1667,5.1887,5.2348,5.3009,5.1519,5.1075,5.1572,5.1102,5.0807,5.0632,5.007,4.9827,4.9834,4.9035,4.8677,4.8547,4.7207,4.681,4.7043,4.6837,4.613,4.5366,0.0,0.0,0.0,0.0,0.0,0.0,0.0,1.9815,2.0747,2.1445,2.1691,2.201,2.2559,2.2771,2.251,2.162,2.2438,2.3304,2.4008,2.5612,2.7001,2.7969,2.8685,2.9471,3.0395,3.1254,3.1777,3.1955,3.3389,3.418,3.4357,3.512,3.5506,3.5618,3.7258,3.7995,3.8127,3.9651,4.0291,4.0298,4.0375,4.0419,4.0353,3.9773,3.9095,3.8462,3.8505,3.8349,3.8155,3.8151,3.7504,3.6714,3.6674,3.5475,3.3904,3.2959,3.2482,0.0,0.0,0.0,0.0,0.0,0.0,0.0,0.0,3.4659,3.4895,3.6561,3.6779,3.7178,3.8699,3.8521,3.8403,3.9125,3.9214,3.9285,3.965,4.0151,4.0436,4.0347,3.9717,3.9467,4.0062,4.0283,4.0778,4.1649,4.4176,4.5818,4.6168,4.8186,4.9251,4.9101,5.1057,5.19,5.1294,5.212,5.262,5.2757,5.21,5.1727,5.168,5.1634,5.1214,5.0504,4.9659,4.9431,4.964,4.9069,4.8818,4.8726,4.7981,4.7855,4.8017,4.7611,4.667,4.5745,0.0,0.0,0.0,0.0,0.0,0.0,0.0,0.0,2.0461,2.0618,2.1322,2.157,2.0952,2.1562,2.1654,2.0727,2.2094,2.3037,2.3133,2.4704,2.6374,2.8016,2.8121,2.8885,3.0447,3.127,3.2077,3.2844,3.3698,3.447,3.5193,3.6105,3.6493,3.6526,3.8205,3.8899,3.8925,3.989,4.0263,4.0224,4.0362,4.0447,4.0489,4.0457,4.0331,4.0153,4.0269,3.9769,3.9042,3.8997,3.8301,3.7469,3.7347,3.6621,3.5581,3.4409,3.379,3.3374,3.2817,3.3603,3.4734,3.5269,3.577,3.6469,0.0,3.7741,3.7582,3.8156,3.8945,3.9412,3.8978,3.9601,4.0176,4.0164,3.9899,3.9867,4.0309,4.0355,4.0366,4.047,4.0121,3.9932,4.0092,4.0943,4.1916,4.2832,4.4593,4.5999,4.6826,4.7889,4.8646,4.8994,5.0034,5.0886,5.1633,5.1763,5.2213,5.3071,5.2321,5.1957,5.1941,5.1726,5.1293,5.0713,5.0224,4.9868,4.9669,4.9366,4.9254,4.9205,4.8872,4.8624,4.8361,4.7779,4.7313,4.6926,0.0,0.0,0.0,0.0,0.0,0.0,0.0,0.0,0.0,1.9733,2.0492,2.0919,2.0571,2.0898,2.097,2.054,2.2035,2.3021,2.3054,2.459,2.6276,2.8024,2.8047,2.8788,3.0457,3.1813,3.2433,3.2295,3.4058,3.4833,3.4686,3.5494,3.6155,3.6711,3.7841,3.8612,3.9113,3.9955,4.0271,4.0232,3.989,3.9742,3.9765,3.9894,3.9612,3.9241,4.028,4.0416,0.0,4.0,3.9319,3.8512,3.8375,3.7601,3.6478,3.5159,3.501,3.518,3.4802,3.5852,3.7061,3.7114,3.7809,3.8736,3.9722,3.9525,3.9385,4.0231,4.0517,4.0635,4.0793,4.0645,4.0611,4.0988,4.0488,4.0242,4.0638,4.0539,4.0247,3.9864,3.9577,3.9486,3.9666,3.9906,4.0456,4.1494,4.33,4.4804,4.5955,4.7091,4.8096,4.8908,4.9822,5.059,5.125,5.1806,5.227,5.2638,5.2473,5.2261,5.2002,5.1895,5.1369,5.0614,5.0231,4.9926,4.9669,4.9585,4.9453,4.9256,4.9009,4.8745,4.8453,4.8212,4.7751,4.7164,0.0,0.0,0.0,0.0,0.0,0.0,0.0,0.0,0.0,0.0,1.9951,2.0506,2.0532,2.0566,2.0579,2.0528,2.1834,2.2782,2.3084,2.4394,2.5941,2.7679,2.7935,2.87,3.0144,3.208,3.2783,3.2155,3.4424,3.52,3.4578,3.5345,3.6058,3.6733,3.7482,3.8178,3.8818,3.9395,3.9644,3.9604,3.9127,3.8922,3.8917,3.909,3.8758,3.8425,3.9873,4.0409,4.0384,4.0314,3.9984,3.9564,3.9387,3.8537,3.7351,3.6221,3.6259,3.6636,3.6687,3.7685,3.8715,3.8614,3.9406,4.0259,4.0624,4.0499,4.0499,4.1239,4.1324,4.1402,4.1832,4.155,4.1328,4.1627,4.1162,4.0824,4.0873,4.0576,4.0146,3.9518,3.8849,3.8682,3.9249,3.9094,3.9469,4.0645,4.2322,4.3838,4.5042,4.6353,4.7507,4.8353,4.9398,5.0213,5.0851,5.1661,5.2211,5.2397,5.2503,5.2382,5.2002,5.1849,5.1291,5.0501,5.0294,5.0038,4.9669,4.9634,4.9438,4.9157,4.8895,4.8532,4.8168,4.8338,4.7976,4.7417,0.0,0.0,0.0,0.0,0.0,0.0,0.0,0.0,0.0,0.0,0.0,0.0,0.0,2.0605,2.0598,2.0606,2.1367,2.2198,2.3046,2.3875,2.5098,2.6772,2.766,2.8493,2.9321,3.1806,3.3084,3.3059,3.4755,3.556,3.549,3.6343,3.6727,3.675,3.7552,3.7913,3.7951,3.7969,3.7977,3.797,3.8024,3.8077,3.8144,3.8214,3.8252,3.8403,3.9315,3.9636,3.9616,3.9566,3.9981,4.0514,4.0249,3.9414,3.8475,3.8053,3.7609,3.7449,3.8214,3.8844,3.9372,3.9742,4.035,4.0772,4.0328,4.0669,4.0918,4.0446,4.1212,4.1804,4.1316,4.2219,4.2787,4.2012,4.198,4.1835,4.1169,4.054,4.0037,3.9825,3.8175,3.7552,3.8868,3.9228,3.9926,4.128,4.2455,4.3563,4.4569,4.5875,4.6739,4.705,4.8356,4.9591,5.0697,5.1109,5.1783,5.2669,5.2457,5.2185,5.1987,5.1463,5.0947,5.0501,5.0501,5.0183,4.9683,4.9404,4.9157,4.8895,4.8645,4.7991,4.7305,4.7909,4.812,4.7937,0.0,0.0,0.0,0.0,0.0,0.0,0.0,0.0,0.0,0.0,0.0,0.0,0.0,0.0,0.0,0.0,2.1347,2.1922,2.2214,2.3528,2.4788,2.5896,2.673,2.7843,2.9279,3.067,3.1658,3.2232,3.3913,3.4729,3.4722,3.5547,3.6254,3.6839,3.7068,3.7476,3.7976,3.7969,3.7969,3.7926,3.7456,3.7276,3.7305,3.7383,3.7095,3.6769,0.0,3.8354,3.879,3.8729,3.884,3.8965,3.8681,3.8301,3.7927,3.7922,3.7757,3.7783,3.8767,3.9841,4.0723,4.08,4.1266,4.1629,4.1331,4.1216,4.1197,4.1266,4.1384,4.1456,4.1449,4.203,4.2332,4.1735,4.2012,4.2093,4.1505,4.1102,4.0318,3.8772,3.8213,3.7852,3.762,0.0,0.0,4.0591,4.1572,4.2662,4.3931,4.5257,4.6218,4.6724,4.8198,4.9402,5.0232,5.0932,5.1783,5.2713,5.2291,5.2078,5.1987,5.1463,5.0947,5.0501,5.0501,5.0198,4.9669,4.9585,4.9389,4.9157,4.8845,4.8468,4.8019,4.7636,4.7783,4.8007,0.0,0.0,0.0,0.0,0.0,0.0,0.0,0.0,0.0,0.0,0.0,0.0,0.0,0.0,0.0,0.0,0.0,2.1468,2.1772,2.2802,2.3885,2.4994,2.5828,2.6936,2.8343,2.9467,3.0311,3.0871,3.2551,3.3384,3.3434,3.455,3.5379,3.5987,3.626,3.6652,3.7141,3.7147,3.7301,3.7513,3.676,3.6671,3.6906,3.6658,3.6078,0.0,3.6404,3.6874,3.7129,3.7704,3.808,3.8209,3.7896,3.7505,3.7195,3.7303,3.7571,3.808,3.9348,4.0527,4.1419,4.1546,4.1872,4.2082,4.1801,4.152,4.1366,4.1395,4.1425,4.1417,4.1395,4.1936,4.2222,4.1762,4.2133,4.2286,4.1687,4.1079,4.006,3.8387,3.8061,3.7698,3.705,3.7819,0.0,4.0658,4.1092,4.2119,4.3931,4.5021,4.5827,4.6473,4.8209,4.9367,4.9997,5.1043,5.1894,5.2563,5.217,5.1941,5.1834,5.1416,5.0979,5.0614,5.0534,5.0246,4.9829,4.9732,4.9537,4.9256,4.9009,4.8475,4.7829,4.7701,4.7602,4.7445,0.0,0.0,0.0,0.0,0.0,0.0,0.0,0.0,0.0,0.0,0.0,0.0,0.0,0.0,0.0,0.0,0.0,0.0,2.1684,2.1813,2.2546,2.4073,2.5011,2.587,2.6679,2.8241,2.9089,2.9129,3.0766,3.1604,3.171,3.3343,3.4129,3.421,3.5037,3.543,3.5469,3.5518,3.5975,3.6613,3.5927,3.6133,3.6783,3.5983,3.5204,3.4656,3.5512,3.5308,3.4856,3.6543,3.7621,3.8175,3.7816,3.7086,3.6357,3.6357,3.7127,3.8345,3.995,4.0867,4.1505,4.1991,4.2205,4.2184,4.1736,4.1626,4.1448,4.0864,4.1288,4.1594,4.1066,4.1893,4.2522,4.2029,4.2317,4.2397,4.172,4.0514,3.9408,3.8621,3.7805,3.727,3.7109,3.859,4.0051,4.1242,0.0,4.1926,4.4334,4.4967,4.5562,4.6207,4.8237,4.9479,4.9909,5.1304,5.2109,5.2306,5.2109,5.188,5.1634,5.1354,5.1058,5.0807,5.0567,5.0342,5.0086,4.9829,4.9537,4.9305,4.9058,4.8068,4.6977,4.8106,4.7659,4.6511,0.0,0.0,0.0,0.0,0.0,0.0,0.0,0.0,0.0,0.0,0.0,0.0,0.0,0.0,0.0,0.0,0.0,0.0,2.0812,2.199,2.2882,2.3288,2.4675,2.5792,2.6602,2.7044,2.7552,2.8159,2.9228,2.977,2.9817,3.0937,3.1821,3.2455,3.267,3.3139,3.3779,3.4431,3.4823,3.4991,3.4816,3.4885,3.5051,3.4233,3.381,3.3749,3.4619,3.4792,3.4743,3.5745,3.6026,3.5993,3.6301,3.609,3.59,3.6791,3.7554,3.8448,3.9805,4.0677,4.1348,4.207,4.2267,4.2246,4.2019,4.1892,4.1719,4.13,4.1116,4.092,4.0552,4.1461,4.2072,4.1494,4.231,4.2711,4.1915,4.1402,4.0535,3.9057,3.8944,3.8532,3.736,3.8188,3.917,0.0,4.1277,4.221,4.2899,4.4121,4.4999,4.5462,4.7763,4.8968,4.8983,5.1137,5.2261,5.2306,5.2261,5.217,5.2124,5.1665,5.1354,5.1073,5.0677,5.0453,5.0342,4.9878,4.9781,4.9844,4.9585,4.9285,4.8942,4.9077,4.8759,4.8205,0.0,0.0,0.0,0.0,0.0,0.0,0.0,0.0,0.0,0.0,0.0,0.0,0.0,0.0,0.0,0.0,0.0,0.0,0.0,2.1376,2.2234,2.2971,2.383,2.4863,2.6039,2.6048,2.6436,2.7272,2.7758,2.8203,2.8582,2.9494,3.0185,3.0672,3.1066,3.1506,3.2037,3.3326,3.3858,0.0,0.0,3.4464,3.4408,3.3608,3.3078,3.293,3.4166,3.4812,3.5177,3.5825,3.582,3.5571,3.5649,3.5712,3.595,3.6964,3.766,3.8413,3.9859,4.0696,4.1386,4.2213,4.2101,4.177,4.1711,4.1588,4.1396,4.1034,4.1011,4.0913,4.0485,4.1236,4.1816,4.1357,4.2059,4.2429,4.1736,4.1204,4.0346,3.8925,3.8918,3.865,3.7672,3.8408,3.9124,3.9642,4.1015,4.2217,4.3009,4.4141,4.4967,4.5463,4.7248,4.8561,4.9383,5.1149,5.2124,5.2306,5.2231,5.2185,5.2139,5.1772,5.1448,5.1182,0.0,5.0567,5.0453,5.0038,4.9878,4.9926,4.9781,4.946,4.916,4.9254,4.8886,4.8326,0.0,0.0,0.0,0.0,0.0,0.0,0.0,0.0,0.0,0.0,0.0,0.0,0.0,0.0,0.0,0.0,0.0,0.0,0.0,0.0,2.137,2.2924,2.3068,2.38,2.5376,2.5341,2.5677,2.6428,2.6427,2.6808,2.7566,2.8332,2.8762,2.8891,2.9781,3.0187,3.0284,3.2081,3.2811,3.2832,3.3658,3.4066,3.4088,0.0,3.2521,3.2147,3.3826,3.4989,3.5791,3.6322,3.6304,3.6027,3.5797,3.596,3.6379,3.7109,3.7627,3.8327,3.9788,4.0685,4.1343,4.2085,4.1717,4.1133,4.1087,4.1096,4.0963,4.0595,4.1025,4.1305,4.071,4.1239,4.1682,4.1453,4.1797,4.1901,4.1407,4.0685,3.9791,3.8667,3.8605,3.8508,3.8077,3.8975,3.9601,3.9686,4.0743,4.2081,4.3704,4.4428,4.5153,4.5893,4.6734,4.8203,5.0265,5.1018,5.162,5.217,5.2063,5.1987,5.2033,5.1787,5.1541,5.1276,5.0964,0.0,5.0416,5.0202,4.9931,4.965,4.9786,4.9349,4.8702,4.9265,4.8763,4.7906,0.0,0.0,0.0,0.0,0.0,0.0,0.0,0.0,0.0,0.0,1.6827,1.7373,0.0,0.0,0.0,0.0,0.0,0.0,0.0,0.0,0.0,2.296,2.3677,2.4487,2.5378,2.5388,2.5428,2.5538,2.5534,2.5605,2.5754,2.5952,2.6414,2.7099,2.807,2.8498,2.8558,3.0318,3.1041,3.1057,3.1278,3.1813,3.2427,3.156,0.0,0.0,3.2929,3.4506,3.5869,3.6337,3.626,3.6103,3.7082,3.7215,3.7111,3.7701,3.7927,3.8166,3.8941,3.9748,4.0432,4.0577,4.0989,4.1205,4.067,4.103,4.1403,4.1114,4.1517,4.1735,4.1169,4.1383,4.1619,4.1577,4.1747,4.1799,4.1575,4.1376,4.076,3.9367,3.9988,4.0064,3.8828,3.9444,4.0136,0.0,4.1399,4.2181,4.3124,4.392,4.5027,4.6577,4.6608,4.7625,4.9631,5.0005,5.0614,5.1401,5.1787,5.2063,5.2215,5.2017,5.1895,5.1849,5.1354,0.0,5.0016,5.0312,4.9956,4.9311,5.0221,5.0272,4.9844,5.0154,4.9737,4.8942,0.0,0.0,0.0,0.0,0.0,0.0,0.0,1.7257,1.6513,1.6538,1.6177,1.6415,1.7714,1.7889,1.8415,0.0,0.0,0.0,0.0,0.0,0.0,0.0,2.317,2.3994,2.4805,2.5232,2.5644,2.6023,0.0,2.5624,2.603,2.5625,2.5637,2.6007,2.6525,2.673,2.6838,2.9036,2.9706,2.9379,3.0325,3.0716,3.0648,0.0,0.0,0.0,3.2182,3.3716,3.5265,3.5847,3.6389,3.6882,3.71,3.7646,3.818,3.819,3.8236,3.849,3.9552,3.9788,3.986,4.0348,4.0384,4.0257,4.0038,4.0528,4.0961,4.0757,4.1534,4.2011,4.1418,4.1505,4.1546,4.1191,4.1324,4.1384,4.1053,4.083,4.0471,3.9976,3.9884,3.98,3.9693,3.9686,4.0095,4.1081,4.1725,4.2421,4.3207,4.4046,4.4926,4.5775,4.6268,4.7055,4.8203,4.9057,4.9912,5.072,5.1297,5.1726,5.1941,5.1818,5.1695,5.1556,5.1308,0.0,5.0392,5.0576,5.0232,4.9681,5.0386,5.0327,4.9926,5.0038,4.9529,4.8753,0.0,0.0,0.0,0.0,0.0,0.0,0.0,1.6839,1.639,1.6195,1.5639,1.5578,1.6443,1.7338,1.8222,0.0,0.0,0.0,0.0,0.0,0.0,0.0,0.0,0.0,2.4275,0.0,0.0,2.6439,2.5805,0.0,0.0,0.0,0.0,0.0,2.5677,2.5672,2.5679,2.8103,2.8751,0.0,0.0,3.0172,0.0,0.0,0.0,0.0,0.0,3.3017,3.4442,3.5335,3.6312,3.7111,3.6626,3.767,3.898,3.8383,3.8334,3.8723,3.9868,3.9729,3.9423,4.0051,3.978,3.9381,3.9418,4.0046,4.0581,4.0438,4.1391,4.208,4.1561,4.1377,4.121,4.0771,4.093,4.0986,4.0546,4.0356,4.0253,4.0322,3.978,3.9706,4.0416,4.0034,0.0,4.156,4.2362,4.3065,4.3652,4.4468,4.4963,4.4956,4.5802,4.6476,4.6923,4.8174,4.9242,5.0164,5.0807,5.1261,5.1541,5.1572,5.1448,5.1214,5.1308,0.0,0.0,5.0843,5.0606,5.0026,5.0279,5.0114,4.9737,4.9475,4.8934,4.8273,0.0,0.0,0.0,0.0,0.0,0.0,0.0,1.6353,1.6031,1.5245,1.5068,1.5353,1.6233,1.7199,1.8146,0.0,0.0,0.0,0.0,0.0,0.0,0.0,0.0,0.0,0.0,0.0,0.0,2.5611,2.5534,0.0,0.0,0.0,0.0,0.0,0.0,2.6269,2.571,2.7542,0.0,0.0,0.0,0.0,0.0,0.0,0.0,0.0,0.0,3.2659,3.3657,3.5184,3.5616,3.5569,3.5941,3.7464,3.8897,3.7886,3.7927,3.8342,3.8489,3.8861,3.9118,3.87,3.9095,3.9453,3.8992,4.0008,4.0978,4.079,4.1288,4.175,4.1676,4.0849,4.0289,4.063,4.0776,4.0756,4.0531,4.0979,4.102,4.0137,4.0816,4.1207,4.0802,4.0773,4.1319,4.2721,4.3965,4.4531,4.4345,4.5018,4.535,4.5071,4.5407,4.5984,4.6819,4.755,4.8489,4.9592,5.0416,5.0964,5.1261,5.1494,5.1448,5.1214,5.1695,0.0,0.0,5.1114,5.0762,4.9572,4.9836,5.0003,4.994,4.877,4.8323,4.8206,0.0,0.0,0.0,0.0,0.0,0.0,1.6215,1.5765,1.5327,1.4991,1.4946,1.5094,1.5484,1.6308,1.7217,1.8143,0.0,0.0,0.0,0.0,0.0,0.0,0.0,0.0,0.0,0.0,2.556,2.5564,2.5554,0.0,0.0,0.0,0.0,0.0,0.0,2.5893,2.5707,2.7469,0.0,0.0,0.0,0.0,0.0,0.0,0.0,0.0,0.0,0.0,3.2596,3.3154,3.4214,3.522,3.4762,3.6069,3.7724,3.7456,3.7872,3.8494,3.8751,3.8753,3.8622,3.8441,3.8766,3.9071,3.891,3.9676,4.0375,4.0178,4.0543,4.0957,4.107,4.0451,3.9932,3.9914,3.9951,3.9897,3.9482,3.9928,4.0289,4.0248,4.0429,4.0613,4.0724,0.0,4.0781,4.2295,4.3844,4.4763,4.4899,4.5152,4.5325,4.5353,4.5309,4.568,4.641,4.7126,4.7907,4.8909,4.9651,5.0263,5.0772,5.0899,5.1041,5.1214,5.1261,0.0,0.0,5.1084,5.0732,4.9777,5.0256,5.033,5.0028,4.9516,4.8752,4.8027,0.0,0.0,0.0,0.0,0.0,1.5625,1.564,1.5189,1.4834,1.4808,1.4771,1.4785,1.4891,1.5376,1.6,1.6773,1.7382,0.0,0.0,0.0,0.0,0.0,0.0,0.0,0.0,0.0,2.5626,2.5609,2.5593,2.5598,0.0,0.0,2.5596,2.56,0.0,0.0,0.0,0.0,0.0,0.0,0.0,0.0,0.0,0.0,0.0,0.0,0.0,0.0,0.0,0.0,0.0,3.4416,3.4116,3.5139,3.654,3.6918,3.7522,3.8204,3.9008,3.89,3.8569,3.8747,3.8954,3.9068,3.8947,3.9478,3.9945,3.9733,3.9889,4.0182,4.0656,4.0131,3.9571,3.941,3.9479,3.9363,3.8688,3.9023,3.9619,4.0382,4.0025,4.0091,4.103,4.0821,4.0967,4.1765,4.3534,4.4687,4.4917,4.4974,4.5098,4.5322,4.5317,4.5522,4.5932,4.6825,4.7621,4.8245,4.9085,4.9687,5.0096,5.0253,5.0476,5.0681,5.0473,0.0,0.0,5.0709,5.0495,4.9802,5.0428,5.047,5.0124,4.949,4.8628,4.7912,0.0,0.0,0.0,0.0,0.0,0.0,1.4613,1.4656,1.4682,1.4611,1.4498,1.4474,1.4672,1.4591,1.4594,1.4804,1.6528,0.0,0.0,0.0,0.0,0.0,0.0,0.0,0.0,0.0,2.5673,2.5608,2.559,2.5607,2.5599,2.5592,2.5607,2.5601,0.0,0.0,0.0,0.0,0.0,0.0,0.0,0.0,0.0,0.0,0.0,0.0,0.0,0.0,0.0,0.0,0.0,0.0,0.0,3.5075,3.5558,3.6209,3.6644,3.7268,3.888,3.9193,3.9175,3.9586,3.9729,3.9651,3.912,3.9523,3.9945,3.9733,3.9453,3.9553,4.0689,3.9845,3.9059,3.9276,3.9589,3.9478,3.8535,3.8683,3.9318,4.0473,3.9839,4.0046,4.1882,4.2553,4.2451,4.1477,4.3394,0.0,4.4332,4.4479,4.4709,4.4894,4.5346,4.5491,4.5317,4.677,4.7507,4.7627,4.8864,4.9375,4.9139,4.9654,4.9747,0.0,0.0,0.0,0.0,4.9975,5.008,4.9389,5.0048,5.0381,5.0217,4.8014,4.7461,4.7782,0.0,0.0,0.0,0.0,0.0,0.0,0.0,1.4481,1.4491,1.453,1.4444,1.4457,1.4605,1.46,1.4601,1.4728,1.5369,0.0,0.0,0.0,0.0,0.0,0.0,0.0,0.0,0.0,2.5077,2.5601,2.499,2.5013,2.5599,2.5599,2.5598,2.56,2.5608,2.5782,0.0,0.0,0.0,0.0,0.0,0.0,0.0,0.0,0.0,0.0,0.0,0.0,0.0,0.0,0.0,0.0,0.0,0.0,0.0,3.5188,3.6076,3.6884,3.7236,3.7792,3.8329,3.8483,3.8715,3.8865,3.8704,3.8885,3.9009,3.8684,3.8292,3.8417,3.9648,3.9172,3.8751,3.9224,3.9274,3.8971,3.8167,3.8427,3.9033,3.988,4.0067,3.9975,0.0,0.0,4.1383,4.0754,4.2299,0.0,4.4459,4.4178,4.4548,4.5834,4.5548,4.5968,4.7121,4.7427,4.773,4.803,4.8267,4.8424,4.8419,4.8448,4.8837,0.0,0.0,0.0,0.0,5.0075,4.9972,4.8953,5.0347,5.0941,5.0872,4.9825,4.9113,4.8643,0.0,0.0,0.0,0.0,0.0,0.0,0.0,1.4264,1.4314,1.4386,1.4338,1.4356,1.4545,1.4539,1.456,1.4639,1.5043,0.0,0.0,0.0,0.0,0.0,0.0,0.0,0.0,2.3906,2.4145,2.4655,2.4111,2.4115,2.4638,2.4961,2.5111,2.5154,2.5492,2.5833,0.0,0.0,0.0,0.0,0.0,0.0,2.6663,0.0,0.0,0.0,0.0,0.0,0.0,0.0,0.0,0.0,0.0,0.0,0.0,0.0,3.5115,3.6026,3.6754,3.7399,3.7971,3.8346,3.8623,3.8731,3.8471,3.8382,3.8285,3.8,3.7578,3.7598,3.8646,3.8099,3.7814,3.8779,3.8502,3.8189,3.8287,3.8242,3.8391,3.8833,3.9856,0.0,0.0,4.0295,4.12,4.0237,4.1867,0.0,4.3603,4.3498,4.4098,4.5484,4.5304,4.5811,4.7065,4.7268,4.7551,4.7878,4.7867,4.7835,4.779,4.7697,4.8009,0.0,0.0,0.0,0.0,4.9668,4.9716,4.855,5.0681,5.1308,5.0996,5.0443,4.9805,4.9048,0.0,0.0,0.0,0.0,0.0,0.0,0.0,1.4049,1.4116,1.4179,1.4139,1.4198,1.4447,1.4435,1.4478,1.4666,0.0,0.0,0.0,0.0,0.0,0.0,0.0,0.0,0.0,2.3017,2.3047,2.3096,2.3042,2.3019,2.303,2.3895,2.4331,2.4434,2.5313,2.6181,0.0,0.0,0.0,0.0,0.0,0.0,0.0,0.0,0.0,0.0,0.0,0.0,0.0,0.0,0.0,0.0,0.0,0.0,0.0,0.0,0.0,0.0,0.0,3.7721,3.7918,3.8851,3.912,3.9026,3.8386,3.8,0.0,3.7685,3.7245,3.7123,3.7845,3.6877,3.6504,3.8144,3.753,3.7338,3.8663,3.8224,3.7764,3.7757,3.937,3.9868,3.8378,4.0718,4.1603,3.9942,4.1917,0.0,4.208,4.2698,4.3433,4.4246,4.478,4.5273,4.5705,4.6637,4.7178,4.7352,4.7732,4.7688,4.7265,4.7386,4.7356,0.0,0.0,0.0,0.0,4.8909,4.9283,4.8179,5.0879,5.1494,5.078,5.0154,4.9651,4.911,0.0,0.0,0.0,0.0,0.0,0.0,0.0,0.0,0.0,0.0,1.4085,1.4145,1.425,1.4355,1.4709,0.0,0.0,0.0,0.0,0.0,0.0,0.0,0.0,0.0,2.2109,2.2107,2.2437,2.3105,2.2431,2.2431,2.31,2.3977,2.4388,2.4433,2.5309,2.6187,0.0,0.0,0.0,0.0,0.0,0.0,0.0,0.0,0.0,0.0,2.9032,2.9791,0.0,0.0,0.0,0.0,0.0,0.0,0.0,0.0,3.4022,3.4618,3.5759,0.0,3.6916,3.763,3.7954,3.8026,0.0,3.7739,3.7632,3.73,3.7013,3.7236,3.8559,3.7034,3.6415,3.9169,3.8401,3.7723,3.8353,3.8965,3.9315,3.916,3.9814,3.9833,3.8671,3.9713,4.0247,3.983,0.0,4.2218,4.2518,4.333,4.3842,4.4072,4.4989,4.593,4.6869,4.7653,4.7939,4.7852,4.8025,4.7971,4.7732,4.719,4.733,0.0,0.0,0.0,4.624,4.866,4.9085,4.8387,5.0344,5.1199,5.1371,5.0785,5.0411,4.9993,0.0,0.0,0.0,0.0,0.0,0.0,0.0,0.0,0.0,0.0,0.0,0.0,0.0,0.0,0.0,0.0,0.0,0.0,0.0,0.0,0.0,0.0,0.0,2.1013,2.1158,2.1197,2.1422,2.1905,2.1426,2.1441,2.1927,2.3216,2.3802,2.3859,2.5127,2.5961,0.0,0.0,0.0,0.0,2.6809,0.0,0.0,0.0,0.0,0.0,2.8904,2.9553,0.0,3.1707,3.2442,3.2856,0.0,0.0,0.0,0.0,3.4552,3.5055,3.5714,3.6485,3.7184,3.7542,3.7917,3.8114,3.7811,3.7558,3.7424,3.7623,3.7379,3.7561,3.8806,3.7405,3.6819,3.9242,3.8437,3.7665,3.8034,3.8661,3.9009,3.873,3.895,3.9045,0.0,3.9386,3.9803,3.9789,0.0,4.1743,4.2231,4.3078,4.3676,4.4005,4.5135,4.6211,4.7098,4.7297,4.7676,4.8248,4.7889,4.7688,4.7552,4.7159,4.7051,0.0,0.0,0.0,4.6193,4.813,4.8505,4.7985,5.0061,5.0951,5.1042,5.1141,5.0817,5.0149,0.0,0.0,0.0,0.0,0.0,0.0,0.0,0.0,0.0,0.0,0.0,0.0,0.0,0.0,0.0,0.0,0.0,0.0,0.0,0.0,0.0,0.0,0.0,2.0271,2.0404,2.0463,2.0485,2.0501,2.0496,2.0504,2.0541,2.2285,2.3242,2.3574,2.5172,2.5904,0.0,0.0,0.0,0.0,2.6632,0.0,0.0,0.0,0.0,0.0,0.0,0.0,0.0,3.2079,3.2833,3.2966,3.4367,0.0,0.0,0.0,0.0,0.0,3.6361,3.729,3.8042,3.7793,3.8221,3.854,3.7882,3.7298,3.7178,3.8088,3.7944,3.7953,3.8981,3.7841,3.736,3.912,3.8338,3.77,3.8153,3.8238,3.8165,3.7976,3.8063,0.0,3.8847,3.9503,3.9892,0.0,0.0,4.1463,4.1638,4.2519,4.3288,4.3989,4.5139,4.6175,4.6944,4.6661,4.7175,4.8531,4.7788,4.7422,4.7457,4.7351,4.6863,4.6116,0.0,0.0,4.6029,4.7614,4.7925,4.7576,4.9704,5.0501,5.0497,5.1132,5.0876,5.0046,0.0,0.0,0.0,0.0,0.0,0.0,0.0,0.0,0.0,0.0,0.0,0.0,0.0,0.0,0.0,0.0,0.0,0.0,0.0,0.0,0.0,2.0019,2.0125,2.0262,2.0402,2.0404,2.0446,2.0494,2.0504,2.0501,2.053,2.2271,2.3881,2.5332,2.6343,2.6802,2.6868,0.0,0.0,0.0,0.0,0.0,0.0,0.0,0.0,0.0,0.0,0.0,0.0,3.2127,3.2922,3.3107,3.4459,0.0,0.0,0.0,0.0,0.0,3.7005,3.8029,3.8672,3.7307,3.7637,3.8068,3.7169,3.6771,3.6876,3.7912,3.7947,3.8216,3.9665,3.8121,3.7454,3.9974,3.937,3.8925,3.9929,3.913,3.8723,3.9463,0.0,3.9197,3.9308,3.9921,4.029,0.0,0.0,4.1406,4.1448,4.2418,4.3324,4.399,4.4536,4.5611,4.7216,4.734,4.7716,4.8341,4.8327,4.8397,4.8637,4.8165,4.7583,4.7029,0.0,4.6782,4.6027,4.7497,4.8087,4.8099,4.8475,4.9631,5.0973,5.0385,5.0178,4.9971,0.0,0.0,0.0,0.0,0.0,0.0,0.0,0.0,0.0,0.0,0.0,0.0,0.0,0.0,0.0,0.0,0.0,0.0,0.0,0.0,0.0,1.9993,2.0084,2.0184,2.0292,2.0356,2.0624,2.1089,2.0666,2.0692,2.1183,2.2485,2.3777,2.5038,2.5917,2.63,2.6327,2.6735,0.0,0.0,0.0,0.0,0.0,0.0,0.0,0.0,0.0,0.0,0.0,0.0,3.2531,3.3084,3.4414,0.0,0.0,0.0,0.0,0.0,3.6862,3.7677,3.8259,3.7259,3.8113,3.8864,3.771,3.7638,3.7987,3.8655,3.8656,3.8843,3.972,3.9248,3.9047,4.0024,3.9521,3.9113,3.9424,3.8862,3.8702,0.0,0.0,3.933,3.938,3.9728,0.0,0.0,0.0,0.0,4.1924,4.2616,4.3292,4.3978,4.4415,4.5191,4.6368,4.6985,4.7788,4.8776,4.8683,4.8602,4.8525,4.8094,4.7605,4.6978,0.0,4.6648,4.6463,4.7181,4.7444,4.7505,4.8055,4.8951,4.9924,4.9554,4.9389,4.9194,0.0,0.0,0.0,0.0,0.0,0.0,0.0,0.0,0.0,0.0,0.0,0.0,0.0,0.0,0.0,0.0,0.0,0.0,0.0,0.0,1.9855,1.9982,2.0068,2.0126,2.0199,2.032,2.0685,2.1299,2.0876,2.1146,2.2025,2.2762,2.3577,2.4431,2.5312,2.57,2.5691,2.5707,2.5698,0.0,0.0,0.0,0.0,0.0,0.0,0.0,0.0,0.0,0.0,0.0,0.0,0.0,0.0,0.0,0.0,3.7128,3.7061,3.6908,3.6879,3.7177,3.7434,3.7038,3.8267,3.9373,3.8554,3.8447,3.8715,3.9434,3.9461,3.9491,3.9842,4.0313,4.043,3.9683,3.9478,3.9241,3.8727,3.8596,3.8791,3.9344,3.9458,3.9481,3.9548,3.9758,0.0,0.0,0.0,0.0,4.232,4.2586,4.3146,4.4118,4.4051,4.4567,4.5756,4.6417,4.7466,4.885,4.892,4.863,4.8043,4.7989,4.7439,4.6592,4.6616,4.6645,4.6637,4.6976,4.7004,4.687,4.7657,4.8312,4.8833,4.9035,4.888,4.8528,0.0,0.0,0.0,0.0,0.0,0.0,0.0,0.0,0.0,0.0,0.0,0.0,0.0,0.0,0.0,0.0,0.0,0.0,0.0,0.0,1.9862,1.9988,2.0054,2.0135,2.0197,2.0262,2.0348,2.0382,2.1153,2.1997,2.2902,2.3031,2.3573,2.443,2.5311,2.5703,2.5699,2.5699,2.5697,2.5691,0.0,0.0,0.0,0.0,0.0,0.0,0.0,0.0,0.0,0.0,0.0,0.0,0.0,0.0,3.7151,3.6981,3.7091,3.7314,3.7558,3.7021,3.6364,3.6221,3.7262,3.853,3.9317,3.8353,3.7878,3.9752,3.9993,4.0006,4.0452,4.0885,4.0641,3.9104,3.9587,3.9825,3.8892,0.0,3.933,3.9175,3.9825,4.023,4.0051,0.0,0.0,0.0,0.0,0.0,4.2267,4.1964,4.2623,4.4499,4.2824,4.3283,4.6122,4.6047,4.6546,4.7731,4.8881,4.8837,4.7656,4.82,4.7528,4.6011,4.7359,4.7214,4.604,4.7265,4.7364,4.6824,4.687,4.7585,4.8574,4.9107,4.8994,4.8528,0.0,0.0,0.0,0.0,0.0,0.0,0.0,0.0,0.0,0.0,0.0,0.0,0.0,0.0,0.0,0.0,0.0,0.0,0.0,1.9757,1.9836,1.9936,1.9998,2.0054,2.0079,2.0178,2.0504,2.1047,2.1427,2.1794,2.2208,2.282,2.3544,2.4383,2.529,2.5703,2.5697,2.57,2.6011,2.6452,2.5928,2.6016,0.0,0.0,0.0,0.0,0.0,0.0,0.0,0.0,3.1647,3.3034,3.385,3.553,3.725,3.7467,3.7133,3.6662,3.6652,3.6734,3.6852,3.7041,3.8069,3.9037,3.9147,3.9328,3.96,3.999,4.0358,4.0713,4.1087,4.1183,4.0955,4.0224,4.0256,4.0233,3.9744,3.9578,3.9539,3.9696,4.0496,4.0899,4.052,0.0,0.0,0.0,0.0,0.0,4.2694,4.245,4.2839,4.4139,4.3171,4.3444,4.5123,4.5483,4.6216,4.7372,4.9245,4.9218,4.7642,4.8643,4.8351,4.7131,4.7858,4.7739,4.7117,4.7342,4.7194,4.6838,4.7099,4.7464,4.7777,4.8134,4.8344,4.8341,0.0,0.0,0.0,0.0,0.0,0.0,0.0,0.0,0.0,0.0,0.0,0.0,0.0,0.0,0.0,0.0,0.0,0.0,1.9591,1.9707,1.98,1.9873,1.9922,1.998,1.998,2.0065,2.043,2.1084,2.1185,2.1517,2.2094,2.2777,2.3525,2.4342,2.5278,2.57,2.5703,2.5703,2.6035,2.6537,2.5935,2.6067,0.0,0.0,0.0,0.0,0.0,0.0,0.0,0.0,3.0883,3.2624,3.3413,3.4954,3.6575,3.7088,3.6739,3.6207,3.6402,3.6669,3.7094,3.7828,3.8786,3.9505,3.939,3.9801,4.0229,4.0383,4.0769,4.1127,4.1304,4.1276,4.1136,4.0984,4.0954,4.0769,4.024,4.0121,4.0085,3.9997,4.0717,4.1086,4.0816,0.0,0.0,0.0,0.0,0.0,0.0,4.2566,4.2869,4.4238,4.3355,4.3308,4.4375,4.5006,4.5696,4.65,4.8644,4.8916,4.7642,4.8688,4.8439,4.7262,4.8013,4.794,4.7233,4.7342,4.7243,4.7024,4.7227,4.7451,4.7709,4.7785,4.788,4.7964,0.0,0.0,0.0,0.0,0.0,0.0,0.0,0.0,0.0,0.0,0.0,0.0,0.0,0.0,0.0,0.0,0.0,0.0,1.9394,1.9587,1.9738,1.9801,1.9855,1.989,1.9909,1.9906,2.0,2.0193,2.033,2.1242,2.2892,2.3028,2.3532,2.4339,2.5286,2.5701,2.5707,2.5707,2.5696,2.5703,2.5703,2.5703,2.5719,0.0,0.0,0.0,0.0,0.0,0.0,0.0,3.0975,3.1859,3.3334,3.43,3.502,3.5623,3.584,3.6117,3.7106,3.697,3.6873,3.8333,3.9164,3.975,4.0272,3.9536,3.9227,4.096,4.125,4.115,4.1023,4.1125,4.1164,4.1105,4.1546,4.146,4.027,4.0869,4.0971,3.9844,4.0308,4.0773,0.0,0.0,0.0,0.0,0.0,0.0,0.0,4.2209,4.2538,4.5024,4.3075,4.2705,4.4167,4.4613,4.4827,4.4922,4.6838,4.7712,4.7612,4.8231,4.7545,4.5996,4.7898,4.7637,4.5996,4.7245,4.7685,4.7435,4.7081,4.7581,4.8571,4.8362,4.788,4.7381,0.0,0.0,0.0,0.0,0.0,0.0,0.0,0.0,0.0,0.0,0.0,0.0,0.0,0.0,0.0,0.0,0.0,0.0,1.9328,1.9562,1.9699,1.9738,1.9751,1.9751,1.9694,1.9829,1.9979,2.0135,2.0223,2.0852,2.2007,2.2699,2.3485,2.433,2.528,2.5705,2.5707,2.5707,2.6051,2.6561,2.5957,2.6074,2.6555,0.0,0.0,0.0,0.0,0.0,0.0,0.0,0.0,0.0,3.2676,3.4177,3.5606,3.5656,3.5871,3.6087,3.6072,3.6662,3.7404,3.8,3.9421,4.062,4.0433,4.0387,4.0692,4.1716,4.139,4.1119,4.1716,4.1484,4.1301,4.1671,4.1394,4.1008,4.0622,4.0523,4.0237,3.9578,3.9924,4.0343,0.0,0.0,0.0,0.0,0.0,0.0,0.0,4.2467,4.2639,4.4003,4.3267,4.3065,4.348,4.4063,4.4776,4.559,4.6337,4.6738,4.6933,4.8694,4.8602,4.7061,4.7963,4.7785,4.6791,4.6567,4.6723,4.7052,4.6947,4.7312,4.7895,4.804,4.7837,4.7553,0.0,0.0,0.0,0.0,0.0,0.0,0.0,0.0,0.0,0.0,1.7483,0.0,0.0,0.0,0.0,0.0,0.0,0.0,0.0,1.9456,1.9585,1.9625,1.9628,1.9616,1.9589,1.9738,1.9887,2.0011,2.0164,2.0711,2.1624,2.2557,2.3462,2.4344,2.5253,2.5687,2.5701,2.5701,2.6009,2.6444,2.5917,2.6016,2.6439,0.0,0.0,0.0,0.0,0.0,0.0,0.0,0.0,0.0,3.2371,3.3675,3.5068,3.5536,3.5955,3.6344,3.6805,3.7739,3.8722,3.9245,4.017,4.0946,4.0841,4.1081,4.1469,4.1796,4.1736,4.172,4.19,4.1638,0.0,4.2162,4.1626,4.1165,4.1163,4.0754,4.0224,3.96,3.9745,4.0097,0.0,0.0,0.0,0.0,0.0,0.0,0.0,4.2337,4.2567,4.3661,4.3315,4.3142,4.3142,4.3672,4.4263,4.4978,4.5343,4.5974,4.6903,4.8558,4.8545,4.7154,4.7325,4.7291,4.6978,4.6427,4.6344,4.6675,4.703,4.7372,4.7657,4.8076,4.7978,4.7669,0.0,0.0,0.0,0.0,0.0,0.0,0.0,0.0,0.0,0.0,1.7737,1.7592,0.0,0.0,0.0,0.0,0.0,0.0,0.0,0.0,1.9424,1.9475,1.9493,1.9513,1.9594,1.9667,1.977,1.9896,2.0139,2.0688,2.1502,2.2514,2.3426,2.4224,2.5174,2.5632,2.5689,2.571,2.5709,2.5703,2.5703,2.5703,2.5699,2.5699,0.0,0.0,0.0,0.0,0.0,0.0,0.0,0.0,3.2321,3.3058,3.3959,3.5364,3.6001,3.6677,3.849,3.9453,4.022,4.1227,4.1209,4.1018,4.1437,4.1772,4.1898,4.1563,4.227,4.269,4.1798,4.1635,4.1843,4.2515,4.2064,4.1638,4.1684,4.1254,4.0631,3.9774,3.9642,0.0,0.0,0.0,0.0,0.0,0.0,0.0,0.0,4.1918,4.2304,4.3732,4.3252,4.2918,4.286,4.3329,4.3545,4.3546,4.4281,4.55,4.7146,4.8005,4.7743,4.6579,4.6328,4.6426,4.6785,4.6652,4.6458,4.6322,4.7224,4.7627,4.7686,4.841,4.8241,4.7761,0.0,0.0,0.0,0.0,0.0,0.0,0.0,0.0,0.0,0.0,0.0,0.0,0.0,0.0,0.0,0.0,0.0,0.0,0.0,0.0,1.9329,1.9338,1.9387,1.945,1.9519,1.9641,1.9745,1.9823,2.0031,2.0292,2.0622,2.2246,2.3109,2.3353,2.4909,2.5611,2.5619,2.5672,2.5698,2.5699,2.5702,2.5699,2.5705,2.5705,2.5928,0.0,0.0,0.0,0.0,0.0,0.0,0.0,3.2386,3.341,3.4526,3.526,3.5841,3.6486,3.7748,3.8507,3.9211,4.0355,4.1209,4.1886,4.2467,4.3063,4.3431,4.3039,4.2703,4.2588,4.2728,4.1922,4.1544,4.244,4.1778,4.1268,4.1654,4.1001,4.0258,3.9706,3.9322,0.0,0.0,0.0,0.0,0.0,0.0,0.0,4.1415,4.1285,4.1698,4.269,4.2737,4.2456,4.1766,4.3334,4.3774,0.0,4.4982,4.6062,4.6459,4.7162,4.7217,4.6729,4.634,4.6342,4.6653,4.6609,4.666,4.6826,4.7395,4.7704,4.7927,4.865,4.8602,4.8219,0.0,0.0,0.0,0.0,0.0,0.0,0.0,0.0,0.0,0.0,0.0,0.0,0.0,0.0,0.0,0.0,0.0,0.0,0.0,0.0,1.92,1.9289,1.9364,1.9457,1.9597,1.9656,1.9751,1.9854,2.0011,2.038,2.0897,2.2307,2.2979,2.3087,2.4829,2.5391,2.5048,2.5475,2.5663,2.5697,2.5698,2.5944,2.628,2.5854,2.6466,2.7571,2.7998,0.0,0.0,0.0,0.0,0.0,0.0,0.0,3.4781,3.5371,3.5798,3.6387,3.7662,3.8654,3.9663,4.0867,4.1614,4.2236,4.2892,4.3597,4.4232,4.4719,4.4105,4.3394,4.3074,4.2213,4.1748,4.2428,4.1753,4.1326,4.1898,4.1339,4.0476,3.9624,3.9353,0.0,0.0,0.0,0.0,0.0,0.0,4.076,4.0746,4.1157,4.1653,4.2176,4.2607,4.2632,4.2172,4.2999,4.3392,4.3456,4.4458,4.5345,4.606,4.6635,4.6867,4.6795,4.6368,4.6182,4.6152,4.6696,4.6738,4.6527,4.7807,4.8183,4.8216,4.9204,4.9087,4.8503,0.0,0.0,0.0,0.0,0.0,0.0,0.0,0.0,0.0,0.0,0.0,0.0,0.0,0.0,0.0,0.0,0.0,0.0,0.0,0.0,0.0,1.9113,1.9331,1.9508,1.968,1.9713,1.9769,1.9894,2.0015,2.0656,2.1735,2.253,2.3029,2.3298,2.4906,2.5247,2.467,2.5328,2.5644,2.5699,2.5693,2.6131,2.6703,2.5966,2.7082,2.8975,2.8333,2.9078,3.0391,3.0383,0.0,0.0,0.0,0.0,3.4883,3.5536,3.581,3.6237,3.7666,3.9064,4.0358,4.1528,4.1995,4.2326,4.2966,4.3855,4.4879,4.6026,4.5408,4.4366,4.3456,4.2586,4.2119,4.2427,4.183,4.1526,4.2088,4.1589,4.0728,3.9536,0.0,0.0,0.0,0.0,0.0,0.0,0.0,4.0426,4.0271,4.0979,4.1534,4.1937,4.2535,4.2917,4.2955,4.2684,4.3013,4.3864,4.3892,4.46,4.5925,4.6284,4.6518,4.6521,4.6149,4.5859,4.5676,4.6731,4.6692,4.6153,4.8028,4.8523,4.8335,4.9434,4.9374,4.8771,0.0,0.0,0.0,0.0,0.0,0.0,0.0,0.0,0.0,0.0,1.7635,0.0,0.0,0.0,0.0,0.0,0.0,0.0,1.8716,0.0,0.0,1.8364,1.9142,1.9597,1.9614,1.9732,1.9819,1.9896,1.9979,2.09,2.262,2.2821,2.3331,2.4168,2.523,2.5637,2.5526,2.5638,2.5684,2.5695,2.5698,2.5768,2.5864,2.5738,2.634,2.7312,2.7886,2.8698,2.9571,3.0185,3.1542,0.0,0.0,0.0,3.5069,3.5611,3.5717,3.5919,3.7165,3.8526,3.9852,4.0885,4.1803,4.2491,4.2722,4.4435,4.5945,4.5756,4.508,4.4568,4.4691,4.3266,4.2135,4.2307,4.184,4.1528,4.1678,4.0934,4.0105,3.9406,0.0,0.0,0.0,0.0,0.0,0.0,3.9841,3.9651,3.9598,3.9891,4.0566,4.1686,4.2198,4.2564,4.2729,4.3028,4.3337,4.3632,4.4726,4.5481,4.588,4.597,4.5798,4.542,4.5376,4.5427,4.562,4.6211,4.6339,4.6341,4.7371,4.7757,4.7772,4.8325,4.8835,4.9105,0.0,0.0,0.0,0.0,0.0,0.0,0.0,0.0,0.0,0.0,0.0,1.7681,0.0,0.0,0.0,1.818,1.8015,1.7975,1.8128,1.7934,1.8129,1.883,1.8867,1.9142,1.9707,1.9769,1.9847,1.9963,2.002,2.0995,2.2798,2.2879,2.3674,2.5112,2.6029,2.643,2.6469,2.6953,2.6872,2.6437,2.6433,2.6696,2.7046,2.6564,2.7471,2.9059,2.9304,2.9641,3.009,3.0814,3.1885,3.2857,3.2646,0.0,0.0,0.0,3.4997,3.528,3.686,3.8128,3.9352,4.0849,4.1784,4.2516,4.3254,4.4442,4.5505,4.579,4.5362,4.4835,4.4697,4.3361,4.2382,4.2706,4.2207,4.1897,4.2184,4.1565,4.0736,3.9784,0.0,0.0,0.0,0.0,0.0,0.0,3.966,3.9446,3.9112,4.0022,4.0778,4.134,4.2248,4.2713,4.2688,4.2611,4.2849,4.3457,4.4854,4.564,4.588,4.5503,4.5506,4.5741,4.5741,4.5856,4.6044,4.6619,4.681,4.6772,4.7754,4.8138,4.8228,4.8685,4.8835,4.8686,0.0,0.0,0.0,0.0,0.0,0.0,0.0,0.0,0.0,0.0,0.0,0.0,0.0,0.0,0.0,0.0,1.7582,1.7329,1.7425,1.7165,1.7556,1.8763,1.8518,1.8709,1.948,1.9703,1.9873,1.9998,2.0045,2.0899,2.2488,2.2759,2.388,2.5703,2.6599,2.6882,2.6745,2.7832,2.7651,2.6692,2.7357,2.7707,2.7866,2.7831,2.9003,3.0672,3.0693,3.0885,3.1193,3.1725,3.2445,3.3087,3.2904,3.3812,0.0,0.0,0.0,3.4618,3.6261,3.7323,3.8365,4.0048,4.1209,4.2189,4.3245,4.4141,4.5018,4.5896,4.564,4.5126,4.4685,4.3495,4.2669,4.2944,4.2447,4.2163,4.2439,4.1888,4.1045,4.0019,0.0,0.0,0.0,0.0,0.0,0.0,3.9502,3.9346,3.907,4.0104,4.0837,4.1163,4.2135,4.2706,4.2775,4.2613,4.2839,4.3399,4.4809,4.5553,4.5619,4.5111,4.52,4.5713,4.561,4.5752,4.607,4.6591,4.6819,4.6989,4.7925,4.829,4.8306,4.867,4.8566,4.8267,0.0,0.0,0.0,0.0,0.0,0.0,0.0,0.0,0.0,0.0,0.0,0.0,1.7601,1.7833,1.7983,1.7916,1.753,1.7117,1.6697,1.7403,1.7643,1.7238,1.8037,0.0,1.8663,1.9464,1.9936,1.9998,1.9991,2.0547,2.1585,2.2424,2.3818,2.5647,2.6586,2.6543,2.5877,2.7577,2.7285,2.5874,2.8294,2.8359,2.7206,2.9458,3.043,3.0697,3.1311,0.0,0.0,0.0,0.0,3.3911,3.3845,3.4401,3.5057,0.0,0.0,0.0,3.511,3.5812,3.6511,3.7617,3.9542,4.1313,4.1888,4.3503,4.5111,4.5924,4.5721,4.5328,4.5198,4.4015,4.2976,4.2666,4.2334,4.206,4.1961,4.1048,4.0166,3.957,0.0,0.0,0.0,0.0,0.0,0.0,3.9286,3.9099,3.9711,3.9648,4.0134,4.1349,4.1611,4.2162,4.2976,4.3717,4.39,4.3589,4.4885,4.5322,4.4937,4.4908,4.472,4.4367,4.3992,4.4401,4.5352,4.5394,4.5878,4.6677,4.7171,4.7354,4.7354,4.7399,4.7773,4.8192,0.0,0.0,0.0,0.0,0.0,0.0,0.0,0.0,0.0,0.0,0.0,0.0,0.0,1.7698,1.7822,1.7816,1.75,1.7294,1.7307,1.6706,1.6793,1.7754,1.7665,1.7917,1.8587,1.9449,1.9939,1.9998,2.004,2.0565,2.1511,2.1864,2.3011,2.4855,2.6877,2.7907,2.8228,2.9394,2.9211,2.8175,2.9104,2.9399,2.932,2.9606,3.0354,0.0,0.0,0.0,0.0,0.0,0.0,3.4545,3.397,3.4651,3.55,3.467,3.413,3.3964,3.4712,3.5621,3.6559,3.7419,3.9132,4.0742,4.1313,4.253,4.3714,4.4364,4.4716,4.48,4.454,4.3853,4.3204,4.2959,4.2555,4.2222,4.2061,4.1416,4.0575,0.0,0.0,0.0,0.0,0.0,0.0,0.0,0.0,3.9328,3.9604,3.9914,4.049,4.1353,4.1902,4.2409,4.2977,4.3429,4.3814,4.4266,4.528,4.5442,4.4879,4.4487,4.4312,4.4235,4.3431,4.398,4.5539,4.6269,4.6683,4.6821,4.7161,4.7309,4.7309,4.7309,4.7459,4.7623,0.0,0.0,0.0,0.0,0.0,0.0,0.0,0.0,0.0,1.7517,0.0,0.0,0.0,0.0,1.7693,1.7575,1.7646,1.7717,1.773,1.655,1.6565,1.8133,1.7523,1.7587,1.8587,1.9484,1.9961,2.0024,2.0084,2.0441,2.1071,2.1417,2.2378,2.3921,2.6286,2.7648,2.8289,2.9746,2.9682,2.8741,3.0162,3.0659,3.0586,3.1062,0.0,0.0,0.0,0.0,0.0,0.0,0.0,0.0,3.4737,3.4902,3.5285,3.4376,3.3972,3.389,3.4164,3.4977,3.5931,3.6631,3.8077,3.9607,4.066,4.1607,4.2541,4.3534,4.399,4.4165,4.4088,4.37,4.3312,4.3052,4.2618,4.2206,4.198,4.1317,4.0573,0.0,0.0,0.0,0.0,0.0,0.0,0.0,0.0,0.0,3.9475,4.0003,4.0708,4.1624,4.1816,4.2214,4.2851,4.2996,4.3581,4.4627,4.5396,4.5442,4.4864,4.4269,4.3992,4.3928,4.3313,4.4042,4.5794,4.6332,4.6718,4.7019,4.7077,4.7179,4.7309,4.7207,4.7207,4.7309,0.0,0.0,0.0,0.0,0.0,0.0,0.0,0.0,1.7647,1.7522,0.0,0.0,0.0,0.0,0.0,1.7174,1.7969,1.8311,1.7853,1.7083,1.71,1.8151,1.7585,1.7654,1.8587,1.9514,2.0031,2.0107,2.0098,2.0121,2.0216,2.1073,2.1972,2.2982,2.4734,2.5551,2.5767,2.8362,2.8535,2.7412,3.149,3.2098,3.0912,0.0,0.0,0.0,3.4944,3.6008,0.0,3.6464,0.0,0.0,3.6266,3.5233,3.4328,3.3998,3.3895,3.382,0.0,0.0,0.0,3.5023,3.6274,3.7866,3.9779,4.0695,4.1654,4.3537,4.3622,4.3495,4.3925,4.3684,4.3298,4.2978,4.2461,4.198,4.1621,4.0676,3.9957,0.0,0.0,0.0,0.0,0.0,0.0,0.0,3.9046,3.9032,3.949,3.9901,4.0728,4.2049,4.1409,4.1511,4.2581,4.2601,4.3284,4.4627,4.5201,4.5293,4.4864,4.4269,4.3759,4.3343,4.3563,4.4551,4.5921,4.5283,4.5915,4.7251,4.6815,4.6902,4.7266,4.7019,4.7062,4.7309,0.0,0.0,0.0,0.0,0.0,0.0,1.7491,1.7526,1.7537,0.0,0.0,0.0,1.7577,1.78,1.7924,1.791,1.8315,1.8571,1.8592,1.7926,1.7712,1.8118,1.8039,1.8193,1.8587,1.9481,1.9974,2.0107,2.0098,2.0131,2.0203,2.0493,2.1436,2.291,2.3468,2.4419,2.5734,2.7729,2.9342,3.0624,3.1014,3.2692,0.0,0.0,0.0,0.0,0.0,3.4871,3.623,0.0,3.6318,3.7812,0.0,3.5374,3.4136,3.3895,3.3834,3.378,3.3506,0.0,0.0,0.0,0.0,0.0,0.0,0.0,4.0049,4.1808,4.2298,4.2696,4.3747,4.3522,4.3262,4.3457,4.2639,4.1784,4.1305,4.0613,3.9895,0.0,0.0,0.0,0.0,0.0,0.0,0.0,3.9535,3.963,3.9304,4.0259,4.1207,4.2063,4.1564,4.1724,4.2667,4.2777,4.3403,4.4627,4.5201,4.5293,4.4864,4.4269,4.3859,4.3593,4.3175,4.3953,4.552,4.5834,4.636,4.7019,4.7077,4.7179,4.7309,4.7207,4.7251,4.7309,0.0,0.0,0.0,0.0,0.0,1.7417,1.7372,1.738,1.7444,0.0,0.0,0.0,1.7715,1.7889,1.8081,1.8229,1.8489,1.8725,1.8923,1.8284,1.8132,1.8657,1.846,1.8572,1.909,1.9656,1.998,2.0059,2.0103,2.0162,2.0192,2.0269,2.1252,2.2937,2.3015,2.4009,2.5705,2.6698,2.8569,3.0912,3.131,0.0,0.0,3.4909,3.5496,0.0,0.0,0.0,3.7307,3.6411,3.7023,0.0,0.0,0.0,3.5049,3.4371,3.4532,3.4715,3.3759,3.4253,3.4981,0.0,0.0,0.0,3.7392,3.8079,3.8877,0.0,4.0602,4.1071,4.2027,4.1968,4.2024,4.2759,4.1789,4.1051,4.128,4.0693,4.0024,0.0,0.0,0.0,0.0,3.8719,3.8703,3.895,3.9409,3.9735,3.9876,4.0242,4.0873,4.1805,4.1042,4.108,4.2122,4.2292,4.3,4.4285,4.5006,4.5257,4.5123,4.4342,4.399,4.3919,4.2993,4.3563,4.5209,4.5612,4.6271,4.7062,4.7033,4.7135,4.7309,4.7164,4.7207,4.7309,0.0,0.0,1.6901,1.701,1.71,1.7183,1.7276,1.7296,1.7344,0.0,1.7624,1.7743,1.7861,1.7955,1.8085,1.827,1.8547,1.8798,1.9002,1.8415,1.8496,1.9467,1.8872,1.8921,1.9793,1.993,2.0007,2.0016,2.0121,2.0197,2.0215,2.0367,2.1365,2.3012,0.0,2.4163,2.5711,2.5825,2.7205,2.9496,3.1885,3.3505,0.0,0.0,3.6887,3.7608,3.7328,3.823,3.9481,3.8742,3.8265,0.0,0.0,0.0,0.0,0.0,3.5498,0.0,0.0,0.0,0.0,0.0,0.0,0.0,3.7554,3.7777,3.7899,0.0,3.8643,3.8926,3.9564,3.9696,4.0091,4.1347,4.0373,3.9961,4.1299,4.0646,3.9954,0.0,0.0,0.0,3.9373,3.9228,3.9031,3.8819,3.898,3.9572,4.0775,3.9985,4.0075,4.1276,4.0158,4.0053,4.1082,4.1381,4.2197,4.3522,4.4445,4.5061,4.5304,4.4342,4.4006,4.4133,4.2919,4.3372,4.4986,4.4986,4.5886,4.7266,4.6858,4.6946,4.7266,4.7019,4.7121,4.7309,0.0,1.6499,1.6591,1.6686,1.6751,1.6895,1.7183,1.7269,1.7368,1.7554,1.7641,1.771,1.7749,1.7944,1.8117,1.8208,1.8603,1.8896,1.8984,1.902,1.918,1.9485,1.9406,1.9526,1.986,1.9909,2.0003,2.0155,2.0127,2.0168,2.0304,2.1004,2.1936,2.3029,2.3805,2.473,2.5773,2.7061,0.0,2.9365,3.1162,3.4437,3.8208,3.8026,3.8992,4.0204,3.8501,3.8602,3.9483,3.9149,3.8513,3.7798,0.0,0.0,0.0,3.519,0.0,0.0,0.0,0.0,0.0,0.0,0.0,0.0,3.4783,3.5484,3.6319,0.0,3.6566,3.6955,3.8662,3.8659,3.8869,4.0309,3.9127,3.8667,4.0616,3.9443,3.8648,3.9361,0.0,0.0,3.9096,3.9265,3.9177,3.8819,3.8819,3.9483,4.0944,4.0229,4.0077,4.0803,4.0284,3.9945,3.9839,4.0688,4.1312,4.1639,4.2993,4.386,4.4284,4.3544,4.3308,4.3447,4.2728,4.3275,4.4704,4.4887,4.5886,4.7309,4.7222,4.7222,4.7309,4.7251,4.7251,4.7384,1.6303,1.6328,1.6394,1.6396,1.6543,1.6725,1.6962,1.7105,1.7296,1.7566,1.7595,1.7676,1.7872,1.7992,1.8166,1.8467,1.9237,1.9549,1.9168,1.9745,1.9959,1.966,1.9642,1.9732,1.9953,1.9944,2.0,2.0098,2.0136,2.0177,2.0225,2.1157,2.2078,2.2997,2.3972,2.5272,2.6773,2.7184,2.8521,3.051,3.1755,0.0,3.6044,3.6915,3.7799,3.8516,3.8252,3.8702,3.9445,3.9367,3.8702,0.0,0.0,3.7095,3.6306,0.0,3.5249,3.5487,0.0,0.0,0.0,3.4449,0.0,0.0,0.0,3.4988,3.5269,3.5635,3.5252,3.5347,3.6988,3.6963,3.7195,3.8668,3.7883,3.7648,3.9217,3.846,3.7874,3.8337,0.0,0.0,3.8713,3.8439,3.8344,3.857,3.8911,3.9572,4.0696,3.9929,3.972,4.0218,3.9618,3.9179,3.8851,4.0185,4.0858,4.093,4.2609,4.3574,4.3791,4.3602,4.3528,4.3656,4.3335,4.3666,4.4494,4.4945,4.5676,4.6514,4.7088,4.7207,4.7121,4.7251,4.7309,4.7399,1.6208,1.622,1.6246,1.622,1.6396,1.6623,1.6776,1.709,1.7449,1.7778,1.7667,1.7772,1.831,1.8218,1.8368,1.8975,1.9959,2.0278,1.9597,2.0413,2.0759,2.0345,1.9945,1.991,2.0271,2.0101,2.003,2.0039,2.0144,2.0265,2.0386,2.1384,2.2311,2.3214,2.4352,2.598,2.782,2.7317,0.0,3.1936,0.0,3.3234,3.3633,3.579,3.6642,3.6844,3.8032,3.8852,3.9407,3.9458,3.8919,3.817,3.7909,3.7359,0.0,0.0,0.0,0.0,0.0,0.0,0.0,0.0,0.0,3.5456,0.0,0.0,0.0,3.476,3.4206,3.4014,3.5036,0.0,0.0,0.0,0.0,0.0,0.0,3.6902,0.0,3.7083,0.0,0.0,3.7683,3.7009,3.6975,3.7958,3.8577,3.9176,3.9798,3.9414,3.932,3.9668,3.8928,3.8426,3.8093,3.9562,4.0367,4.0506,4.2224,4.3185,4.3401,4.3603,4.3762,4.3805,4.3892,4.4065,4.4309,4.4996,4.5375,4.5564,4.6766,4.7077,4.6887,4.7164,4.7266,4.7283,1.6151,1.6109,1.6165,1.6274,1.6355,1.6503,1.6751,1.7581,1.8284,1.862,1.8148,1.8171,1.9223,1.8858,1.8886,1.9803,2.0431,0.0,2.0477,0.0,2.1405,2.2157,2.0719,2.0318,2.122,2.0489,2.0126,2.0176,2.0188,2.0593,2.1361,2.2319,2.3243,2.4207,2.5809,2.7104,2.8106,0.0,3.0394,0.0,3.3647,3.4904,0.0,3.7945,3.8893,3.9448,3.9368,3.9377,3.9389,0.0,3.9221,3.8943,0.0,3.8151,3.7354,3.6249,0.0,0.0,0.0,0.0,0.0,0.0,3.5407,0.0,0.0,0.0,3.5187,3.3498,0.0,0.0,0.0,0.0,0.0,0.0,0.0,0.0,3.3294,3.3696,3.4553,3.5912,3.5738,0.0,0.0,3.491,3.526,3.6611,3.6895,3.7211,3.7719,3.8775,3.9294,3.9172,3.8914,3.8418,3.7686,3.8537,3.9237,3.9667,4.0629,4.1621,4.2544,4.2678,4.2881,4.3137,4.3502,4.3806,4.408,4.4967,4.5157,4.5128,4.6446,4.68,4.6683,4.7135,4.7033,4.6904,1.6012,1.6055,1.6109,1.6122,1.6246,1.6575,1.7266,1.8392,1.896,1.8358,1.8438,1.8872,1.9702,0.0,0.0,0.0,0.0,2.2262,0.0,0.0,2.2218,2.266,2.0972,2.0485,2.15,2.0617,2.0174,2.0193,2.0237,2.0688,2.1513,2.2458,2.3373,2.4319,2.6033,0.0,3.0098,0.0,3.2217,0.0,0.0,0.0,0.0,3.7452,3.8348,3.8975,3.9927,3.9889,3.9481,0.0,3.9391,0.0,0.0,0.0,0.0,0.0,0.0,0.0,0.0,0.0,0.0,0.0,0.0,0.0,3.4725,0.0,3.3985,0.0,0.0,0.0,0.0,0.0,0.0,0.0,3.2884,0.0,0.0,0.0,3.2738,0.0,0.0,0.0,0.0,0.0,0.0,0.0,3.5535,3.6019,3.6806,3.7749,3.8281,3.833,3.8627,3.8352,3.7419,3.851,3.9192,3.9519,4.0596,4.1601,4.2421,4.2827,4.2992,4.3021,4.3603,4.3892,4.4051,4.4515,4.4792,4.4996,4.5814,4.6255,4.6403,4.6887,4.7169,4.754,1.5928,1.5984,1.6039,1.6039,1.6219,1.6723,1.7826,1.9075,1.9579,1.8761,1.9211,0.0,2.0789,2.0763,0.0,0.0,2.3303,2.364,0.0,0.0,2.3321,0.0,0.0,0.0,0.0,2.118,2.0588,2.0607,2.043,2.0873,2.1939,2.2602,2.3657,2.5019,0.0,2.888,3.1276,0.0,3.3475,3.609,3.6522,3.6553,3.6397,3.7157,3.7926,3.8727,4.0034,4.0033,3.9511,4.0137,3.9429,0.0,3.8209,0.0,0.0,0.0,0.0,0.0,3.6054,0.0,0.0,0.0,0.0,0.0,0.0,0.0,0.0,0.0,0.0,0.0,0.0,0.0,0.0,0.0,0.0,3.2376,0.0,3.1373,0.0,0.0,0.0,0.0,0.0,0.0,0.0,3.3517,3.3683,3.4272,3.5389,3.6573,3.7346,3.7686,3.8478,3.8449,3.7572,3.8567,3.932,3.9812,4.0806,4.1758,4.257,4.3092,4.3217,4.312,4.366,4.395,4.4008,4.4326,4.4705,4.504,4.5551,4.5947,4.6254,4.6668,4.7155,4.7716,1.5928,1.5899,1.5957,1.6067,1.6328,1.6934,1.8275,1.94,0.0,0.0,0.0,0.0,0.0,0.0,0.0,0.0,0.0,2.4355,2.4962,0.0,2.4848,0.0,0.0,2.3151,0.0,0.0,2.1596,2.1649,2.0809,2.1263,2.2957,2.2983,2.4355,2.6886,2.8499,2.9732,3.0727,3.2152,3.3791,3.5494,3.6368,3.7582,3.8786,0.0,3.8496,3.9743,3.9735,0.0,0.0,3.9432,3.9224,0.0,0.0,0.0,0.0,0.0,0.0,0.0,0.0,0.0,0.0,3.631,0.0,0.0,0.0,0.0,3.4916,0.0,0.0,0.0,0.0,0.0,0.0,0.0,0.0,0.0,0.0,0.0,0.0,0.0,0.0,0.0,0.0,0.0,2.9861,3.0937,3.1016,3.1535,3.2749,3.5294,3.6925,3.7396,3.8508,3.8797,3.8165,3.859,3.9348,4.0471,4.0911,4.1748,4.297,4.3201,4.3301,4.3303,4.3517,4.3762,4.4037,4.4618,4.5055,4.5361,4.5947,4.6195,4.621,4.6506,4.6694,4.7063,1.6386,1.6311,1.6193,1.6274,1.6474,1.7104,0.0,2.0634,0.0,0.0,0.0,0.0,0.0,2.295,2.3579,0.0,0.0,2.4995,2.5228,2.4527,0.0,0.0,0.0,2.3106,0.0,0.0,0.0,0.0,2.1405,2.2153,2.3865,2.4456,2.55,2.6992,0.0,3.0714,0.0,0.0,0.0,0.0,0.0,3.7955,3.9802,0.0,0.0,3.8995,3.9419,3.9508,0.0,3.997,3.9662,3.9078,3.9078,3.898,3.8816,3.841,3.8261,0.0,0.0,0.0,3.7817,3.7899,0.0,0.0,0.0,0.0,0.0,0.0,0.0,0.0,0.0,0.0,0.0,0.0,0.0,0.0,0.0,0.0,0.0,0.0,0.0,0.0,0.0,0.0,0.0,2.9886,2.9663,3.0075,3.1319,3.2916,3.4482,3.6052,3.7094,3.7747,3.8,3.8523,3.937,4.051,4.1065,4.198,4.321,4.3152,4.2945,4.2687,4.2629,4.3125,4.3964,4.3875,4.4574,4.5666,4.558,4.5711,4.6015,4.6269,4.6912,4.8041,1.6292,1.6425,1.6434,1.6436,0.0,0.0,0.0,0.0,0.0,0.0,2.2123,0.0,2.3333,0.0,2.4511,0.0,2.5312,2.5498,2.5813,2.5062,0.0,2.6125,2.4738,0.0,0.0,0.0,0.0,0.0,0.0,2.2922,2.4352,2.4906,2.597,2.7497,0.0,3.1163,3.215,3.4964,3.5715,0.0,0.0,3.8205,0.0,0.0,3.8791,3.9014,0.0,3.9483,3.9481,3.9885,3.9593,3.9073,3.9369,3.9311,3.911,3.9004,3.8869,3.8651,3.8093,3.8001,0.0,3.8218,3.7718,0.0,3.6701,0.0,0.0,0.0,0.0,0.0,0.0,0.0,0.0,0.0,0.0,0.0,0.0,2.8558,0.0,0.0,0.0,0.0,0.0,2.871,2.8768,2.8764,2.8509,2.897,0.0,0.0,3.3531,3.5512,3.6869,3.7721,3.8113,3.8944,3.9756,4.051,4.1418,4.2374,4.329,4.3076,4.2795,4.2514,4.2434,4.3007,4.3964,4.389,4.472,4.5972,4.5594,4.5696,4.6001,4.609,4.7134,4.8886,1.5759,1.6291,0.0,0.0,1.865,0.0,0.0,0.0,2.2909,0.0,2.3397,2.3923,2.5118,2.5289,2.533,2.5391,2.5464,2.5845,2.6683,2.5948,0.0,0.0,2.6106,2.5624,2.5703,0.0,0.0,0.0,0.0,0.0,2.4467,2.4511,2.5858,2.8315,2.9979,0.0,3.2068,3.5314,3.5794,3.461,3.7005,3.8396,3.9031,3.8764,3.9129,3.977,3.9585,3.9464,3.9373,3.928,3.9119,3.908,3.984,3.9202,3.8301,3.9043,3.8385,3.7449,3.7631,3.7649,3.7539,3.7407,0.0,0.0,0.0,0.0,3.5883,0.0,0.0,0.0,0.0,0.0,0.0,0.0,0.0,0.0,0.0,0.0,0.0,0.0,0.0,0.0,0.0,2.7389,2.763,2.76,2.7604,2.8271,0.0,0.0,3.3846,3.5682,3.7533,3.845,3.8376,3.9632,4.0337,4.048,4.1921,4.2881,4.329,4.3115,4.289,4.2777,4.2911,4.3355,4.4081,4.4618,4.5375,4.618,4.597,4.6015,4.6225,4.6044,4.7375,4.9539,1.6778,1.6955,1.7014,0.0,1.9087,2.0619,0.0,0.0,0.0,0.0,2.3225,2.3467,2.4317,2.4931,2.5348,2.5453,2.541,0.0,0.0,0.0,0.0,2.6802,2.605,2.5634,2.5703,2.4843,0.0,2.4398,0.0,0.0,2.5379,2.6035,2.6698,2.7448,0.0,3.0947,3.1265,3.3992,3.5942,3.7268,3.8349,3.9237,0.0,0.0,3.9566,3.9544,3.8721,3.8838,3.9468,3.9821,3.9841,3.9746,3.9967,3.9557,3.8916,3.864,3.8077,3.7558,3.7613,3.743,3.7384,3.8022,3.7543,3.6986,0.0,0.0,0.0,0.0,0.0,0.0,0.0,0.0,0.0,0.0,0.0,0.0,0.0,0.0,0.0,2.7038,0.0,0.0,2.7194,2.773,2.7914,2.763,2.7698,2.801,2.8631,0.0,0.0,3.3592,3.4901,3.5933,3.662,3.8015,3.901,3.9653,4.1044,4.2406,4.3596,4.317,4.3156,4.3384,4.2663,4.321,4.4632,4.4342,4.4923,4.597,4.5925,4.615,4.6565,4.6916,4.8014,4.9479,1.6782,1.7022,0.0,1.7432,0.0,0.0,2.0442,2.1288,0.0,2.3474,2.3131,0.0,2.4567,2.5116,2.5414,2.5495,2.5464,0.0,2.5391,0.0,0.0,2.6805,2.604,2.5996,2.6813,2.5604,0.0,2.5497,0.0,0.0,2.5704,2.6209,2.6639,2.71,0.0,3.0683,3.1538,3.396,3.6452,3.875,3.8535,3.9135,0.0,3.9788,3.9601,3.942,3.8734,3.8833,3.9346,3.9597,3.9593,3.9531,3.9853,3.94,3.872,3.863,3.8062,3.7466,3.7466,3.7298,3.7214,3.7729,3.7404,3.7038,3.7318,3.7564,3.7525,0.0,0.0,0.0,0.0,0.0,0.0,0.0,0.0,0.0,0.0,0.0,0.0,0.0,2.6922,0.0,2.7044,2.7308,2.7509,2.759,2.7724,2.8006,0.0,0.0,0.0,3.3184,3.4296,3.537,3.6512,3.826,3.9302,3.9596,4.1194,4.243,4.3265,4.2905,4.3016,4.351,4.2894,4.3498,4.4908,4.4749,4.5245,4.6015,4.6015,4.6269,4.6683,4.72,4.8328,4.9778,1.6525,0.0,0.0,0.0,0.0,0.0,0.0,2.0489,0.0,2.3651,0.0,2.3252,2.5284,2.5483,2.5495,2.5513,0.0,2.5517,2.5418,2.5506,2.6028,2.7009,2.6222,2.6625,2.8429,2.6866,2.6387,0.0,0.0,0.0,2.5875,2.5754,2.6109,2.6891,0.0,0.0,0.0,3.4607,3.7002,3.9231,3.8183,3.8718,4.0071,3.9663,3.952,3.9541,3.9342,3.9235,3.9188,3.9165,3.9058,3.9086,3.9843,3.9278,3.8468,3.8923,3.8329,3.7496,3.7351,3.7203,3.7069,3.697,3.6851,3.6693,3.6485,3.6509,3.6803,3.7623,3.7411,3.7707,0.0,0.0,0.0,0.0,0.0,0.0,0.0,0.0,0.0,0.0,0.0,0.0,0.0,0.0,2.7158,2.7684,2.786,0.0,0.0,0.0,0.0,3.3532,3.4457,3.5621,3.7063,0.0,3.9896,3.9701,4.1576,4.2574,4.2648,4.2459,4.2787,4.3418,4.3257,4.3859,4.4967,4.5302,4.5742,4.621,4.6254,4.6447,4.6727,4.7207,4.8555,5.022,1.7778,0.0,0.0,0.0,0.0,1.9647,1.9372,2.0093,2.1473,2.3687,2.3026,2.3138,2.5275,2.5444,2.546,2.5579,2.5499,0.0,0.0,0.0,0.0,2.7812,2.711,2.7511,2.9334,2.8375,2.7918,0.0,0.0,0.0,2.6752,0.0,2.5772,2.6003,0.0,0.0,3.3207,3.4924,0.0,3.8443,3.8615,3.9279,4.0129,3.9667,3.9902,4.0454,4.0244,3.9737,3.9263,3.9756,3.9874,3.9979,4.0666,4.0648,4.0259,3.9598,3.9084,3.8509,3.7626,3.7203,3.697,3.6806,3.6568,3.6364,3.6272,3.6297,3.6398,3.6558,3.7162,3.7623,3.7478,0.0,0.0,0.0,0.0,0.0,0.0,0.0,0.0,0.0,0.0,2.947,0.0,0.0,0.0,0.0,0.0,0.0,0.0,0.0,0.0,0.0,3.2991,0.0,0.0,0.0,3.7859,3.8606,4.0481,4.1744,4.2474,4.2433,4.3036,4.4074,4.3021,4.3535,4.5128,4.4889,4.5331,4.6254,4.6609,4.6931,4.7207,4.7709,4.9044,5.0626,1.8306,0.0,0.0,0.0,0.0,0.0,0.0,2.073,0.0,2.3172,2.2834,2.3259,2.5326,2.5129,2.5026,2.5502,2.5107,2.5011,2.543,2.5487,2.6304,2.806,2.7381,0.0,3.0174,2.896,2.8499,2.8923,0.0,0.0,0.0,0.0,0.0,2.773,0.0,3.1235,0.0,0.0,0.0,3.8197,3.8255,3.9039,4.0158,4.0219,4.0134,4.0066,4.036,3.9909,3.93,3.9933,4.0141,4.0154,4.0483,4.0793,4.0809,3.984,3.9331,3.8852,3.7718,3.7147,3.6851,3.6664,3.6377,3.6148,3.6084,3.6187,3.6251,3.6251,3.6964,3.7607,3.762,3.7774,0.0,0.0,0.0,0.0,0.0,0.0,0.0,0.0,0.0,0.0,0.0,0.0,0.0,0.0,0.0,0.0,0.0,0.0,0.0,0.0,0.0,0.0,0.0,0.0,0.0,3.8306,4.0304,4.1553,4.2049,4.2049,4.2598,4.3583,4.2869,4.3368,4.4762,4.5276,4.5997,4.68,4.7149,4.7409,4.7681,4.7922,4.913,5.0697,0.0,1.8693,0.0,0.0,1.9538,0.0,2.1019,2.1571,2.2214,2.3004,2.3021,2.3573,2.518,2.4726,2.4566,2.5206,2.4662,2.4658,2.5476,2.5573,2.6301,2.7859,2.7496,2.8289,3.0487,2.9231,2.8962,0.0,0.0,0.0,0.0,0.0,0.0,0.0,0.0,0.0,0.0,0.0,3.5896,3.8204,3.7899,3.872,4.0176,4.073,4.0409,3.9786,4.0527,4.0364,3.9866,4.0393,4.0418,4.0248,4.0404,4.0938,4.1312,4.0225,3.9739,3.9228,3.779,3.7129,3.6776,3.6523,3.6255,3.6041,3.5975,3.6079,3.6238,3.6393,3.7033,3.7715,3.822,3.8792,0.0,0.0,0.0,0.0,0.0,0.0,0.0,0.0,0.0,0.0,3.0241,0.0,0.0,0.0,0.0,0.0,0.0,0.0,0.0,0.0,0.0,3.2375,3.5587,0.0,3.7707,3.8413,4.0496,4.1549,4.1688,4.1688,4.2174,4.2921,4.2764,4.344,4.4778,4.6007,4.6894,4.7452,4.7709,4.7922,4.8049,4.8133,4.9258,5.0768,0.0,0.0,0.0,0.0,0.0,0.0,2.1302,2.2236,2.3242,2.4044,2.4158,2.4236,2.4485,2.4384,2.4343,2.4485,2.4377,2.4671,2.552,2.5596,2.6021,2.6979,2.7702,2.8574,2.9605,2.9469,2.98,0.0,0.0,0.0,0.0,0.0,0.0,0.0,0.0,0.0,0.0,3.4616,3.6018,3.8285,3.811,3.8927,4.0244,4.0794,4.0865,4.0759,4.145,4.1696,4.1747,4.1729,4.1253,4.0739,4.1352,4.2149,4.2586,4.133,4.0813,4.0178,3.8007,3.7243,3.6952,3.6377,3.6255,3.6195,3.5905,3.6014,3.6393,3.7063,3.7694,3.8105,3.805,3.8615,3.8622,0.0,0.0,0.0,0.0,0.0,3.3088,3.1742,0.0,0.0,0.0,3.1984,0.0,0.0,2.975,0.0,0.0,0.0,0.0,3.2771,0.0,3.3176,3.6619,3.7313,3.7977,3.8582,4.0672,4.1688,4.1688,4.1688,4.2062,4.2738,4.2696,4.3875,4.5899,4.6854,4.7467,4.7876,4.8313,4.8412,4.8286,4.8495,4.9581,5.0983,0.0,0.0,0.0,0.0,0.0,0.0,0.0,2.3201,2.417,2.4968,2.4652,2.4375,2.439,2.3907,2.3777,2.4297,2.3862,2.4114,2.5409,2.5556,2.599,2.6867,2.7739,2.8382,2.8769,2.976,2.9935,0.0,0.0,0.0,0.0,0.0,0.0,0.0,0.0,3.3345,3.5348,3.4283,3.555,3.8291,3.8099,3.8935,4.0326,4.0944,4.0753,4.0232,4.1036,4.1337,4.1343,4.1362,4.175,4.2312,4.258,4.3184,4.3442,4.1727,4.102,4.032,3.8115,3.7242,3.6796,3.6364,3.6255,3.617,3.5954,3.6058,3.6388,3.7038,3.7914,3.8642,3.8958,3.9328,3.9328,0.0,0.0,0.0,0.0,0.0,0.0,0.0,0.0,3.3693,0.0,3.2677,3.2274,3.2317,0.0,0.0,0.0,0.0,0.0,3.2553,0.0,3.3534,3.7119,3.7784,3.8384,3.8982,4.0553,4.1372,4.1523,4.1523,4.2062,4.3086,4.3681,4.479,4.6264,4.7124,4.7799,4.8339,4.8718,4.8774,4.8692,4.862,4.9623,5.1026,2.0173,0.0,2.0178,0.0,2.1296,2.2211,2.3226,2.4177,2.498,2.5564,2.5124,2.4678,2.4429,2.3847,2.3692,2.4222,2.3742,2.3991,2.5321,2.5506,2.5846,2.649,2.7369,0.0,2.7889,2.9079,2.9312,2.8589,2.9491,0.0,0.0,0.0,0.0,0.0,3.2883,3.3587,3.5449,3.4208,3.5481,3.8283,3.8112,3.8977,4.0407,4.1103,4.0718,3.9906,4.0729,4.1012,4.1024,4.1031,4.1956,4.3133,4.3307,4.3661,4.3642,4.1834,4.1215,4.063,3.8205,3.7344,3.7013,3.6496,3.6297,3.6187,3.6041,3.6294,3.6736,3.7251,3.8285,3.9202,3.9386,3.9621,3.9731,3.9521,0.0,0.0,0.0,0.0,0.0,0.0,3.4222,3.4242,3.4374,3.3852,3.3603,0.0,0.0,0.0,0.0,0.0,0.0,0.0,0.0,0.0,0.0,3.8267,3.9078,3.9682,4.0913,4.1595,4.1785,4.1785,4.2459,4.3658,4.4735,4.5803,4.6877,4.7781,4.8475,4.8908,4.9062,4.9103,4.9175,4.899,4.9835,5.1142,2.0331,2.0406,2.0738,2.1543,2.2401,2.3281,2.415,2.5077,2.5688,2.5702,2.5683,2.5351,2.4482,2.4381,2.4339,2.4208,2.4196,2.4523,2.5356,2.5452,2.5531,0.0,0.0,2.6985,2.6913,2.6992,2.7853,2.9486,0.0,0.0,3.0719,0.0,3.2013,3.2074,3.2905,3.3773,3.4609,3.4588,3.6013,3.8282,3.8235,3.908,4.0473,4.1218,4.0871,4.0089,4.084,4.1184,4.1276,4.1139,4.1764,4.2699,4.3315,4.3421,4.3037,4.1694,4.1638,4.1322,3.8239,3.7692,3.7749,3.6755,3.6402,3.6237,3.6041,3.6771,3.7575,3.791,3.8997,3.9665,3.8933,3.92,3.9495,3.9484,0.0,0.0,0.0,0.0,0.0,0.0,3.4963,3.6029,3.7136,3.5973,0.0,0.0,0.0,0.0,0.0,0.0,0.0,3.2658,3.4618,0.0,3.6886,3.8885,4.0185,4.0805,4.2079,4.2673,4.2673,4.2673,4.3271,4.4372,4.5692,4.6942,4.8053,4.9139,4.9597,4.9557,4.9356,4.9437,4.9611,4.9656,5.0379,5.1385,2.0458,2.0462,2.0749,2.1558,2.2429,2.3286,2.41,2.5067,2.5689,2.5643,2.5663,2.5583,2.5311,2.4761,2.4352,0.0,2.4312,2.4668,0.0,2.5523,2.5583,2.5598,2.6495,2.6718,2.6109,2.7792,2.8407,2.78,0.0,0.0,0.0,3.179,3.2275,3.2873,3.2561,3.3236,3.4561,3.3918,3.5456,3.8292,3.8235,3.9134,4.0538,4.0699,4.05,4.0242,4.1009,4.1654,4.2107,4.2007,4.2231,4.2644,4.3234,4.335,4.2991,4.1779,4.1749,4.1554,3.9212,3.8484,3.8278,3.7668,3.7474,3.7509,3.7727,3.8344,3.8848,3.871,3.9394,3.9919,3.9479,3.9681,4.0019,4.034,4.0061,0.0,0.0,0.0,0.0,0.0,3.6529,3.645,0.0,3.7393,0.0,0.0,0.0,0.0,0.0,0.0,0.0,0.0,3.6193,0.0,3.9803,4.0554,4.1247,4.1888,4.2306,4.2554,4.2701,4.3307,4.4101,4.5044,4.6217,4.7267,4.826,4.909,4.9396,4.9356,4.9184,4.9424,4.9874,4.9731,5.0561,5.1825,2.0494,2.0759,2.1237,2.201,2.2888,2.3772,2.4606,2.5278,2.5685,2.5644,2.5663,2.5699,2.5702,2.5215,0.0,2.4759,2.4814,2.5019,2.5431,2.5554,2.5611,2.564,2.6194,2.6252,2.5718,0.0,0.0,2.7458,2.9628,3.0954,3.1452,3.1452,3.1759,3.2308,3.1748,3.248,3.4046,3.3476,3.5195,3.8283,3.8227,3.9148,4.06,4.0473,4.0349,4.0311,4.0778,4.1253,4.1626,4.1498,4.151,4.1661,4.2266,4.2622,4.2667,4.2153,4.2274,4.2134,4.0184,3.9567,3.9363,3.8742,3.8509,3.8531,3.8987,3.9296,3.9429,3.9255,3.9687,3.9978,3.9581,3.9876,4.0265,4.0507,4.0341,4.0113,3.9938,0.0,0.0,0.0,0.0,0.0,0.0,3.8535,3.873,0.0,0.0,0.0,0.0,0.0,0.0,3.5583,3.7584,0.0,4.1096,4.145,4.21,4.3003,4.3003,4.3057,4.3203,4.4087,4.4913,4.5743,4.6854,4.7829,4.8698,4.9224,4.9477,4.9477,4.921,4.9563,5.0201,5.0128,5.0888,5.2036,2.0496,2.1199,0.0,0.0,2.3633,0.0,2.5391,2.5616,2.5698,2.5691,2.5701,2.5702,2.569,2.5702,2.5653,2.5515,0.0,0.0,0.0,2.5544,2.5634,2.5703,2.5699,2.5707,2.5693,2.5818,2.6697,2.8371,2.9934,3.0691,3.0697,3.0694,3.0694,3.0697,3.0766,3.1695,3.3204,3.3331,3.5243,3.8209,3.8211,3.9123,4.0503,4.0512,4.0417,4.0298,4.0301,4.0292,4.0243,4.0059,4.0076,4.0247,4.0808,4.1525,4.2269,4.2686,4.3098,4.2988,4.1124,4.081,4.0811,3.9926,3.9482,3.9394,3.9879,3.9749,3.9555,3.9656,3.9917,3.9985,3.9404,3.987,4.0263,4.0113,4.0213,3.9901,3.8757,0.0,0.0,0.0,0.0,0.0,0.0,3.9395,3.9659,0.0,0.0,0.0,0.0,0.0,3.7329,3.6816,3.8721,4.0216,4.1157,4.1745,4.2712,4.405,4.405,4.405,4.408,4.4946,4.5681,4.641,4.7518,4.8506,4.9316,4.9517,4.9677,4.9852,4.9484,4.9881,5.0626,5.0754,5.132,5.2175,0.0,0.0,2.184,2.1963,2.3317,2.4448,2.4643,2.526,2.5694,2.5704,2.5698,2.5702,2.5698,2.5703,2.5681,2.565,2.5661,2.5651,2.5639,2.566,2.5689,2.5704,2.5699,2.5704,2.5696,2.7009,2.8515,3.0174,3.0574,3.075,3.0691,3.0695,3.0698,3.073,3.1404,3.2273,3.3313,3.3942,3.5417,3.7352,3.7962,3.8782,3.9675,4.033,4.046,4.0384,4.1035,4.117,4.102,4.0932,4.1306,4.181,4.1763,4.232,4.3002,4.2901,4.3196,4.3273,4.1991,4.1487,4.1214,4.084,4.088,4.1007,4.1044,4.0868,4.0676,4.0612,4.0559,4.0507,4.0377,4.048,4.0453,4.0011,4.0238,4.0036,3.8844,3.8629,0.0,0.0,3.8391,3.8504,3.9614,3.9505,3.9664,0.0,0.0,0.0,0.0,3.993,3.9553,3.798,3.9613,4.1202,4.2601,4.2354,4.2974,4.4473,4.4473,4.4473,4.4488,4.5202,4.5996,4.6793,4.7639,4.8587,4.9517,4.9396,4.9477,4.97,4.9975,5.0409,5.0983,5.1478,5.2043,5.2543,2.0449,2.1175,2.1786,2.1708,2.3207,2.4401,2.4399,2.5139,2.5694,2.5707,2.57,2.5703,2.5696,2.5703,2.5703,2.5703,2.5699,2.5694,2.5691,2.5691,2.5692,2.5694,2.5707,2.5708,2.5698,2.7028,2.8535,3.0249,3.0627,3.0782,3.075,3.0753,3.0751,3.0778,3.1242,3.2137,3.3339,3.3762,3.5137,3.7075,3.7917,3.8696,3.9443,4.0277,4.0489,4.0407,4.0879,4.0931,4.08,4.1106,4.1487,4.193,4.2473,4.2921,4.3262,4.3375,4.3511,4.3471,4.2843,4.2322,4.1884,4.1581,4.1462,4.1408,4.1403,4.1267,4.1129,4.1129,4.0965,4.0823,4.0758,4.0728,4.0551,4.0062,3.991,3.9577,3.8734,3.8711,0.0,3.9335,3.9232,3.9548,4.0658,4.0258,4.0193,4.0784,4.052,0.0,3.9927,4.0507,4.0324,3.9104,4.0282,4.1725,4.3361,4.3552,4.4065,4.4852,4.4852,4.4814,4.4754,4.5758,4.6524,4.7083,4.8029,4.8882,4.9597,4.9477,4.9557,4.9749,4.9925,5.0258,5.0749,5.1417,5.1971,5.2445,2.0422,2.1174,2.174,2.1568,2.3116,2.4366,2.4216,2.5063,2.5691,2.5694,2.5703,2.5703,2.5692,2.5702,2.5703,2.5703,2.5703,2.5701,2.57,2.5702,2.5701,2.5696,2.5694,2.5753,2.5891,2.6871,2.8183,2.9809,3.0468,3.0809,3.079,3.0798,3.0793,3.081,3.1072,3.1971,3.3336,3.3576,3.4886,3.6891,3.789,3.8645,3.9297,4.0221,4.05,4.0408,4.0388,4.0253,4.0202,4.0783,4.1135,4.1567,4.2755,4.3238,4.3395,4.3828,4.3705,4.3399,4.3442,4.3031,4.251,4.2094,4.1648,4.1358,4.1565,4.1428,4.1347,4.1677,4.136,4.1035,4.0981,4.0844,4.061,4.029,3.9592,3.9011,3.8795,0.0,3.8994,3.9644,4.0049,4.0643,4.1638,4.1097,4.0825,4.1111,4.0715,4.0341,4.0049,4.0372,4.0404,4.005,4.0729,4.1912,4.3636,4.4736,4.5294,4.5257,4.5294,4.5213,4.5151,4.6408,4.7146,4.7489,4.8559,4.9266,4.9637,4.9597,4.9717,4.9908,4.9953,5.0191,5.0596,5.1392,5.1919,5.2321,2.0564,2.1224,2.1572,2.0886,2.278,2.4147,2.3412,2.4665,2.57,2.5694,2.5703,2.5703,2.57,2.5703,2.5703,2.5702,2.5703,2.5703,2.57,2.5702,2.5702,2.5702,2.5697,2.6048,2.6776,2.8378,2.9687,3.0703,3.0778,3.0792,3.0805,3.0798,3.0794,3.0852,3.2338,3.3141,3.3475,3.483,3.5635,3.612,3.7616,3.8247,3.8459,3.9937,4.0468,4.0388,4.028,4.0206,4.0166,3.9981,4.088,4.204,4.1987,4.2839,4.385,4.3756,4.312,4.255,4.3104,4.2919,4.2472,4.2019,4.1905,4.2013,4.2469,4.2033,4.1883,4.3086,4.2184,4.1285,4.1729,4.1206,4.0732,4.0839,3.9874,3.932,3.993,0.0,4.0123,4.0626,4.1173,4.1466,4.1395,4.0978,4.0859,4.1247,4.0941,4.0721,4.0658,4.0871,4.0784,4.0275,4.0798,4.1859,4.3431,4.4953,4.5625,4.5442,4.5625,4.5813,4.6024,4.6973,4.7761,4.8412,4.9012,4.9477,4.9836,4.9677,4.9717,5.0002,5.1186,5.1558,5.1617,5.2946,5.3333,5.3193,2.0494,2.0827,2.0978,2.0618,2.2298,2.3569,2.3162,2.4588,2.5701,2.57,2.5703,2.5703,2.5703,2.5703,2.5703,2.5702,2.5702,2.5702,2.5703,2.5703,2.5703,2.5703,2.57,2.6323,2.7672,2.8942,3.0018,3.0858,3.082,3.0801,3.0798,3.0795,3.0808,3.0855,3.2124,3.2932,3.342,3.4594,3.5333,3.5795,3.6963,3.7694,3.8168,3.9354,4.0044,4.0325,4.0244,4.0157,4.0124,4.0367,4.1227,4.2234,4.2481,4.3222,4.3939,4.373,4.3151,4.2577,4.2304,4.2287,4.2249,4.1934,4.1688,4.1571,4.1829,4.151,4.1377,4.2108,4.1927,4.1536,4.1299,4.1155,4.1052,4.0997,3.968,0.0,0.0,3.9858,3.9834,4.0128,4.1215,4.1819,4.1486,4.1199,4.1167,4.1598,4.1445,4.1283,4.1167,4.1596,4.1639,4.1159,4.1937,4.2836,4.3929,4.507,4.5552,4.5331,4.5662,4.5934,4.6218,4.7096,4.794,4.8804,4.9378,4.9717,4.9916,5.0089,5.0272,5.0548,5.1333,5.1644,5.1853,5.3102,5.3337,5.3095,2.0411,2.0639,2.0805,2.0792,2.224,2.3395,2.3397,2.4705,2.5701,2.5702,2.5703,2.5703,2.5702,2.5702,2.5681,2.5679,2.5698,2.5699,2.5678,2.5683,2.5703,2.5703,2.5898,2.6813,2.8567,2.9251,2.9994,3.0794,3.0794,3.0797,3.0801,3.08,3.0794,3.0852,3.1904,3.272,3.3358,3.4353,3.5107,3.566,3.6458,3.716,3.7839,3.8812,3.9547,4.0057,4.0158,4.0252,4.0368,4.0658,4.1372,4.2234,4.2752,4.3226,4.3622,4.3559,4.3086,4.2409,4.1566,4.1558,4.1714,4.1454,4.1119,4.0955,4.1445,4.1166,4.0981,4.1629,4.1885,4.1815,4.1155,4.1205,4.1383,4.1492,0.0,0.0,0.0,3.9991,3.9657,4.0016,4.1289,4.1884,4.1367,4.1329,4.1439,4.162,4.171,4.1707,4.1664,4.1981,4.2169,4.2123,4.304,4.3776,4.4308,4.5065,4.5331,4.5129,4.5552,4.6029,4.6544,4.7267,4.8205,4.9235,4.9773,4.9995,5.001,5.0379,5.0715,5.1015,5.1176,5.1552,5.2125,5.3079,5.3281,5.3217,2.0472,2.1147,2.1703,2.1702,2.3154,2.4292,2.4296,2.5097,2.5702,2.5702,2.5699,2.5694,2.571,2.5705,2.5677,2.5602,2.5664,2.5667,2.5603,2.5675,2.5703,2.5703,2.6465,2.7714,2.9468,2.9562,2.9987,3.0803,3.0803,3.0809,3.0798,3.0801,3.0795,3.0877,3.2489,3.3231,3.3394,3.495,3.5601,3.5654,3.6414,3.6778,3.7068,3.862,3.9234,3.9355,3.9974,4.0673,4.1127,4.0068,4.0748,4.1983,4.18,4.2091,4.2625,4.3153,4.2431,4.1378,4.1187,4.1007,4.0795,4.0342,4.012,4.0522,4.2506,4.1836,4.1423,4.3603,4.2957,4.2068,4.2313,4.174,4.1608,4.2846,0.0,0.0,4.25,4.1326,4.0621,4.1593,4.1932,4.1661,4.0493,4.1111,4.139,4.0935,4.1295,4.171,4.212,4.1471,4.1637,4.2793,4.3485,4.3951,4.4128,4.4845,4.5129,4.4911,4.5315,4.6222,4.7509,4.7763,4.8735,5.0182,5.0246,5.0262,5.0262,5.0301,5.0596,5.1015,5.1015,5.1812,5.3028,5.3311,5.375,5.429,2.0424,2.1174,2.1801,2.1803,2.3231,2.4404,2.4392,2.5133,2.5698,2.5696,2.5692,2.5707,2.5698,2.565,2.5623,2.5595,2.5623,2.5623,2.5595,2.5665,2.5933,2.6484,2.7344,2.8378,2.9562,3.0083,3.0498,3.0808,3.0796,3.0809,3.0805,3.08,3.1089,3.1669,3.2781,3.3586,3.412,3.517,3.5621,3.5626,3.5816,3.6579,3.7668,3.8234,3.9108,4.0084,4.0765,4.0836,4.0585,4.0492,4.1149,4.1965,4.1721,4.2412,4.3231,4.2996,4.2455,4.1734,4.0893,4.0623,4.0725,4.1478,4.1342,4.1378,4.2492,4.2159,4.1715,4.207,4.2018,4.1694,4.0905,4.0939,4.1331,4.2144,0.0,4.0578,4.2666,4.1785,4.1055,4.1492,4.1687,4.1478,4.0696,4.0813,4.1072,4.1388,4.1643,4.2004,4.2433,4.2803,4.3214,4.3614,4.4476,4.4961,4.5128,4.53,4.5368,4.5278,4.5552,4.6365,4.7588,4.7817,4.8767,5.0301,5.0418,5.0434,5.0301,5.0589,5.1048,5.1622,5.1745,5.26,5.3766,5.4146,5.4332,5.4438,2.0395,2.1143,2.1859,2.216,2.3415,2.4495,2.4777,2.5323,2.569,2.5705,2.5681,2.5673,2.5676,2.5623,2.5591,2.5604,2.5591,2.5593,2.5604,2.5665,2.6084,2.6953,2.7578,2.8436,2.9581,3.0115,3.0388,3.0384,3.0663,3.0657,3.0406,3.0663,3.1265,3.2137,3.2947,3.3741,3.4542,3.5294,3.5606,3.5596,3.5475,3.6195,3.734,3.7565,3.8535,3.987,4.0567,4.068,4.0549,4.0639,4.1248,4.1959,4.1763,4.24,4.3133,4.2772,4.1934,4.1055,4.0834,4.0346,4.0276,4.1685,4.1671,4.1579,4.2573,4.2409,4.1862,4.1207,4.1498,4.1464,4.0194,4.0447,4.1073,4.1927,4.116,4.1058,4.2684,4.2182,4.1565,4.1327,4.139,4.1129,4.0387,4.0366,4.0712,4.1372,4.1772,4.2017,4.2204,4.3198,4.3753,4.3728,4.4793,4.5498,4.588,4.5552,4.5405,4.5426,4.583,4.6591,4.7718,4.8038,4.8995,5.0379,5.0457,5.0457,5.045,5.0868,5.1455,5.2141,5.2182,5.3079,5.4343,5.4415,5.4505,5.4665,2.0369,2.1103,2.1996,2.2937,2.3816,2.4698,2.5562,2.5704,2.5705,2.5699,2.5645,2.5603,2.5593,2.5593,2.561,2.5599,2.5595,2.5603,2.5602,2.5652,2.6097,2.6953,2.6991,2.783,2.9566,2.9545,2.9509,2.9512,3.0379,3.0368,2.9534,3.039,3.1264,3.2147,3.2932,3.3751,3.4556,3.5286,3.5599,3.5591,3.5534,3.5554,3.5704,3.6574,3.7442,3.8299,3.9032,4.0254,4.1313,4.0264,4.0849,4.1972,4.1763,4.1788,4.1978,4.2436,4.0649,3.8956,4.102,4.0272,3.9224,4.0498,4.0576,4.0849,4.2939,4.2616,4.1866,4.1722,4.1694,4.1477,4.0711,4.0475,4.0901,4.2504,4.17,4.1383,4.2688,4.2602,4.2109,4.1374,4.1189,4.0588,3.9317,3.9864,4.036,4.0594,4.1427,4.1768,4.1422,4.2306,4.2849,4.2916,4.4248,4.5365,4.6096,4.5515,4.5204,4.5225,4.61,4.6994,4.7925,4.8588,4.9501,5.0589,5.0379,5.0418,5.0637,5.1104,5.1725,5.2361,5.2099,5.3162,5.4717,5.3981,5.4281,5.5113,2.0299,2.1021,2.174,2.212,2.3405,2.4495,2.4747,2.5311,2.5682,2.5642,2.5615,2.5598,2.5607,2.5551,2.5557,2.5596,2.5567,2.5551,2.5593,2.5653,2.5821,2.6072,2.7265,2.8434,2.9578,3.0139,3.0412,3.0403,3.0672,3.0669,3.0426,3.0683,3.1598,3.3018,3.3212,3.4101,3.5499,3.5613,3.5702,3.5721,3.5664,3.6047,3.6672,3.6938,3.7579,3.8506,3.9828,4.0048,3.9943,4.1279,4.1817,4.195,4.2088,4.1931,4.154,4.0836,3.9951,3.9294,3.9686,3.9761,4.019,4.2068,4.2341,4.2373,4.3321,4.3557,4.3032,4.11,4.1061,4.096,3.9611,3.938,3.9693,4.0621,4.0959,4.1369,4.2034,4.2481,4.2476,4.1784,4.1439,4.0943,4.0197,4.0104,4.0502,4.1531,4.2554,4.2719,4.1671,4.2902,4.3414,4.2911,4.4361,4.53,4.5667,4.5646,4.5625,4.5625,4.636,4.7107,4.7925,4.8588,4.9423,5.0395,5.034,5.034,5.0443,5.1065,5.1725,5.2402,5.2263,5.3261,5.4717,5.4145,5.442,5.5113,2.023,2.0711,2.1236,2.1679,2.2917,2.3968,2.434,2.5149,2.5671,2.5609,2.5609,2.5593,2.5595,2.5534,2.5524,2.5596,2.557,2.5553,2.561,2.564,2.565,2.5654,2.703,2.8182,2.9071,3.0219,3.063,3.0334,3.0644,3.0641,3.0337,3.0682,3.1757,3.3394,3.3357,3.4284,3.5884,3.5783,3.5768,3.5785,3.5721,3.6067,3.6581,3.6588,3.7128,3.8048,3.9273,3.9451,3.9429,4.136,4.1863,4.1731,4.2044,4.1379,4.0377,3.983,3.907,3.847,3.8893,3.9273,4.011,4.2323,4.2657,4.2663,4.3435,4.3483,4.2769,4.0729,4.0496,4.0294,3.8962,3.8722,3.9065,3.9976,4.0614,4.1252,4.1994,4.2499,4.2653,4.233,4.1866,4.1392,4.087,4.0797,4.1189,4.2175,4.2739,4.2728,4.2024,4.2666,4.3039,4.3044,4.4074,4.4929,4.5484,4.5609,4.5662,4.5677,4.6734,4.7466,4.794,4.8795,4.9521,5.0129,4.9971,5.0169,5.0644,5.1287,5.2122,5.2954,5.32,5.3962,5.4874,5.4482,5.4594,5.4964,2.0167,2.0258,2.0566,2.1427,2.236,2.3305,2.4157,2.5086,2.5673,2.5601,2.56,2.5602,2.5607,2.5535,2.5522,2.5596,2.5596,2.5605,2.5598,2.5603,2.5605,2.5599,2.6495,2.7363,2.8161,2.9839,3.0315,2.9599,3.0393,3.0426,2.9723,3.0525,3.1757,3.3281,3.3376,3.4292,3.5793,3.5811,3.5802,3.5791,3.5746,3.5748,3.5787,3.581,3.633,3.7186,3.7947,3.8671,3.9495,4.0893,4.1381,4.1435,4.1699,4.0401,3.884,3.9164,3.8029,3.6998,3.839,3.8795,3.9309,4.1475,4.1878,4.2037,4.3257,4.2686,4.1615,4.0464,4.0061,3.9617,3.8742,3.8553,3.891,4.0189,4.0599,4.1195,4.2311,4.2522,4.2638,4.2791,4.2333,4.1849,4.1398,4.1797,4.2206,4.2513,4.227,4.2168,4.2318,4.1948,4.2191,4.322,4.3655,4.4365,4.5389,4.5478,4.5547,4.5625,4.7186,4.7925,4.7997,4.9135,4.9749,4.9931,4.9493,4.9996,5.1116,5.1717,5.2686,5.3773,5.4445,5.4858,5.5072,5.4816,5.4765,5.4813,2.0117,2.0222,2.0372,2.0641,2.2012,2.3152,2.3345,2.4705,2.5677,2.5615,2.5609,2.5593,2.5607,2.5535,2.5518,2.5522,2.557,2.5605,2.5598,2.5603,2.5601,2.5593,2.6506,2.7085,2.7285,2.891,2.9692,2.951,3.0377,3.0718,3.0533,3.0736,3.138,3.2406,3.3101,3.398,3.5009,3.5663,3.5938,3.5877,3.5811,3.5767,3.5721,3.5782,3.6284,3.7055,3.7966,3.8646,3.9416,4.1245,4.1946,4.1956,4.1206,3.986,3.8376,3.7484,3.6911,3.6631,3.6943,3.7914,3.9076,4.0249,4.0926,4.1543,4.2723,4.2509,4.16,4.0011,3.9787,3.9588,3.8634,3.889,3.9302,3.946,4.0564,4.1436,4.1558,4.209,4.235,4.2138,4.1726,4.1526,4.1689,4.2356,4.2591,4.2157,4.2703,4.2698,4.1903,4.2372,4.2731,4.2826,4.3853,4.4547,4.4814,4.5426,4.6003,4.6523,4.7482,4.8101,4.8498,4.9395,4.9976,5.0203,4.9712,5.0319,5.158,5.1706,5.2521,5.3725,5.3885,5.4409,5.5008,5.4404,5.4441,5.4771,2.0098,2.0178,2.0275,2.0342,2.1874,2.3095,2.3105,2.4574,2.5698,2.5644,2.5615,2.56,2.5596,2.5538,2.5492,2.5498,2.5538,2.5573,2.5609,2.5593,2.561,2.5591,2.6101,2.6374,2.6386,2.7651,2.8519,2.8925,3.0177,3.0588,3.02,3.0614,3.1273,3.2137,3.3005,3.3881,3.4754,3.5621,3.5954,3.5926,3.6282,3.6381,3.6319,3.6314,3.6792,3.753,3.7989,3.9227,4.0765,4.1632,4.1768,4.1449,4.0653,3.9206,3.7613,3.6733,3.6423,3.6377,3.6482,3.7288,3.8407,3.9768,4.025,4.0756,4.1953,4.1612,4.0774,3.9792,3.9472,3.918,3.8513,3.8875,3.931,3.9452,4.055,4.1463,4.177,4.2029,4.2317,4.2805,4.2346,4.2252,4.2931,4.2909,4.2854,4.2806,4.3214,4.3219,4.2693,4.2857,4.3086,4.3333,4.3752,4.4189,4.461,4.5114,4.5965,4.7174,4.7681,4.7968,4.8168,4.9276,4.9801,4.9805,4.979,5.0653,5.2019,5.2045,5.2776,5.3913,5.4122,5.4528,5.4915,5.453,5.4435,5.446,2.0093,2.0146,2.0215,2.0285,2.1837,2.309,2.3097,2.4577,2.5697,2.5697,2.565,2.5613,2.5607,2.5544,2.5508,2.5506,2.5501,2.5518,2.5573,2.5596,2.561,2.5609,2.5655,2.5681,2.57,2.6543,2.7341,2.8082,2.9777,3.0223,2.9538,3.0409,3.1181,3.1915,3.2943,3.3784,3.4536,3.5556,3.5937,3.5932,3.6592,3.6821,3.6745,3.6701,3.7262,3.8054,3.8017,3.987,4.2267,4.1929,4.1374,4.0735,4.0275,3.8675,3.693,3.6468,3.6297,3.6293,3.6461,3.693,3.7762,3.9507,3.9834,4.0077,4.1231,4.0679,3.9875,3.9729,3.9212,3.8722,3.8476,3.8885,3.9374,3.9858,4.0718,4.158,4.2332,4.2141,4.236,4.3423,4.3099,4.3142,4.4052,4.3388,4.3049,4.3488,4.3463,4.3409,4.3478,4.309,4.321,4.3856,4.3527,4.3723,4.4511,4.4847,4.5832,4.7418,4.7687,4.7804,4.7807,4.8962,4.9407,4.9322,4.9874,5.0989,5.2407,5.2449,5.3071,5.4087,5.4555,5.4739,5.4713,5.4713,5.4444,5.4087,2.0098,2.0143,2.0223,2.0292,2.1808,2.3026,2.3087,2.4577,2.5707,2.569,2.5687,2.5669,2.5609,2.5544,2.5495,2.5492,2.5494,2.5494,2.5518,2.557,2.5599,2.5609,2.5607,2.563,2.57,2.6559,2.705,2.7183,2.8914,2.9709,2.961,3.0429,3.0856,3.105,3.2677,3.3429,3.3596,3.5211,3.5868,3.5827,3.5878,3.5857,3.5782,3.5789,3.6658,3.7932,3.7981,3.9888,4.2337,4.1924,4.1386,4.08,4.033,3.8771,3.7011,3.6588,3.6482,3.6461,3.6502,3.7018,3.7819,3.8946,3.9652,4.0203,4.086,4.043,3.9875,3.9729,3.9212,3.875,3.8611,3.9418,4.0176,4.0361,4.1429,4.23,4.2555,4.227,4.2108,4.2153,4.2535,4.303,4.3543,4.3601,4.3349,4.285,4.2662,4.2555,4.2596,4.2514,4.2743,4.3384,4.3488,4.3723,4.4065,4.5018,4.5912,4.6762,4.7309,4.787,4.8483,4.8835,4.9087,4.9353,5.0219,5.1299,5.2395,5.2578,5.3114,5.3813,5.4269,5.4438,5.4454,5.4454,5.4285,5.413,2.0208,2.0203,2.0238,2.0346,2.1821,2.3024,2.3081,2.4589,2.5699,2.569,2.5676,2.5636,2.56,2.5531,2.5492,2.5498,2.5503,2.5517,2.5557,2.5587,2.5603,2.5605,2.5642,2.5677,2.5691,2.6087,2.6268,2.6268,2.8513,2.9324,2.885,3.017,3.0774,3.0812,3.2616,3.3354,3.3404,3.5156,3.5854,3.584,3.6293,3.6411,3.6317,3.6279,3.7261,3.8722,3.9479,4.0783,4.2178,4.2221,4.1638,4.0783,4.0165,3.8638,3.7011,3.653,3.6402,3.6402,3.6482,3.7015,3.7798,3.8798,3.9516,4.0123,4.0668,4.0436,4.0104,3.9961,3.9382,3.8887,3.875,3.9483,4.0198,4.0379,4.1433,4.2318,4.2571,4.2302,4.2107,4.2108,4.2346,4.2679,4.3065,4.287,4.2672,4.2495,4.2406,4.245,4.2714,4.2622,4.2864,4.3518,4.2773,4.2837,4.3832,4.3935,4.4862,4.6588,4.6452,4.6899,4.7817,4.856,4.8906,4.9007,5.0577,5.1785,5.2582,5.2844,5.3171,5.3552,5.3884,5.4242,5.4613,5.4454,5.4428,5.4486]}]]